Wetterdaten: Freitag, 02.11.2018
Datum Zeit Temp. A. Pool Temp. Temp. 5cm Feuchte A. Luftdruck Regen Wind Richtung Richtung Sonnenschein ET UV Solar Taupunkt Windchill Windben Empfang
02.11.2018 00:00 9,4 C 9,4 C 7,8 C 86 % 1016,0 hPa 0,0 l/m 11,7 km/h (2 Bft) W 259 0 min 0,000 mm 0,0 UV-I 0 W/m 7,2 C 6,0 C 16,1 km/h (3 Bft) 91,49 %
02.11.2018 00:02 9,4 C 9,4 C 7,8 C 86 % 1016,1 hPa 0,0 l/m 11,0 km/h (2 Bft) W 278 0 min 0,000 mm 0,0 UV-I 0 W/m 7,2 C 6,4 C 14,5 km/h (3 Bft) 11,11 %
02.11.2018 00:04 9,6 C 9,4 C 7,2 C 85 % 1016,2 hPa 0,0 l/m 11,6 km/h (2 Bft) W 260 0 min 0,000 mm 0,0 UV-I 0 W/m 7,2 C 6,3 C 17,7 km/h (3 Bft) 83,33 %
02.11.2018 00:06 9,6 C 9,4 C 7,8 C 85 % 1016,2 hPa 0,0 l/m 12,7 km/h (3 Bft) W 261 0 min 0,000 mm 0,0 UV-I 0 W/m 7,2 C 5,7 C 16,1 km/h (3 Bft) 93,62 %
02.11.2018 00:08 9,7 C 9,4 C 7,8 C 84 % 1016,2 hPa 0,0 l/m 10,9 km/h (2 Bft) W-SW 248 0 min 0,000 mm 0,0 UV-I 0 W/m 7,1 C 6,8 C 14,5 km/h (3 Bft) 95,74 %
02.11.2018 00:10 9,7 C 9,4 C 7,8 C 84 % 1016,2 hPa 0,0 l/m 11,0 km/h (2 Bft) W-SW 251 0 min 0,000 mm 0,0 UV-I 0 W/m 7,1 C 6,7 C 16,1 km/h (3 Bft) 97,92 %
02.11.2018 00:12 9,7 C 9,4 C 7,8 C 84 % 1016,2 hPa 0,0 l/m 10,6 km/h (2 Bft) W-SW 254 0 min 0,000 mm 0,0 UV-I 0 W/m 7,1 C 6,9 C 16,1 km/h (3 Bft) 95,74 %
02.11.2018 00:14 9,7 C 9,4 C 7,8 C 84 % 1016,2 hPa 0,0 l/m 12,8 km/h (3 Bft) W-NW 285 0 min 0,000 mm 0,0 UV-I 0 W/m 7,1 C 5,8 C 19,3 km/h (3 Bft) 93,62 %
02.11.2018 00:16 9,7 C 9,4 C 7,8 C 83 % 1016,3 hPa 0,0 l/m 11,0 km/h (2 Bft) W 271 0 min 0,000 mm 0,0 UV-I 0 W/m 7,0 C 6,7 C 14,5 km/h (3 Bft) 97,87 %
02.11.2018 00:18 9,7 C 9,4 C 7,8 C 83 % 1016,3 hPa 0,0 l/m 12,4 km/h (3 Bft) W 270 0 min 0,000 mm 0,0 UV-I 0 W/m 7,0 C 6,0 C 16,1 km/h (3 Bft) 95,74 %
02.11.2018 00:20 9,7 C 9,4 C 7,8 C 83 % 1016,3 hPa 0,0 l/m 11,9 km/h (2 Bft) W-SW 256 0 min 0,000 mm 0,0 UV-I 0 W/m 7,0 C 6,2 C 16,1 km/h (3 Bft) 94,29 %
02.11.2018 00:22 9,8 C 9,4 C 7,8 C 83 % 1016,3 hPa 0,0 l/m 11,6 km/h (2 Bft) W-SW 244 0 min 0,000 mm 0,0 UV-I 0 W/m 7,1 C 6,5 C 16,1 km/h (3 Bft) 98,00 %
02.11.2018 00:24 9,7 C 9,4 C 7,8 C 82 % 1016,4 hPa 0,0 l/m 8,8 km/h (2 Bft) W-SW 250 0 min 0,000 mm 0,0 UV-I 0 W/m 6,8 C 8,0 C 14,5 km/h (3 Bft) 97,87 %
02.11.2018 00:26 9,7 C 9,4 C 7,8 C 82 % 1016,4 hPa 0,0 l/m 8,5 km/h (2 Bft) W-SW 240 0 min 0,000 mm 0,0 UV-I 0 W/m 6,8 C 8,2 C 14,5 km/h (3 Bft) 97,87 %
02.11.2018 00:28 9,7 C 9,4 C 7,8 C 82 % 1016,5 hPa 0,0 l/m 9,0 km/h (2 Bft) W-SW 237 0 min 0,000 mm 0,0 UV-I 0 W/m 6,8 C 7,9 C 14,5 km/h (3 Bft) 100,00 %
02.11.2018 00:30 9,7 C 9,4 C 7,8 C 82 % 1016,6 hPa 0,0 l/m 11,0 km/h (2 Bft) W-SW 243 0 min 0,000 mm 0,0 UV-I 0 W/m 6,8 C 6,7 C 14,5 km/h (3 Bft) 100,00 %
02.11.2018 00:32 9,7 C 9,4 C 7,8 C 82 % 1016,6 hPa 0,0 l/m 9,9 km/h (2 Bft) W-SW 240 0 min 0,000 mm 0,0 UV-I 0 W/m 6,8 C 7,3 C 16,1 km/h (3 Bft) 97,92 %
02.11.2018 00:34 9,7 C 9,4 C 7,8 C 82 % 1016,5 hPa 0,0 l/m 7,8 km/h (2 Bft) W-SW 257 0 min 0,000 mm 0,0 UV-I 0 W/m 6,8 C 8,7 C 12,9 km/h (3 Bft) 100,00 %
02.11.2018 00:36 9,7 C 9,4 C 7,8 C 82 % 1016,5 hPa 0,0 l/m 9,6 km/h (2 Bft) W-SW 257 0 min 0,000 mm 0,0 UV-I 0 W/m 6,8 C 7,5 C 11,3 km/h (2 Bft) 100,00 %
02.11.2018 00:38 9,6 C 9,4 C 7,8 C 82 % 1016,6 hPa 0,0 l/m 10,7 km/h (2 Bft) W 269 0 min 0,000 mm 0,0 UV-I 0 W/m 6,7 C 6,8 C 14,5 km/h (3 Bft) 100,00 %
02.11.2018 00:40 9,4 C 9,4 C 7,8 C 82 % 1016,6 hPa 0,0 l/m 11,6 km/h (2 Bft) W 268 0 min 0,000 mm 0,0 UV-I 0 W/m 6,5 C 6,0 C 14,5 km/h (3 Bft) 100,00 %
02.11.2018 00:42 9,3 C 9,4 C 7,2 C 83 % 1016,6 hPa 0,0 l/m 9,8 km/h (2 Bft) W 265 0 min 0,000 mm 0,0 UV-I 0 W/m 6,6 C 6,9 C 11,3 km/h (2 Bft) 100,00 %
02.11.2018 00:44 9,2 C 9,4 C 7,2 C 83 % 1016,6 hPa 0,0 l/m 10,4 km/h (2 Bft) W 265 0 min 0,000 mm 0,0 UV-I 0 W/m 6,5 C 6,5 C 12,9 km/h (3 Bft) 97,87 %
02.11.2018 00:46 9,2 C 9,4 C 7,2 C 84 % 1016,7 hPa 0,0 l/m 9,9 km/h (2 Bft) W 273 0 min 0,000 mm 0,0 UV-I 0 W/m 6,6 C 6,8 C 11,3 km/h (2 Bft) 100,00 %
02.11.2018 00:48 9,2 C 9,4 C 7,2 C 84 % 1016,7 hPa 0,0 l/m 9,7 km/h (2 Bft) W 273 0 min 0,000 mm 0,0 UV-I 0 W/m 6,6 C 6,9 C 9,7 km/h (2 Bft) 97,87 %
02.11.2018 00:50 9,2 C 9,4 C 7,2 C 84 % 1016,9 hPa 0,0 l/m 10,5 km/h (2 Bft) W 259 0 min 0,000 mm 0,0 UV-I 0 W/m 6,6 C 6,4 C 14,5 km/h (3 Bft) 98,00 %
02.11.2018 00:52 9,2 C 9,4 C 7,2 C 84 % 1016,9 hPa 0,0 l/m 9,5 km/h (2 Bft) W 261 0 min 0,000 mm 0,0 UV-I 0 W/m 6,6 C 7,0 C 12,9 km/h (3 Bft) 100,00 %
02.11.2018 00:54 9,2 C 9,4 C 6,7 C 84 % 1016,9 hPa 0,0 l/m 7,6 km/h (2 Bft) W 269 0 min 0,000 mm 0,0 UV-I 0 W/m 6,6 C 8,3 C 12,9 km/h (3 Bft) 100,00 %
02.11.2018 00:56 9,2 C 9,4 C 6,7 C 84 % 1016,9 hPa 0,0 l/m 7,3 km/h (2 Bft) W-SW 242 0 min 0,000 mm 0,0 UV-I 0 W/m 6,6 C 8,5 C 11,3 km/h (2 Bft) 100,00 %
02.11.2018 00:58 9,2 C 9,4 C 6,7 C 84 % 1016,9 hPa 0,0 l/m 7,6 km/h (2 Bft) W 265 0 min 0,000 mm 0,0 UV-I 0 W/m 6,6 C 8,3 C 11,3 km/h (2 Bft) 97,87 %
02.11.2018 01:00 9,3 C 9,4 C 7,2 C 84 % 1017,0 hPa 0,0 l/m 10,2 km/h (2 Bft) W-SW 250 0 min 0,025 mm 0,0 UV-I 0 W/m 6,7 C 6,7 C 16,1 km/h (3 Bft) 100,00 %
02.11.2018 01:02 9,3 C 9,4 C 7,2 C 84 % 1017,0 hPa 0,0 l/m 8,4 km/h (2 Bft) W 266 0 min 0,000 mm 0,0 UV-I 0 W/m 6,7 C 7,8 C 11,3 km/h (2 Bft) 100,00 %
02.11.2018 01:04 9,3 C 9,4 C 7,2 C 83 % 1017,0 hPa 0,0 l/m 8,5 km/h (2 Bft) W 273 0 min 0,000 mm 0,0 UV-I 0 W/m 6,6 C 7,8 C 11,3 km/h (2 Bft) 97,73 %
02.11.2018 01:06 9,3 C 9,4 C 7,2 C 83 % 1017,1 hPa 0,0 l/m 8,5 km/h (2 Bft) W 279 0 min 0,000 mm 0,0 UV-I 0 W/m 6,6 C 7,8 C 14,5 km/h (3 Bft) 96,00 %
02.11.2018 01:08 9,3 C 9,4 C 6,7 C 83 % 1017,2 hPa 0,0 l/m 8,1 km/h (2 Bft) W-SW 250 0 min 0,000 mm 0,0 UV-I 0 W/m 6,6 C 8,0 C 12,9 km/h (3 Bft) 97,87 %
02.11.2018 01:10 9,3 C 9,4 C 7,2 C 83 % 1017,3 hPa 0,0 l/m 7,7 km/h (2 Bft) W 268 0 min 0,000 mm 0,0 UV-I 0 W/m 6,6 C 8,3 C 12,9 km/h (3 Bft) 95,74 %
02.11.2018 01:12 9,3 C 9,4 C 6,7 C 84 % 1017,2 hPa 0,0 l/m 9,5 km/h (2 Bft) W 271 0 min 0,000 mm 0,0 UV-I 0 W/m 6,7 C 7,1 C 12,9 km/h (3 Bft) 98,00 %
02.11.2018 01:14 9,3 C 9,4 C 7,2 C 84 % 1017,3 hPa 0,0 l/m 8,4 km/h (2 Bft) W 271 0 min 0,000 mm 0,0 UV-I 0 W/m 6,7 C 7,8 C 14,5 km/h (3 Bft) 97,87 %
02.11.2018 01:16 9,3 C 9,4 C 6,7 C 84 % 1017,3 hPa 0,0 l/m 6,9 km/h (2 Bft) W-SW 257 0 min 0,000 mm 0,0 UV-I 0 W/m 6,7 C 8,9 C 9,7 km/h (2 Bft) 96,00 %
02.11.2018 01:18 9,2 C 9,4 C 6,7 C 84 % 1017,3 hPa 0,0 l/m 6,5 km/h (2 Bft) W 273 0 min 0,000 mm 0,0 UV-I 0 W/m 6,6 C 9,2 C 11,3 km/h (2 Bft) 97,87 %
02.11.2018 01:20 9,2 C 9,4 C 6,7 C 83 % 1017,3 hPa 0,0 l/m 5,8 km/h (2 Bft) W 269 0 min 0,000 mm 0,0 UV-I 0 W/m 6,5 C 9,2 C 9,7 km/h (2 Bft) 97,92 %
02.11.2018 01:22 9,1 C 9,4 C 6,7 C 84 % 1017,4 hPa 0,0 l/m 4,9 km/h (1 Bft) W 267 0 min 0,000 mm 0,0 UV-I 0 W/m 6,5 C 9,1 C 6,4 km/h (2 Bft) 97,87 %
02.11.2018 01:24 8,9 C 9,4 C 6,7 C 84 % 1017,4 hPa 0,0 l/m 5,2 km/h (1 Bft) W 261 0 min 0,000 mm 0,0 UV-I 0 W/m 6,3 C 8,9 C 11,3 km/h (2 Bft) 97,14 %
02.11.2018 01:26 8,8 C 9,4 C 6,7 C 84 % 1017,5 hPa 0,0 l/m 4,5 km/h (1 Bft) W 259 0 min 0,000 mm 0,0 UV-I 0 W/m 6,2 C 8,8 C 6,4 km/h (2 Bft) 100,00 %
02.11.2018 01:28 8,7 C 9,4 C 6,7 C 84 % 1017,5 hPa 0,0 l/m 5,2 km/h (1 Bft) W-SW 255 0 min 0,000 mm 0,0 UV-I 0 W/m 6,2 C 8,7 C 11,3 km/h (2 Bft) 95,74 %
02.11.2018 01:30 8,6 C 9,4 C 6,7 C 85 % 1017,5 hPa 0,0 l/m 5,5 km/h (1 Bft) W 278 0 min 0,000 mm 0,0 UV-I 0 W/m 6,2 C 8,6 C 11,3 km/h (2 Bft) 100,00 %
02.11.2018 01:32 8,6 C 9,4 C 6,1 C 85 % 1017,4 hPa 0,0 l/m 6,0 km/h (2 Bft) W-SW 251 0 min 0,000 mm 0,0 UV-I 0 W/m 6,2 C 8,6 C 11,3 km/h (2 Bft) 100,00 %
02.11.2018 01:34 8,6 C 9,4 C 6,1 C 86 % 1017,5 hPa 0,0 l/m 5,8 km/h (2 Bft) W-SW 249 0 min 0,000 mm 0,0 UV-I 0 W/m 6,4 C 8,6 C 9,7 km/h (2 Bft) 98,00 %
02.11.2018 01:36 8,6 C 9,4 C 6,7 C 86 % 1017,7 hPa 0,0 l/m 7,4 km/h (2 Bft) W 262 0 min 0,000 mm 0,0 UV-I 0 W/m 6,4 C 7,8 C 11,3 km/h (2 Bft) 100,00 %
02.11.2018 01:38 8,6 C 9,4 C 6,7 C 86 % 1017,7 hPa 0,0 l/m 9,8 km/h (2 Bft) W 281 0 min 0,000 mm 0,0 UV-I 0 W/m 6,4 C 6,2 C 14,5 km/h (3 Bft) 98,46 %
02.11.2018 01:40 8,7 C 9,4 C 6,7 C 86 % 1017,7 hPa 0,0 l/m 11,2 km/h (2 Bft) W 273 0 min 0,000 mm 0,0 UV-I 0 W/m 6,5 C 5,5 C 14,5 km/h (3 Bft) 97,87 %
02.11.2018 01:42 8,8 C 9,4 C 6,7 C 86 % 1017,6 hPa 0,0 l/m 8,8 km/h (2 Bft) W-NW 296 0 min 0,000 mm 0,0 UV-I 0 W/m 6,6 C 7,0 C 12,9 km/h (3 Bft) 98,00 %
02.11.2018 01:44 8,8 C 9,4 C 6,7 C 86 % 1017,7 hPa 0,0 l/m 7,3 km/h (2 Bft) W-SW 253 0 min 0,000 mm 0,0 UV-I 0 W/m 6,6 C 8,1 C 14,5 km/h (3 Bft) 97,87 %
02.11.2018 01:46 8,8 C 9,4 C 6,7 C 85 % 1017,7 hPa 0,0 l/m 7,3 km/h (2 Bft) W 277 0 min 0,000 mm 0,0 UV-I 0 W/m 6,4 C 8,1 C 12,9 km/h (3 Bft) 93,62 %
02.11.2018 01:48 8,9 C 9,4 C 7,2 C 85 % 1017,7 hPa 0,0 l/m 7,3 km/h (2 Bft) W 266 0 min 0,000 mm 0,0 UV-I 0 W/m 6,5 C 8,2 C 12,9 km/h (3 Bft) 95,74 %
02.11.2018 01:50 8,9 C 9,4 C 7,2 C 85 % 1017,7 hPa 0,0 l/m 7,6 km/h (2 Bft) W 276 0 min 0,000 mm 0,0 UV-I 0 W/m 6,5 C 8,0 C 11,3 km/h (2 Bft) 97,87 %
02.11.2018 01:52 8,9 C 9,4 C 7,2 C 85 % 1017,8 hPa 0,0 l/m 5,5 km/h (1 Bft) W 275 0 min 0,000 mm 0,0 UV-I 0 W/m 6,5 C 8,9 C 11,3 km/h (2 Bft) 95,74 %
02.11.2018 01:54 8,8 C 9,4 C 6,7 C 85 % 1018,0 hPa 0,0 l/m 5,9 km/h (2 Bft) W 273 0 min 0,000 mm 0,0 UV-I 0 W/m 6,4 C 8,8 C 11,3 km/h (2 Bft) 97,87 %
02.11.2018 01:56 8,8 C 9,4 C 6,7 C 85 % 1018,0 hPa 0,0 l/m 6,9 km/h (2 Bft) W 259 0 min 0,000 mm 0,0 UV-I 0 W/m 6,4 C 8,4 C 11,3 km/h (2 Bft) 97,87 %
02.11.2018 01:58 8,8 C 9,4 C 6,7 C 85 % 1018,0 hPa 0,0 l/m 4,8 km/h (1 Bft) W-NW 286 0 min 0,000 mm 0,0 UV-I 0 W/m 6,4 C 8,8 C 9,7 km/h (2 Bft) 97,22 %
02.11.2018 02:00 8,8 C 9,4 C 6,7 C 85 % 1018,1 hPa 0,0 l/m 5,2 km/h (1 Bft) W 273 0 min 0,026 mm 0,0 UV-I 0 W/m 6,4 C 8,8 C 8,0 km/h (2 Bft) 98,00 %
02.11.2018 02:02 8,7 C 9,4 C 6,7 C 85 % 1018,2 hPa 0,0 l/m 4,5 km/h (1 Bft) W 263 0 min 0,000 mm 0,0 UV-I 0 W/m 6,3 C 8,7 C 6,4 km/h (2 Bft) 94,00 %
02.11.2018 02:04 8,6 C 9,4 C 6,1 C 86 % 1018,2 hPa 0,0 l/m 7,1 km/h (2 Bft) W 278 0 min 0,000 mm 0,0 UV-I 0 W/m 6,4 C 8,1 C 11,3 km/h (2 Bft) 98,00 %
02.11.2018 02:06 8,6 C 9,4 C 6,1 C 86 % 1018,3 hPa 0,0 l/m 6,0 km/h (2 Bft) W 269 0 min 0,000 mm 0,0 UV-I 0 W/m 6,4 C 8,6 C 9,7 km/h (2 Bft) 96,00 %
02.11.2018 02:08 8,7 C 9,4 C 6,1 C 86 % 1018,3 hPa 0,0 l/m 6,1 km/h (2 Bft) W 266 0 min 0,000 mm 0,0 UV-I 0 W/m 6,5 C 8,7 C 11,3 km/h (2 Bft) 94,74 %
02.11.2018 02:10 8,7 C 9,4 C 6,7 C 86 % 1018,4 hPa 0,0 l/m 5,1 km/h (1 Bft) W-NW 284 0 min 0,000 mm 0,0 UV-I 0 W/m 6,5 C 8,7 C 6,4 km/h (2 Bft) 93,62 %
02.11.2018 02:12 8,7 C 9,4 C 6,1 C 85 % 1018,3 hPa 0,0 l/m 7,0 km/h (2 Bft) W 269 0 min 0,000 mm 0,0 UV-I 0 W/m 6,3 C 8,2 C 12,9 km/h (3 Bft) 92,00 %
02.11.2018 02:14 8,6 C 9,4 C 6,1 C 86 % 1018,3 hPa 0,0 l/m 7,9 km/h (2 Bft) W 270 0 min 0,000 mm 0,0 UV-I 0 W/m 6,4 C 7,5 C 12,9 km/h (3 Bft) 95,74 %
02.11.2018 02:16 8,6 C 9,4 C 6,1 C 86 % 1018,4 hPa 0,0 l/m 8,9 km/h (2 Bft) W 271 0 min 0,000 mm 0,0 UV-I 0 W/m 6,4 C 6,8 C 12,9 km/h (3 Bft) 95,74 %
02.11.2018 02:18 8,6 C 9,4 C 6,1 C 86 % 1018,5 hPa 0,0 l/m 8,8 km/h (2 Bft) W 265 0 min 0,000 mm 0,0 UV-I 0 W/m 6,4 C 6,8 C 12,9 km/h (3 Bft) 92,00 %
02.11.2018 02:20 8,6 C 9,4 C 6,1 C 86 % 1018,5 hPa 0,0 l/m 10,2 km/h (2 Bft) W-SW 257 0 min 0,000 mm 0,0 UV-I 0 W/m 6,4 C 5,9 C 14,5 km/h (3 Bft) 96,00 %
02.11.2018 02:22 8,6 C 9,4 C 6,1 C 86 % 1018,5 hPa 0,0 l/m 10,5 km/h (2 Bft) W-SW 254 0 min 0,000 mm 0,0 UV-I 0 W/m 6,4 C 5,7 C 12,9 km/h (3 Bft) 86,84 %
02.11.2018 02:24 8,7 C 9,4 C 6,7 C 86 % 1018,5 hPa 0,0 l/m 9,9 km/h (2 Bft) W-SW 254 0 min 0,000 mm 0,0 UV-I 0 W/m 6,5 C 6,2 C 16,1 km/h (3 Bft) 91,49 %
02.11.2018 02:26 8,7 C 9,4 C 6,7 C 86 % 1018,6 hPa 0,0 l/m 7,4 km/h (2 Bft) W 278 0 min 0,000 mm 0,0 UV-I 0 W/m 6,5 C 7,9 C 11,3 km/h (2 Bft) 94,00 %
02.11.2018 02:28 8,7 C 9,4 C 6,7 C 86 % 1018,6 hPa 0,0 l/m 10,0 km/h (2 Bft) W 269 0 min 0,000 mm 0,0 UV-I 0 W/m 6,5 C 6,2 C 14,5 km/h (3 Bft) 89,36 %
02.11.2018 02:30 8,7 C 9,4 C 6,7 C 86 % 1018,6 hPa 0,0 l/m 7,4 km/h (2 Bft) W-SW 242 0 min 0,000 mm 0,0 UV-I 0 W/m 6,5 C 7,9 C 12,9 km/h (3 Bft) 92,00 %
02.11.2018 02:32 8,7 C 9,4 C 6,7 C 86 % 1018,6 hPa 0,0 l/m 6,6 km/h (2 Bft) W 261 0 min 0,000 mm 0,0 UV-I 0 W/m 6,5 C 8,6 C 11,3 km/h (2 Bft) 91,49 %
02.11.2018 02:34 8,7 C 9,4 C 6,7 C 85 % 1018,6 hPa 0,0 l/m 7,2 km/h (2 Bft) SW 232 0 min 0,000 mm 0,0 UV-I 0 W/m 6,3 C 8,1 C 11,3 km/h (2 Bft) 89,36 %
02.11.2018 02:36 8,6 C 9,4 C 6,7 C 86 % 1018,6 hPa 0,0 l/m 7,7 km/h (2 Bft) W-SW 251 0 min 0,000 mm 0,0 UV-I 0 W/m 6,4 C 7,6 C 11,3 km/h (2 Bft) 93,62 %
02.11.2018 02:38 8,5 C 9,4 C 6,7 C 86 % 1018,6 hPa 0,0 l/m 5,9 km/h (2 Bft) W-SW 247 0 min 0,000 mm 0,0 UV-I 0 W/m 6,3 C 8,5 C 9,7 km/h (2 Bft) 95,74 %
02.11.2018 02:40 8,4 C 9,4 C 6,7 C 86 % 1018,5 hPa 0,0 l/m 6,6 km/h (2 Bft) W 277 0 min 0,000 mm 0,0 UV-I 0 W/m 6,2 C 8,3 C 9,7 km/h (2 Bft) 93,75 %
02.11.2018 02:42 8,4 C 9,4 C 6,1 C 86 % 1018,5 hPa 0,0 l/m 5,6 km/h (1 Bft) W 265 0 min 0,000 mm 0,0 UV-I 0 W/m 6,2 C 8,4 C 9,7 km/h (2 Bft) 93,75 %
02.11.2018 02:44 8,3 C 9,4 C 6,1 C 86 % 1018,5 hPa 0,0 l/m 4,9 km/h (1 Bft) W 269 0 min 0,000 mm 0,0 UV-I 0 W/m 6,1 C 8,3 C 9,7 km/h (2 Bft) 94,29 %
02.11.2018 02:46 8,2 C 9,4 C 6,1 C 87 % 1018,4 hPa 0,0 l/m 5,5 km/h (1 Bft) W 274 0 min 0,000 mm 0,0 UV-I 0 W/m 6,2 C 8,2 C 8,0 km/h (2 Bft) 97,87 %
02.11.2018 02:48 8,1 C 9,4 C 5,6 C 87 % 1018,3 hPa 0,0 l/m 5,5 km/h (1 Bft) W 277 0 min 0,000 mm 0,0 UV-I 0 W/m 6,1 C 8,1 C 9,7 km/h (2 Bft) 97,87 %
02.11.2018 02:50 8,1 C 9,4 C 5,6 C 87 % 1018,3 hPa 0,0 l/m 5,4 km/h (1 Bft) W 265 0 min 0,000 mm 0,0 UV-I 0 W/m 6,1 C 8,1 C 9,7 km/h (2 Bft) 100,00 %
02.11.2018 02:52 7,9 C 9,4 C 5,6 C 87 % 1018,4 hPa 0,0 l/m 3,9 km/h (1 Bft) W 267 0 min 0,000 mm 0,0 UV-I 0 W/m 5,9 C 7,9 C 6,4 km/h (2 Bft) 97,87 %
02.11.2018 02:54 7,9 C 9,4 C 5,6 C 87 % 1018,4 hPa 0,0 l/m 3,6 km/h (1 Bft) SW 232 0 min 0,000 mm 0,0 UV-I 0 W/m 5,9 C 7,9 C 6,4 km/h (2 Bft) 100,00 %
02.11.2018 02:56 7,7 C 9,4 C 5,6 C 87 % 1018,5 hPa 0,0 l/m 3,8 km/h (1 Bft) W-SW 239 0 min 0,000 mm 0,0 UV-I 0 W/m 5,7 C 7,7 C 4,8 km/h (1 Bft) 100,00 %
02.11.2018 02:58 7,4 C 9,4 C 5,0 C 87 % 1018,5 hPa 0,0 l/m 2,4 km/h (1 Bft) W-SW 237 0 min 0,000 mm 0,0 UV-I 0 W/m 5,4 C 7,4 C 4,8 km/h (1 Bft) 98,00 %
02.11.2018 03:00 7,3 C 9,4 C 5,0 C 88 % 1018,6 hPa 0,0 l/m 3,5 km/h (1 Bft) SW 225 0 min 0,000 mm 0,0 UV-I 0 W/m 5,4 C 7,3 C 6,4 km/h (2 Bft) 97,37 %
02.11.2018 03:02 7,1 C 9,4 C 4,4 C 88 % 1018,6 hPa 0,0 l/m 5,0 km/h (1 Bft) S-SW 192 0 min 0,000 mm 0,0 UV-I 0 W/m 5,2 C 7,1 C 6,4 km/h (2 Bft) 100,00 %
02.11.2018 03:04 7,0 C 9,4 C 4,4 C 89 % 1018,5 hPa 0,0 l/m 4,8 km/h (1 Bft) S 190 0 min 0,000 mm 0,0 UV-I 0 W/m 5,3 C 7,0 C 6,4 km/h (2 Bft) 100,00 %
02.11.2018 03:06 6,9 C 9,4 C 4,4 C 89 % 1018,5 hPa 0,0 l/m 3,6 km/h (1 Bft) S 190 0 min 0,000 mm 0,0 UV-I 0 W/m 5,2 C 6,9 C 6,4 km/h (2 Bft) 100,00 %
02.11.2018 03:08 7,1 C 9,4 C 3,9 C 90 % 1018,6 hPa 0,0 l/m 3,1 km/h (1 Bft) S 190 0 min 0,000 mm 0,0 UV-I 0 W/m 5,6 C 7,1 C 4,8 km/h (1 Bft) 97,87 %
02.11.2018 03:10 7,1 C 9,4 C 3,9 C 90 % 1018,6 hPa 0,0 l/m 1,1 km/h (1 Bft) S 190 0 min 0,000 mm 0,0 UV-I 0 W/m 5,6 C 7,1 C 1,6 km/h (1 Bft) 100,00 %
02.11.2018 03:12 7,2 C 9,4 C 3,3 C 90 % 1018,6 hPa 0,0 l/m 0,3 km/h (0 Bft) S 190 0 min 0,000 mm 0,0 UV-I 0 W/m 5,7 C 7,2 C 1,6 km/h (1 Bft) 100,00 %
02.11.2018 03:14 7,2 C 9,4 C 3,3 C 90 % 1018,6 hPa 0,0 l/m 1,7 km/h (1 Bft) W-SW 248 0 min 0,000 mm 0,0 UV-I 0 W/m 5,7 C 7,2 C 3,2 km/h (1 Bft) 98,00 %
02.11.2018 03:16 7,2 C 9,4 C 3,3 C 90 % 1018,5 hPa 0,0 l/m 2,3 km/h (1 Bft) W-SW 248 0 min 0,000 mm 0,0 UV-I 0 W/m 5,7 C 7,2 C 3,2 km/h (1 Bft) 98,00 %
02.11.2018 03:18 7,2 C 9,4 C 2,8 C 90 % 1018,5 hPa 0,0 l/m 1,7 km/h (1 Bft) W-SW 248 0 min 0,000 mm 0,0 UV-I 0 W/m 5,7 C 7,2 C 3,2 km/h (1 Bft) 100,00 %
02.11.2018 03:20 7,2 C 9,4 C 2,8 C 90 % 1018,5 hPa 0,0 l/m 2,1 km/h (1 Bft) W-SW 248 0 min 0,000 mm 0,0 UV-I 0 W/m 5,7 C 7,2 C 3,2 km/h (1 Bft) 100,00 %
02.11.2018 03:22 7,1 C 9,4 C 2,8 C 90 % 1018,5 hPa 0,0 l/m 1,7 km/h (1 Bft) W-SW 248 0 min 0,000 mm 0,0 UV-I 0 W/m 5,6 C 7,1 C 3,2 km/h (1 Bft) 100,00 %
02.11.2018 03:24 7,1 C 9,4 C 3,3 C 90 % 1018,5 hPa 0,0 l/m 1,6 km/h (1 Bft) W-SW 248 0 min 0,000 mm 0,0 UV-I 0 W/m 5,6 C 7,1 C 3,2 km/h (1 Bft) 100,00 %
02.11.2018 03:26 6,9 C 9,4 C 3,3 C 89 % 1018,6 hPa 0,0 l/m 2,2 km/h (1 Bft) W-SW 248 0 min 0,000 mm 0,0 UV-I 0 W/m 5,2 C 6,9 C 3,2 km/h (1 Bft) 97,87 %
02.11.2018 03:28 6,8 C 9,4 C 3,3 C 90 % 1018,6 hPa 0,0 l/m 2,4 km/h (1 Bft) W-SW 248 0 min 0,000 mm 0,0 UV-I 0 W/m 5,3 C 6,8 C 3,2 km/h (1 Bft) 100,00 %
02.11.2018 03:30 6,7 C 9,4 C 3,3 C 90 % 1018,5 hPa 0,0 l/m 3,4 km/h (1 Bft) SW 225 0 min 0,000 mm 0,0 UV-I 0 W/m 5,2 C 6,7 C 4,8 km/h (1 Bft) 100,00 %
02.11.2018 03:32 6,6 C 9,4 C 3,3 C 90 % 1018,5 hPa 0,0 l/m 3,4 km/h (1 Bft) SW 225 0 min 0,000 mm 0,0 UV-I 0 W/m 5,1 C 6,6 C 4,8 km/h (1 Bft) 97,87 %
02.11.2018 03:34 6,5 C 9,4 C 3,3 C 90 % 1018,5 hPa 0,0 l/m 2,2 km/h (1 Bft) SW 225 0 min 0,000 mm 0,0 UV-I 0 W/m 5,0 C 6,5 C 3,2 km/h (1 Bft) 100,00 %
02.11.2018 03:36 6,5 C 9,4 C 2,8 C 91 % 1018,4 hPa 0,0 l/m 0,5 km/h (0 Bft) SW 225 0 min 0,000 mm 0,0 UV-I 0 W/m 5,1 C 6,5 C 1,6 km/h (1 Bft) 100,00 %
02.11.2018 03:38 6,6 C 9,4 C 2,8 C 91 % 1018,5 hPa 0,0 l/m 0,0 km/h (0 Bft) SW 225 0 min 0,000 mm 0,0 UV-I 0 W/m 5,2 C 6,6 C 1,6 km/h (1 Bft) 100,00 %
02.11.2018 03:40 6,8 C 9,4 C 2,8 C 91 % 1018,5 hPa 0,0 l/m 0,5 km/h (0 Bft) SW 225 0 min 0,000 mm 0,0 UV-I 0 W/m 5,4 C 6,8 C 1,6 km/h (1 Bft) 97,87 %
02.11.2018 03:42 6,9 C 9,4 C 2,8 C 91 % 1018,6 hPa 0,0 l/m 0,1 km/h (0 Bft) SW 225 0 min 0,000 mm 0,0 UV-I 0 W/m 5,5 C 6,9 C 1,6 km/h (1 Bft) 98,00 %
02.11.2018 03:45 7,0 C 9,4 C 3,3 C 91 % 1018,6 hPa 0,0 l/m 0,6 km/h (0 Bft) SW 225 0 min 0,000 mm 0,0 UV-I 0 W/m 5,6 C 7,0 C 3,2 km/h (1 Bft) 97,18 %
02.11.2018 03:46 7,0 C 9,4 C 3,3 C 91 % 1018,6 hPa 0,0 l/m 1,6 km/h (1 Bft) SW 225 0 min 0,000 mm 0,0 UV-I 0 W/m 5,6 C 7,0 C 3,2 km/h (1 Bft) 100,00 %
02.11.2018 03:48 7,0 C 9,4 C 3,3 C 91 % 1018,6 hPa 0,0 l/m 1,6 km/h (1 Bft) SW 225 0 min 0,000 mm 0,0 UV-I 0 W/m 5,6 C 7,0 C 3,2 km/h (1 Bft) 93,62 %
02.11.2018 03:50 6,9 C 9,4 C 3,9 C 90 % 1018,6 hPa 0,0 l/m 0,8 km/h (0 Bft) SW 225 0 min 0,000 mm 0,0 UV-I 0 W/m 5,4 C 6,9 C 3,2 km/h (1 Bft) 93,62 %
02.11.2018 03:52 6,9 C 9,4 C 3,9 C 91 % 1018,6 hPa 0,0 l/m 0,9 km/h (0 Bft) SW 225 0 min 0,000 mm 0,0 UV-I 0 W/m 5,5 C 6,9 C 3,2 km/h (1 Bft) 94,87 %
02.11.2018 03:54 6,9 C 9,4 C 3,9 C 91 % 1018,6 hPa 0,0 l/m 2,8 km/h (1 Bft) W-SW 253 0 min 0,000 mm 0,0 UV-I 0 W/m 5,5 C 6,9 C 4,8 km/h (1 Bft) 95,74 %
02.11.2018 03:56 7,0 C 9,4 C 3,9 C 91 % 1018,6 hPa 0,0 l/m 3,5 km/h (1 Bft) W-SW 253 0 min 0,000 mm 0,0 UV-I 0 W/m 5,6 C 7,0 C 4,8 km/h (1 Bft) 95,74 %
02.11.2018 03:58 7,1 C 9,4 C 3,9 C 91 % 1018,6 hPa 0,0 l/m 3,5 km/h (1 Bft) W-SW 253 0 min 0,000 mm 0,0 UV-I 0 W/m 5,7 C 7,1 C 4,8 km/h (1 Bft) 98,00 %
02.11.2018 04:00 7,1 C 9,4 C 4,4 C 91 % 1018,6 hPa 0,0 l/m 2,1 km/h (1 Bft) W-SW 253 0 min 0,000 mm 0,0 UV-I 0 W/m 5,7 C 7,1 C 3,2 km/h (1 Bft) 97,87 %
02.11.2018 04:02 7,0 C 9,4 C 4,4 C 90 % 1018,6 hPa 0,0 l/m 3,2 km/h (1 Bft) W-SW 253 0 min 0,000 mm 0,0 UV-I 0 W/m 5,5 C 7,0 C 4,8 km/h (1 Bft) 100,00 %
02.11.2018 04:04 6,8 C 9,4 C 4,4 C 90 % 1018,7 hPa 0,0 l/m 5,2 km/h (1 Bft) S-SW 196 0 min 0,000 mm 0,0 UV-I 0 W/m 5,3 C 6,8 C 6,4 km/h (2 Bft) 97,87 %
02.11.2018 04:06 6,7 C 9,4 C 5,0 C 90 % 1018,8 hPa 0,0 l/m 5,9 km/h (2 Bft) S-SW 203 0 min 0,000 mm 0,0 UV-I 0 W/m 5,2 C 6,7 C 6,4 km/h (2 Bft) 100,00 %
02.11.2018 04:08 6,7 C 9,4 C 5,0 C 91 % 1018,9 hPa 0,0 l/m 6,0 km/h (2 Bft) S-SW 213 0 min 0,000 mm 0,0 UV-I 0 W/m 5,3 C 6,7 C 8,0 km/h (2 Bft) 97,87 %
02.11.2018 04:10 6,9 C 9,4 C 5,6 C 91 % 1018,9 hPa 0,0 l/m 5,7 km/h (1 Bft) S-SW 208 0 min 0,000 mm 0,0 UV-I 0 W/m 5,5 C 6,9 C 6,4 km/h (2 Bft) 100,00 %
02.11.2018 04:12 7,1 C 9,4 C 5,6 C 91 % 1018,9 hPa 0,0 l/m 5,7 km/h (1 Bft) S-SW 203 0 min 0,000 mm 0,0 UV-I 0 W/m 5,7 C 7,1 C 8,0 km/h (2 Bft) 100,00 %
02.11.2018 04:14 7,1 C 9,4 C 5,6 C 91 % 1018,9 hPa 0,0 l/m 4,5 km/h (1 Bft) S-SW 211 0 min 0,000 mm 0,0 UV-I 0 W/m 5,7 C 7,1 C 6,4 km/h (2 Bft) 96,00 %
02.11.2018 04:16 7,2 C 9,4 C 5,0 C 91 % 1018,9 hPa 0,0 l/m 4,7 km/h (1 Bft) SW 215 0 min 0,000 mm 0,0 UV-I 0 W/m 5,8 C 7,2 C 6,4 km/h (2 Bft) 97,87 %
02.11.2018 04:18 7,2 C 9,4 C 5,0 C 91 % 1018,9 hPa 0,0 l/m 4,6 km/h (1 Bft) SW 218 0 min 0,000 mm 0,0 UV-I 0 W/m 5,8 C 7,2 C 6,4 km/h (2 Bft) 97,87 %
02.11.2018 04:20 7,3 C 9,4 C 5,0 C 90 % 1018,8 hPa 0,0 l/m 3,5 km/h (1 Bft) SW 223 0 min 0,000 mm 0,0 UV-I 0 W/m 5,8 C 7,3 C 4,8 km/h (1 Bft) 95,74 %
02.11.2018 04:22 7,3 C 9,4 C 4,4 C 90 % 1018,8 hPa 0,0 l/m 3,0 km/h (1 Bft) SW 223 0 min 0,000 mm 0,0 UV-I 0 W/m 5,8 C 7,3 C 4,8 km/h (1 Bft) 98,00 %
02.11.2018 04:24 7,3 C 9,4 C 4,4 C 90 % 1018,8 hPa 0,0 l/m 1,9 km/h (1 Bft) SW 223 0 min 0,000 mm 0,0 UV-I 0 W/m 5,8 C 7,3 C 3,2 km/h (1 Bft) 98,00 %
02.11.2018 04:26 7,1 C 9,4 C 4,4 C 89 % 1018,8 hPa 0,0 l/m 3,2 km/h (1 Bft) N 355 0 min 0,000 mm 0,0 UV-I 0 W/m 5,4 C 7,1 C 4,8 km/h (1 Bft) 97,87 %
02.11.2018 04:28 6,7 C 9,4 C 4,4 C 89 % 1018,9 hPa 0,0 l/m 4,6 km/h (1 Bft) N-NO 14 0 min 0,000 mm 0,0 UV-I 0 W/m 5,0 C 6,7 C 6,4 km/h (2 Bft) 94,44 %
02.11.2018 04:30 6,4 C 9,4 C 4,4 C 89 % 1019,0 hPa 0,0 l/m 6,3 km/h (2 Bft) NO 36 0 min 0,000 mm 0,0 UV-I 0 W/m 4,7 C 6,4 C 8,0 km/h (2 Bft) 97,96 %
02.11.2018 04:32 6,3 C 9,4 C 4,4 C 91 % 1019,0 hPa 0,0 l/m 5,8 km/h (2 Bft) NO 49 0 min 0,000 mm 0,0 UV-I 0 W/m 4,9 C 6,3 C 6,4 km/h (2 Bft) 97,87 %
02.11.2018 04:34 6,4 C 9,4 C 5,0 C 91 % 1019,0 hPa 0,0 l/m 4,7 km/h (1 Bft) NO 51 0 min 0,000 mm 0,0 UV-I 0 W/m 5,0 C 6,4 C 6,4 km/h (2 Bft) 96,00 %
02.11.2018 04:36 6,6 C 9,4 C 5,0 C 92 % 1018,9 hPa 0,0 l/m 4,4 km/h (1 Bft) NO 50 0 min 0,000 mm 0,0 UV-I 0 W/m 5,4 C 6,6 C 6,4 km/h (2 Bft) 95,74 %
02.11.2018 04:38 6,6 C 9,4 C 5,0 C 92 % 1019,0 hPa 0,0 l/m 4,8 km/h (1 Bft) NO 44 0 min 0,000 mm 0,0 UV-I 0 W/m 5,4 C 6,6 C 6,4 km/h (2 Bft) 97,87 %
02.11.2018 04:40 6,6 C 9,4 C 5,0 C 92 % 1019,0 hPa 0,0 l/m 5,0 km/h (1 Bft) NO 49 0 min 0,000 mm 0,0 UV-I 0 W/m 5,4 C 6,6 C 6,4 km/h (2 Bft) 97,87 %
02.11.2018 04:42 6,7 C 9,4 C 5,0 C 92 % 1019,0 hPa 0,0 l/m 4,0 km/h (1 Bft) NO 49 0 min 0,000 mm 0,0 UV-I 0 W/m 5,5 C 6,7 C 4,8 km/h (1 Bft) 95,74 %
02.11.2018 04:44 6,7 C 9,4 C 5,0 C 92 % 1019,1 hPa 0,0 l/m 3,5 km/h (1 Bft) NO 49 0 min 0,000 mm 0,0 UV-I 0 W/m 5,5 C 6,7 C 4,8 km/h (1 Bft) 97,87 %
02.11.2018 04:46 6,7 C 9,4 C 4,4 C 91 % 1019,1 hPa 0,0 l/m 1,5 km/h (1 Bft) NO 49 0 min 0,000 mm 0,0 UV-I 0 W/m 5,3 C 6,7 C 3,2 km/h (1 Bft) 95,74 %
02.11.2018 04:48 6,7 C 9,4 C 4,4 C 91 % 1019,1 hPa 0,0 l/m 2,4 km/h (1 Bft) NO 49 0 min 0,000 mm 0,0 UV-I 0 W/m 5,3 C 6,7 C 3,2 km/h (1 Bft) 96,00 %
02.11.2018 04:50 6,7 C 9,4 C 3,9 C 91 % 1019,0 hPa 0,0 l/m 2,4 km/h (1 Bft) NO 49 0 min 0,000 mm 0,0 UV-I 0 W/m 5,3 C 6,7 C 3,2 km/h (1 Bft) 97,37 %
02.11.2018 04:52 6,6 C 9,4 C 3,9 C 91 % 1019,0 hPa 0,0 l/m 3,5 km/h (1 Bft) NO 50 0 min 0,000 mm 0,0 UV-I 0 W/m 5,2 C 6,6 C 4,8 km/h (1 Bft) 91,49 %
02.11.2018 04:54 6,5 C 9,4 C 3,9 C 91 % 1019,0 hPa 0,0 l/m 3,3 km/h (1 Bft) NO 50 0 min 0,000 mm 0,0 UV-I 0 W/m 5,1 C 6,5 C 4,8 km/h (1 Bft) 97,87 %
02.11.2018 04:56 6,5 C 9,4 C 3,9 C 92 % 1019,1 hPa 0,0 l/m 1,7 km/h (1 Bft) NO 50 0 min 0,000 mm 0,0 UV-I 0 W/m 5,3 C 6,5 C 3,2 km/h (1 Bft) 97,87 %
02.11.2018 04:58 6,4 C 9,4 C 3,3 C 91 % 1019,1 hPa 0,0 l/m 0,6 km/h (0 Bft) NO 50 0 min 0,000 mm 0,0 UV-I 0 W/m 5,0 C 6,4 C 1,6 km/h (1 Bft) 97,87 %
02.11.2018 05:00 6,4 C 9,4 C 3,9 C 91 % 1019,1 hPa 0,0 l/m 1,2 km/h (1 Bft) NO 50 0 min 0,000 mm 0,0 UV-I 0 W/m 5,0 C 6,4 C 3,2 km/h (1 Bft) 97,87 %
02.11.2018 05:02 6,3 C 9,4 C 3,9 C 92 % 1019,1 hPa 0,0 l/m 3,2 km/h (1 Bft) O 96 0 min 0,000 mm 0,0 UV-I 0 W/m 5,1 C 6,3 C 4,8 km/h (1 Bft) 98,00 %
02.11.2018 05:04 6,4 C 9,4 C 3,9 C 92 % 1019,2 hPa 0,0 l/m 3,1 km/h (1 Bft) S 172 0 min 0,000 mm 0,0 UV-I 0 W/m 5,2 C 6,4 C 3,2 km/h (1 Bft) 97,87 %
02.11.2018 05:06 6,5 C 9,4 C 3,9 C 92 % 1019,2 hPa 0,0 l/m 2,5 km/h (1 Bft) S 172 0 min 0,000 mm 0,0 UV-I 0 W/m 5,3 C 6,5 C 3,2 km/h (1 Bft) 98,00 %
02.11.2018 05:08 6,4 C 9,4 C 3,3 C 92 % 1019,3 hPa 0,0 l/m 1,6 km/h (1 Bft) S 172 0 min 0,000 mm 0,0 UV-I 0 W/m 5,2 C 6,4 C 3,2 km/h (1 Bft) 95,83 %
02.11.2018 05:10 6,3 C 9,4 C 3,9 C 91 % 1019,2 hPa 0,0 l/m 1,9 km/h (1 Bft) S 172 0 min 0,000 mm 0,0 UV-I 0 W/m 4,9 C 6,3 C 3,2 km/h (1 Bft) 95,74 %
02.11.2018 05:12 6,2 C 9,4 C 3,9 C 92 % 1019,3 hPa 0,0 l/m 3,1 km/h (1 Bft) S 172 0 min 0,000 mm 0,0 UV-I 0 W/m 5,0 C 6,2 C 4,8 km/h (1 Bft) 93,62 %
02.11.2018 05:14 6,1 C 9,4 C 3,9 C 91 % 1019,3 hPa 0,0 l/m 2,3 km/h (1 Bft) S 172 0 min 0,000 mm 0,0 UV-I 0 W/m 4,7 C 6,1 C 3,2 km/h (1 Bft) 97,87 %
02.11.2018 05:16 5,9 C 9,4 C 3,3 C 91 % 1019,3 hPa 0,0 l/m 4,4 km/h (1 Bft) S 173 0 min 0,000 mm 0,0 UV-I 0 W/m 4,5 C 5,9 C 4,8 km/h (1 Bft) 100,00 %
02.11.2018 05:18 5,9 C 9,4 C 3,9 C 92 % 1019,4 hPa 0,0 l/m 4,7 km/h (1 Bft) S 176 0 min 0,000 mm 0,0 UV-I 0 W/m 4,7 C 5,9 C 4,8 km/h (1 Bft) 97,87 %
02.11.2018 05:20 5,9 C 9,4 C 3,9 C 92 % 1019,4 hPa 0,0 l/m 3,9 km/h (1 Bft) S 180 0 min 0,000 mm 0,0 UV-I 0 W/m 4,7 C 5,9 C 4,8 km/h (1 Bft) 100,00 %
02.11.2018 05:22 5,8 C 9,4 C 3,9 C 92 % 1019,4 hPa 0,0 l/m 3,7 km/h (1 Bft) S 180 0 min 0,000 mm 0,0 UV-I 0 W/m 4,6 C 5,8 C 4,8 km/h (1 Bft) 100,00 %
02.11.2018 05:24 5,8 C 9,4 C 3,9 C 92 % 1019,4 hPa 0,0 l/m 3,3 km/h (1 Bft) S 180 0 min 0,000 mm 0,0 UV-I 0 W/m 4,6 C 5,8 C 4,8 km/h (1 Bft) 97,87 %
02.11.2018 05:26 5,8 C 9,4 C 3,9 C 93 % 1019,5 hPa 0,0 l/m 4,0 km/h (1 Bft) SW 236 0 min 0,000 mm 0,0 UV-I 0 W/m 4,8 C 5,8 C 6,4 km/h (2 Bft) 98,00 %
02.11.2018 05:28 5,9 C 9,4 C 3,9 C 93 % 1019,5 hPa 0,0 l/m 6,1 km/h (2 Bft) SW 226 0 min 0,000 mm 0,0 UV-I 0 W/m 4,9 C 5,9 C 8,0 km/h (2 Bft) 97,87 %
02.11.2018 05:30 5,9 C 9,4 C 4,4 C 93 % 1019,4 hPa 0,0 l/m 6,3 km/h (2 Bft) SW 227 0 min 0,000 mm 0,0 UV-I 0 W/m 4,9 C 5,9 C 8,0 km/h (2 Bft) 98,00 %
02.11.2018 05:32 5,9 C 9,4 C 4,4 C 93 % 1019,4 hPa 0,0 l/m 7,0 km/h (2 Bft) SW 229 0 min 0,000 mm 0,0 UV-I 0 W/m 4,9 C 5,4 C 8,0 km/h (2 Bft) 95,74 %
02.11.2018 05:35 6,1 C 9,4 C 4,4 C 93 % 1019,4 hPa 0,0 l/m 7,0 km/h (2 Bft) SW 227 0 min 0,000 mm 0,0 UV-I 0 W/m 5,1 C 5,6 C 9,7 km/h (2 Bft) 97,18 %
02.11.2018 05:36 6,1 C 9,4 C 4,4 C 93 % 1019,4 hPa 0,0 l/m 6,7 km/h (2 Bft) SW 223 0 min 0,000 mm 0,0 UV-I 0 W/m 5,1 C 5,9 C 8,0 km/h (2 Bft) 100,00 %
02.11.2018 05:38 6,1 C 9,4 C 4,4 C 93 % 1019,5 hPa 0,0 l/m 6,3 km/h (2 Bft) S-SW 212 0 min 0,000 mm 0,0 UV-I 0 W/m 5,1 C 6,1 C 9,7 km/h (2 Bft) 94,29 %
02.11.2018 05:40 6,2 C 9,4 C 4,4 C 93 % 1019,4 hPa 0,0 l/m 5,4 km/h (1 Bft) SW 227 0 min 0,000 mm 0,0 UV-I 0 W/m 5,2 C 6,2 C 8,0 km/h (2 Bft) 96,08 %
02.11.2018 05:42 6,2 C 9,4 C 4,4 C 93 % 1019,5 hPa 0,0 l/m 3,4 km/h (1 Bft) SW 227 0 min 0,000 mm 0,0 UV-I 0 W/m 5,2 C 6,2 C 4,8 km/h (1 Bft) 98,08 %
02.11.2018 05:44 6,2 C 9,4 C 4,4 C 93 % 1019,6 hPa 0,0 l/m 3,1 km/h (1 Bft) SW 227 0 min 0,000 mm 0,0 UV-I 0 W/m 5,2 C 6,2 C 4,8 km/h (1 Bft) 95,74 %
02.11.2018 05:46 6,2 C 9,4 C 3,9 C 93 % 1019,6 hPa 0,0 l/m 2,1 km/h (1 Bft) SW 227 0 min 0,000 mm 0,0 UV-I 0 W/m 5,2 C 6,2 C 3,2 km/h (1 Bft) 95,74 %
02.11.2018 05:48 6,3 C 9,4 C 3,9 C 93 % 1019,6 hPa 0,0 l/m 1,6 km/h (1 Bft) W-NW 287 0 min 0,000 mm 0,0 UV-I 0 W/m 5,3 C 6,3 C 4,8 km/h (1 Bft) 97,92 %
02.11.2018 05:50 6,4 C 9,4 C 4,4 C 93 % 1019,6 hPa 0,0 l/m 2,1 km/h (1 Bft) W-NW 287 0 min 0,000 mm 0,0 UV-I 0 W/m 5,4 C 6,4 C 3,2 km/h (1 Bft) 97,87 %
02.11.2018 05:52 6,5 C 9,4 C 3,9 C 93 % 1019,7 hPa 0,0 l/m 2,0 km/h (1 Bft) W-NW 287 0 min 0,000 mm 0,0 UV-I 0 W/m 5,5 C 6,5 C 3,2 km/h (1 Bft) 97,96 %
02.11.2018 05:54 6,6 C 9,4 C 4,4 C 93 % 1019,6 hPa 0,0 l/m 1,5 km/h (1 Bft) W-NW 287 0 min 0,000 mm 0,0 UV-I 0 W/m 5,6 C 6,6 C 3,2 km/h (1 Bft) 95,74 %
02.11.2018 05:56 6,6 C 9,4 C 4,4 C 92 % 1019,6 hPa 0,0 l/m 1,6 km/h (1 Bft) W-NW 287 0 min 0,000 mm 0,0 UV-I 0 W/m 5,4 C 6,6 C 3,2 km/h (1 Bft) 97,87 %
02.11.2018 05:58 6,6 C 9,4 C 4,4 C 92 % 1019,6 hPa 0,0 l/m 1,6 km/h (1 Bft) W-NW 287 0 min 0,000 mm 0,0 UV-I 0 W/m 5,4 C 6,6 C 3,2 km/h (1 Bft) 97,87 %
02.11.2018 06:00 6,6 C 9,4 C 4,4 C 92 % 1019,6 hPa 0,0 l/m 1,5 km/h (1 Bft) W-NW 287 0 min 0,000 mm 0,0 UV-I 0 W/m 5,4 C 6,6 C 3,2 km/h (1 Bft) 94,74 %
02.11.2018 06:02 6,5 C 9,4 C 3,9 C 92 % 1019,6 hPa 0,0 l/m 0,2 km/h (0 Bft) W-NW 287 0 min 0,000 mm 0,0 UV-I 0 W/m 5,3 C 6,5 C 1,6 km/h (1 Bft) 96,00 %
02.11.2018 06:04 6,5 C 9,4 C 4,4 C 92 % 1019,7 hPa 0,0 l/m 1,3 km/h (1 Bft) W-NW 286 0 min 0,000 mm 0,0 UV-I 0 W/m 5,3 C 6,5 C 3,2 km/h (1 Bft) 95,74 %
02.11.2018 06:06 6,4 C 9,4 C 4,4 C 92 % 1019,7 hPa 0,0 l/m 2,6 km/h (1 Bft) W-NW 286 0 min 0,000 mm 0,0 UV-I 0 W/m 5,2 C 6,4 C 3,2 km/h (1 Bft) 91,49 %
02.11.2018 06:08 6,3 C 9,4 C 4,4 C 92 % 1019,7 hPa 0,0 l/m 0,7 km/h (0 Bft) W-NW 286 0 min 0,000 mm 0,0 UV-I 0 W/m 5,1 C 6,3 C 3,2 km/h (1 Bft) 97,87 %
02.11.2018 06:10 6,2 C 9,4 C 4,4 C 92 % 1019,6 hPa 0,0 l/m 0,7 km/h (0 Bft) W-NW 286 0 min 0,000 mm 0,0 UV-I 0 W/m 5,0 C 6,2 C 1,6 km/h (1 Bft) 95,74 %
02.11.2018 06:12 6,2 C 9,4 C 4,4 C 92 % 1019,7 hPa 0,0 l/m 2,5 km/h (1 Bft) W-NW 286 0 min 0,000 mm 0,0 UV-I 0 W/m 5,0 C 6,2 C 3,2 km/h (1 Bft) 94,00 %
02.11.2018 06:14 6,3 C 9,4 C 5,0 C 93 % 1019,6 hPa 0,0 l/m 2,9 km/h (1 Bft) W-NW 286 0 min 0,000 mm 0,0 UV-I 0 W/m 5,3 C 6,3 C 4,8 km/h (1 Bft) 95,74 %
02.11.2018 06:16 6,3 C 9,4 C 5,0 C 92 % 1019,6 hPa 0,0 l/m 4,4 km/h (1 Bft) W-NW 283 0 min 0,000 mm 0,0 UV-I 0 W/m 5,1 C 6,3 C 4,8 km/h (1 Bft) 93,62 %
02.11.2018 06:18 6,2 C 9,4 C 5,0 C 92 % 1019,6 hPa 0,0 l/m 4,4 km/h (1 Bft) SW 234 0 min 0,000 mm 0,0 UV-I 0 W/m 5,0 C 6,2 C 4,8 km/h (1 Bft) 95,74 %
02.11.2018 06:20 6,2 C 9,4 C 5,0 C 92 % 1019,7 hPa 0,0 l/m 3,2 km/h (1 Bft) SW 234 0 min 0,000 mm 0,0 UV-I 0 W/m 5,0 C 6,2 C 4,8 km/h (1 Bft) 95,74 %
02.11.2018 06:22 6,2 C 9,4 C 5,0 C 92 % 1019,7 hPa 0,0 l/m 2,3 km/h (1 Bft) SW 234 0 min 0,000 mm 0,0 UV-I 0 W/m 5,0 C 6,2 C 4,8 km/h (1 Bft) 95,74 %
02.11.2018 06:24 6,1 C 9,4 C 5,0 C 92 % 1019,7 hPa 0,0 l/m 1,6 km/h (1 Bft) SW 234 0 min 0,000 mm 0,0 UV-I 0 W/m 4,9 C 6,1 C 3,2 km/h (1 Bft) 97,92 %
02.11.2018 06:26 6,1 C 9,4 C 5,0 C 92 % 1019,7 hPa 0,0 l/m 2,5 km/h (1 Bft) SW 234 0 min 0,000 mm 0,0 UV-I 0 W/m 4,9 C 6,1 C 3,2 km/h (1 Bft) 95,74 %
02.11.2018 06:28 5,9 C 9,4 C 5,0 C 92 % 1019,7 hPa 0,0 l/m 1,8 km/h (1 Bft) SW 234 0 min 0,000 mm 0,0 UV-I 0 W/m 4,7 C 5,9 C 3,2 km/h (1 Bft) 97,87 %
02.11.2018 06:30 5,8 C 9,4 C 5,0 C 92 % 1019,7 hPa 0,0 l/m 1,8 km/h (1 Bft) SW 234 0 min 0,000 mm 0,0 UV-I 0 W/m 4,6 C 5,8 C 3,2 km/h (1 Bft) 97,87 %
02.11.2018 06:32 5,7 C 9,4 C 5,0 C 93 % 1019,7 hPa 0,0 l/m 0,6 km/h (0 Bft) SW 234 0 min 0,000 mm 0,0 UV-I 0 W/m 4,7 C 5,7 C 1,6 km/h (1 Bft) 95,74 %
02.11.2018 06:34 5,8 C 9,4 C 4,4 C 93 % 1019,7 hPa 0,0 l/m 1,3 km/h (1 Bft) SW 234 0 min 0,000 mm 0,0 UV-I 0 W/m 4,8 C 5,8 C 3,2 km/h (1 Bft) 97,14 %
02.11.2018 06:36 5,9 C 9,4 C 4,4 C 93 % 1019,8 hPa 0,0 l/m 1,7 km/h (1 Bft) SW 234 0 min 0,000 mm 0,0 UV-I 0 W/m 4,9 C 5,9 C 3,2 km/h (1 Bft) 97,87 %
02.11.2018 06:38 6,1 C 9,4 C 4,4 C 94 % 1019,9 hPa 0,0 l/m 1,6 km/h (1 Bft) SW 234 0 min 0,000 mm 0,0 UV-I 0 W/m 5,2 C 6,1 C 3,2 km/h (1 Bft) 97,87 %
02.11.2018 06:40 6,2 C 9,4 C 3,9 C 93 % 1019,9 hPa 0,0 l/m 1,1 km/h (1 Bft) SW 234 0 min 0,000 mm 0,0 UV-I 0 W/m 5,2 C 6,2 C 1,6 km/h (1 Bft) 94,00 %
02.11.2018 06:42 6,2 C 9,4 C 3,9 C 93 % 1019,9 hPa 0,0 l/m 0,2 km/h (0 Bft) SW 234 0 min 0,000 mm 0,0 UV-I 2 W/m 5,2 C 6,2 C 1,6 km/h (1 Bft) 97,87 %
02.11.2018 06:44 6,2 C 9,4 C 3,9 C 93 % 1019,9 hPa 0,0 l/m 0,2 km/h (0 Bft) SW 234 0 min 0,000 mm 0,0 UV-I 5 W/m 5,2 C 6,2 C 1,6 km/h (1 Bft) 98,00 %
02.11.2018 06:46 6,1 C 9,4 C 3,9 C 92 % 1020,1 hPa 0,0 l/m 0,1 km/h (0 Bft) SW 234 0 min 0,000 mm 0,0 UV-I 5 W/m 4,9 C 6,1 C 1,6 km/h (1 Bft) 95,74 %
02.11.2018 06:48 6,1 C 9,4 C 4,4 C 93 % 1020,1 hPa 0,0 l/m 1,7 km/h (1 Bft) SW 234 0 min 0,000 mm 0,0 UV-I 6 W/m 5,1 C 6,1 C 3,2 km/h (1 Bft) 98,00 %
02.11.2018 06:50 5,9 C 9,4 C 3,9 C 92 % 1020,1 hPa 0,0 l/m 1,8 km/h (1 Bft) SW 234 0 min 0,000 mm 0,0 UV-I 7 W/m 4,7 C 5,9 C 3,2 km/h (1 Bft) 97,14 %
02.11.2018 06:52 5,9 C 9,4 C 3,9 C 92 % 1020,1 hPa 0,0 l/m 0,3 km/h (0 Bft) SW 234 0 min 0,000 mm 0,0 UV-I 9 W/m 4,7 C 5,9 C 1,6 km/h (1 Bft) 96,08 %
02.11.2018 06:54 5,8 C 9,4 C 3,9 C 92 % 1020,1 hPa 0,0 l/m 0,7 km/h (0 Bft) SW 234 0 min 0,000 mm 0,0 UV-I 11 W/m 4,6 C 5,8 C 1,6 km/h (1 Bft) 97,87 %
02.11.2018 06:56 5,9 C 9,4 C 3,9 C 93 % 1020,2 hPa 0,0 l/m 0,7 km/h (0 Bft) SW 234 0 min 0,000 mm 0,0 UV-I 12 W/m 4,9 C 5,9 C 1,6 km/h (1 Bft) 93,62 %
02.11.2018 06:58 5,8 C 9,4 C 3,9 C 93 % 1020,3 hPa 0,0 l/m 1,5 km/h (1 Bft) SW 234 0 min 0,000 mm 0,0 UV-I 14 W/m 4,8 C 5,8 C 3,2 km/h (1 Bft) 95,74 %
02.11.2018 07:00 5,8 C 9,4 C 3,9 C 93 % 1020,4 hPa 0,0 l/m 1,9 km/h (1 Bft) SW 234 0 min 0,000 mm 0,0 UV-I 17 W/m 4,8 C 5,8 C 3,2 km/h (1 Bft) 97,92 %
02.11.2018 07:02 5,8 C 9,4 C 3,9 C 93 % 1020,3 hPa 0,0 l/m 0,3 km/h (0 Bft) SW 234 2 min 0,000 mm 0,0 UV-I 21 W/m 4,8 C 5,8 C 1,6 km/h (1 Bft) 98,00 %
02.11.2018 07:04 5,8 C 9,4 C 4,4 C 93 % 1020,2 hPa 0,0 l/m 1,4 km/h (1 Bft) SW 234 2 min 0,000 mm 0,0 UV-I 25 W/m 4,8 C 5,8 C 3,2 km/h (1 Bft) 97,87 %
02.11.2018 07:06 5,9 C 9,4 C 4,4 C 93 % 1020,2 hPa 0,0 l/m 2,9 km/h (1 Bft) NO 36 2 min 0,000 mm 0,0 UV-I 27 W/m 4,9 C 5,9 C 6,4 km/h (2 Bft) 97,87 %
02.11.2018 07:08 5,9 C 9,4 C 4,4 C 93 % 1020,2 hPa 0,0 l/m 4,2 km/h (1 Bft) NO 36 2 min 0,000 mm 0,0 UV-I 30 W/m 4,9 C 5,9 C 4,8 km/h (1 Bft) 98,00 %
02.11.2018 07:10 6,1 C 9,4 C 4,4 C 93 % 1020,1 hPa 0,0 l/m 3,7 km/h (1 Bft) NO 38 2 min 0,000 mm 0,0 UV-I 34 W/m 5,1 C 6,1 C 4,8 km/h (1 Bft) 97,87 %
02.11.2018 07:12 6,3 C 9,4 C 5,0 C 93 % 1020,1 hPa 0,0 l/m 4,3 km/h (1 Bft) NO 45 2 min 0,000 mm 0,0 UV-I 38 W/m 5,3 C 6,3 C 4,8 km/h (1 Bft) 97,87 %
02.11.2018 07:14 6,3 C 9,4 C 5,0 C 93 % 1020,1 hPa 0,0 l/m 3,0 km/h (1 Bft) NO 45 2 min 0,000 mm 0,0 UV-I 40 W/m 5,3 C 6,3 C 4,8 km/h (1 Bft) 97,87 %
02.11.2018 07:16 6,4 C 9,4 C 5,0 C 93 % 1020,1 hPa 0,0 l/m 3,7 km/h (1 Bft) NO 46 2 min 0,000 mm 0,0 UV-I 42 W/m 5,4 C 6,4 C 4,8 km/h (1 Bft) 97,37 %
02.11.2018 07:18 6,6 C 9,4 C 5,0 C 93 % 1020,1 hPa 0,0 l/m 4,2 km/h (1 Bft) O-NO 67 2 min 0,000 mm 0,0 UV-I 45 W/m 5,6 C 6,6 C 6,4 km/h (2 Bft) 100,00 %
02.11.2018 07:20 6,6 C 9,4 C 5,6 C 92 % 1020,2 hPa 0,0 l/m 2,6 km/h (1 Bft) O-NO 67 2 min 0,000 mm 0,0 UV-I 47 W/m 5,4 C 6,6 C 4,8 km/h (1 Bft) 100,00 %
02.11.2018 07:22 6,7 C 9,4 C 5,6 C 92 % 1020,2 hPa 0,0 l/m 1,3 km/h (1 Bft) O-NO 67 2 min 0,000 mm 0,0 UV-I 51 W/m 5,5 C 6,7 C 3,2 km/h (1 Bft) 100,00 %
02.11.2018 07:24 6,6 C 9,4 C 5,6 C 92 % 1020,3 hPa 0,0 l/m 2,1 km/h (1 Bft) O-NO 67 2 min 0,000 mm 0,0 UV-I 54 W/m 5,4 C 6,6 C 3,2 km/h (1 Bft) 97,87 %
02.11.2018 07:26 6,6 C 9,4 C 5,6 C 92 % 1020,3 hPa 0,0 l/m 1,8 km/h (1 Bft) O-NO 67 2 min 0,000 mm 0,0 UV-I 58 W/m 5,4 C 6,6 C 3,2 km/h (1 Bft) 100,00 %
02.11.2018 07:28 6,7 C 9,4 C 5,6 C 92 % 1020,2 hPa 0,0 l/m 0,1 km/h (0 Bft) O-NO 67 2 min 0,000 mm 0,0 UV-I 62 W/m 5,5 C 6,7 C 1,6 km/h (1 Bft) 95,74 %
02.11.2018 07:30 6,7 C 9,4 C 6,1 C 92 % 1020,2 hPa 0,0 l/m 1,1 km/h (1 Bft) O-NO 67 2 min 0,000 mm 0,0 UV-I 67 W/m 5,5 C 6,7 C 1,6 km/h (1 Bft) 97,37 %
02.11.2018 07:32 6,7 C 9,4 C 6,1 C 91 % 1020,3 hPa 0,0 l/m 1,0 km/h (0 Bft) O-NO 67 2 min 0,000 mm 0,0 UV-I 71 W/m 5,3 C 6,7 C 1,6 km/h (1 Bft) 95,74 %
02.11.2018 07:34 6,7 C 9,4 C 6,1 C 91 % 1020,3 hPa 0,0 l/m 1,6 km/h (1 Bft) O-NO 67 2 min 0,000 mm 0,0 UV-I 85 W/m 5,3 C 6,7 C 3,2 km/h (1 Bft) 98,00 %
02.11.2018 07:36 6,6 C 9,4 C 6,1 C 91 % 1020,2 hPa 0,0 l/m 0,0 km/h (0 Bft) O-NO 67 2 min 0,000 mm 0,0 UV-I 105 W/m 5,2 C 6,6 C 1,6 km/h (1 Bft) 97,92 %
02.11.2018 07:38 6,7 C 9,4 C 6,1 C 91 % 1020,1 hPa 0,0 l/m 0,1 km/h (0 Bft) O-NO 67 2 min 0,000 mm 0,0 UV-I 114 W/m 5,3 C 6,7 C 1,6 km/h (1 Bft) 94,00 %
02.11.2018 07:40 6,7 C 9,4 C 6,7 C 92 % 1020,1 hPa 0,0 l/m 0,9 km/h (0 Bft) O-NO 67 2 min 0,000 mm 0,0 UV-I 120 W/m 5,5 C 6,7 C 1,6 km/h (1 Bft) 97,87 %
02.11.2018 07:42 6,7 C 9,4 C 6,7 C 92 % 1020,2 hPa 0,0 l/m 1,6 km/h (1 Bft) O-NO 67 2 min 0,000 mm 0,0 UV-I 117 W/m 5,5 C 6,7 C 3,2 km/h (1 Bft) 95,74 %
02.11.2018 07:44 6,8 C 9,4 C 6,7 C 92 % 1020,2 hPa 0,0 l/m 1,6 km/h (1 Bft) O-NO 67 2 min 0,000 mm 0,0 UV-I 120 W/m 5,6 C 6,8 C 3,2 km/h (1 Bft) 97,87 %
02.11.2018 07:46 6,9 C 9,4 C 7,2 C 92 % 1020,2 hPa 0,0 l/m 1,9 km/h (1 Bft) O-NO 67 2 min 0,000 mm 0,0 UV-I 120 W/m 5,7 C 6,9 C 3,2 km/h (1 Bft) 97,87 %
02.11.2018 07:48 6,9 C 9,4 C 7,2 C 92 % 1020,2 hPa 0,0 l/m 1,9 km/h (1 Bft) O-NO 67 2 min 0,000 mm 0,0 UV-I 130 W/m 5,7 C 6,9 C 3,2 km/h (1 Bft) 93,62 %
02.11.2018 07:50 7,1 C 9,4 C 7,8 C 92 % 1020,2 hPa 0,0 l/m 1,1 km/h (1 Bft) O-NO 67 2 min 0,000 mm 0,0 UV-I 143 W/m 5,9 C 7,1 C 1,6 km/h (1 Bft) 97,87 %
02.11.2018 07:52 7,3 C 9,4 C 7,8 C 91 % 1020,2 hPa 0,0 l/m 1,2 km/h (1 Bft) O-NO 67 2 min 0,000 mm 0,0 UV-I 135 W/m 5,9 C 7,3 C 3,2 km/h (1 Bft) 100,00 %
02.11.2018 07:54 7,3 C 9,4 C 7,8 C 91 % 1020,3 hPa 0,0 l/m 1,6 km/h (1 Bft) O-NO 67 2 min 0,000 mm 0,0 UV-I 136 W/m 5,9 C 7,3 C 3,2 km/h (1 Bft) 100,00 %
02.11.2018 07:56 7,3 C 9,4 C 8,3 C 90 % 1020,3 hPa 0,0 l/m 1,7 km/h (1 Bft) O-NO 67 2 min 0,000 mm 0,0 UV-I 141 W/m 5,8 C 7,3 C 3,2 km/h (1 Bft) 100,00 %
02.11.2018 07:58 7,3 C 9,4 C 8,3 C 90 % 1020,3 hPa 0,0 l/m 2,4 km/h (1 Bft) O-NO 67 2 min 0,000 mm 0,0 UV-I 102 W/m 5,8 C 7,3 C 3,2 km/h (1 Bft) 97,87 %
02.11.2018 08:00 7,4 C 9,4 C 8,3 C 90 % 1020,4 hPa 0,0 l/m 2,9 km/h (1 Bft) S-SO 167 0 min 0,025 mm 0,0 UV-I 90 W/m 5,9 C 7,4 C 4,8 km/h (1 Bft) 100,00 %
02.11.2018 08:02 7,4 C 9,4 C 8,3 C 90 % 1020,4 hPa 0,0 l/m 4,3 km/h (1 Bft) S 177 0 min 0,000 mm 0,0 UV-I 85 W/m 5,9 C 7,4 C 6,4 km/h (2 Bft) 100,00 %
02.11.2018 08:04 7,4 C 9,4 C 8,3 C 90 % 1020,5 hPa 0,0 l/m 3,7 km/h (1 Bft) S 178 0 min 0,000 mm 0,0 UV-I 78 W/m 5,9 C 7,4 C 4,8 km/h (1 Bft) 100,00 %
02.11.2018 08:06 7,4 C 9,4 C 8,3 C 90 % 1020,5 hPa 0,0 l/m 3,2 km/h (1 Bft) S 187 0 min 0,000 mm 0,0 UV-I 71 W/m 5,9 C 7,4 C 4,8 km/h (1 Bft) 97,87 %
02.11.2018 08:08 7,4 C 9,4 C 8,3 C 90 % 1020,5 hPa 0,0 l/m 4,1 km/h (1 Bft) S 190 0 min 0,000 mm 0,0 UV-I 68 W/m 5,9 C 7,4 C 6,4 km/h (2 Bft) 100,00 %
02.11.2018 08:10 7,4 C 9,4 C 8,3 C 90 % 1020,5 hPa 0,0 l/m 4,1 km/h (1 Bft) S 190 0 min 0,000 mm 0,0 UV-I 66 W/m 5,9 C 7,4 C 4,8 km/h (1 Bft) 100,00 %
02.11.2018 08:12 7,5 C 9,4 C 8,3 C 90 % 1020,5 hPa 0,0 l/m 3,0 km/h (1 Bft) S 190 0 min 0,000 mm 0,0 UV-I 65 W/m 6,0 C 7,5 C 4,8 km/h (1 Bft) 100,00 %
02.11.2018 08:14 7,5 C 9,4 C 8,3 C 90 % 1020,5 hPa 0,0 l/m 3,0 km/h (1 Bft) S 190 0 min 0,000 mm 0,0 UV-I 63 W/m 6,0 C 7,5 C 4,8 km/h (1 Bft) 100,00 %
02.11.2018 08:16 7,6 C 9,4 C 8,3 C 89 % 1020,6 hPa 0,0 l/m 4,3 km/h (1 Bft) S-SW 196 0 min 0,000 mm 0,0 UV-I 61 W/m 5,9 C 7,6 C 6,4 km/h (2 Bft) 97,92 %
02.11.2018 08:18 7,6 C 9,4 C 8,3 C 89 % 1020,6 hPa 0,0 l/m 4,3 km/h (1 Bft) S-SW 198 0 min 0,000 mm 0,0 UV-I 58 W/m 5,9 C 7,6 C 6,4 km/h (2 Bft) 100,00 %
02.11.2018 08:20 7,6 C 9,4 C 8,3 C 89 % 1020,6 hPa 0,0 l/m 3,8 km/h (1 Bft) S-SW 198 0 min 0,000 mm 0,0 UV-I 54 W/m 5,9 C 7,6 C 4,8 km/h (1 Bft) 100,00 %
02.11.2018 08:22 7,6 C 9,4 C 8,3 C 89 % 1020,6 hPa 0,0 l/m 3,4 km/h (1 Bft) S-SW 198 0 min 0,000 mm 0,0 UV-I 52 W/m 5,9 C 7,6 C 4,8 km/h (1 Bft) 100,00 %
02.11.2018 08:24 7,6 C 9,4 C 8,3 C 89 % 1020,6 hPa 0,0 l/m 3,1 km/h (1 Bft) S-SW 198 0 min 0,000 mm 0,0 UV-I 48 W/m 5,9 C 7,6 C 4,8 km/h (1 Bft) 100,00 %
02.11.2018 08:26 7,6 C 9,4 C 7,8 C 89 % 1020,6 hPa 0,0 l/m 3,8 km/h (1 Bft) S-SW 197 0 min 0,000 mm 0,0 UV-I 47 W/m 5,9 C 7,6 C 4,8 km/h (1 Bft) 97,37 %
02.11.2018 08:28 7,6 C 9,4 C 7,8 C 89 % 1020,7 hPa 0,0 l/m 3,0 km/h (1 Bft) S-SW 197 0 min 0,000 mm 0,0 UV-I 46 W/m 5,9 C 7,6 C 4,8 km/h (1 Bft) 100,00 %
02.11.2018 08:30 7,7 C 9,4 C 7,8 C 89 % 1020,7 hPa 0,0 l/m 3,3 km/h (1 Bft) S-SW 197 0 min 0,000 mm 0,0 UV-I 44 W/m 6,0 C 7,7 C 4,8 km/h (1 Bft) 98,00 %
02.11.2018 08:32 7,6 C 9,4 C 7,8 C 89 % 1020,8 hPa 0,0 l/m 2,4 km/h (1 Bft) S-SW 197 0 min 0,000 mm 0,0 UV-I 46 W/m 5,9 C 7,6 C 4,8 km/h (1 Bft) 100,00 %
02.11.2018 08:34 7,6 C 9,4 C 7,8 C 89 % 1020,7 hPa 0,0 l/m 1,5 km/h (1 Bft) S-SW 197 0 min 0,000 mm 0,0 UV-I 47 W/m 5,9 C 7,6 C 3,2 km/h (1 Bft) 100,00 %
02.11.2018 08:36 7,6 C 9,4 C 7,8 C 89 % 1020,7 hPa 0,0 l/m 1,8 km/h (1 Bft) S-SW 197 0 min 0,000 mm 0,0 UV-I 48 W/m 5,9 C 7,6 C 3,2 km/h (1 Bft) 100,00 %
02.11.2018 08:38 7,6 C 9,4 C 7,8 C 89 % 1020,7 hPa 0,0 l/m 1,2 km/h (1 Bft) S-SW 197 0 min 0,000 mm 0,0 UV-I 50 W/m 5,9 C 7,6 C 3,2 km/h (1 Bft) 97,87 %
02.11.2018 08:40 7,7 C 9,4 C 8,3 C 89 % 1020,7 hPa 0,0 l/m 0,8 km/h (0 Bft) S-SW 197 0 min 0,000 mm 0,0 UV-I 51 W/m 6,0 C 7,7 C 1,6 km/h (1 Bft) 97,87 %
02.11.2018 08:42 7,7 C 9,4 C 8,3 C 89 % 1020,6 hPa 0,0 l/m 0,0 km/h (0 Bft) S-SW 197 0 min 0,000 mm 0,0 UV-I 52 W/m 6,0 C 7,7 C 0,0 km/h (0 Bft) 97,87 %
02.11.2018 08:44 7,7 C 9,4 C 8,3 C 89 % 1020,6 hPa 0,0 l/m 0,0 km/h (0 Bft) S-SW 197 0 min 0,000 mm 0,0 UV-I 53 W/m 6,0 C 7,7 C 0,0 km/h (0 Bft) 97,87 %
02.11.2018 08:46 7,7 C 9,4 C 8,3 C 89 % 1020,6 hPa 0,0 l/m 0,0 km/h (0 Bft) S-SW 197 0 min 0,000 mm 0,0 UV-I 54 W/m 6,0 C 7,7 C 0,0 km/h (0 Bft) 95,74 %
02.11.2018 08:48 7,7 C 9,4 C 8,3 C 89 % 1020,6 hPa 0,0 l/m 0,0 km/h (0 Bft) S-SW 197 0 min 0,000 mm 0,0 UV-I 56 W/m 6,0 C 7,7 C 0,0 km/h (0 Bft) 95,74 %
02.11.2018 08:50 7,8 C 9,4 C 8,3 C 89 % 1020,6 hPa 0,0 l/m 0,6 km/h (0 Bft) S-SW 197 0 min 0,000 mm 0,0 UV-I 59 W/m 6,1 C 7,8 C 1,6 km/h (1 Bft) 92,00 %
02.11.2018 08:52 7,7 C 9,4 C 8,3 C 89 % 1020,7 hPa 0,0 l/m 2,0 km/h (1 Bft) S-SW 197 0 min 0,000 mm 0,0 UV-I 62 W/m 6,0 C 7,7 C 3,2 km/h (1 Bft) 95,74 %
02.11.2018 08:54 7,7 C 9,4 C 8,3 C 89 % 1020,7 hPa 0,0 l/m 1,4 km/h (1 Bft) S-SW 197 0 min 0,000 mm 0,0 UV-I 64 W/m 6,0 C 7,7 C 3,2 km/h (1 Bft) 89,36 %
02.11.2018 08:56 7,8 C 9,4 C 8,3 C 89 % 1020,7 hPa 0,0 l/m 0,2 km/h (0 Bft) S-SW 197 0 min 0,000 mm 0,0 UV-I 65 W/m 6,1 C 7,8 C 1,6 km/h (1 Bft) 95,83 %
02.11.2018 08:58 7,8 C 9,4 C 8,9 C 89 % 1020,8 hPa 0,0 l/m 0,8 km/h (0 Bft) S-SW 197 0 min 0,000 mm 0,0 UV-I 67 W/m 6,1 C 7,8 C 1,6 km/h (1 Bft) 94,74 %
02.11.2018 09:00 7,7 C 9,4 C 8,9 C 89 % 1020,8 hPa 0,0 l/m 1,2 km/h (1 Bft) S-SW 197 0 min 0,026 mm 0,0 UV-I 70 W/m 6,0 C 7,7 C 1,6 km/h (1 Bft) 93,62 %
02.11.2018 09:02 7,8 C 9,4 C 8,9 C 89 % 1020,9 hPa 0,0 l/m 1,2 km/h (1 Bft) S-SW 197 0 min 0,000 mm 0,0 UV-I 70 W/m 6,1 C 7,8 C 1,6 km/h (1 Bft) 95,74 %
02.11.2018 09:04 7,8 C 9,4 C 8,9 C 89 % 1020,9 hPa 0,0 l/m 2,3 km/h (1 Bft) S-SW 197 0 min 0,000 mm 0,0 UV-I 69 W/m 6,1 C 7,8 C 4,8 km/h (1 Bft) 95,74 %
02.11.2018 09:06 7,8 C 9,4 C 8,9 C 89 % 1020,9 hPa 0,0 l/m 1,9 km/h (1 Bft) S-SW 197 0 min 0,000 mm 0,0 UV-I 67 W/m 6,1 C 7,8 C 3,2 km/h (1 Bft) 92,00 %
02.11.2018 09:08 7,8 C 9,4 C 8,9 C 89 % 1020,9 hPa 0,0 l/m 2,0 km/h (1 Bft) S-SW 197 0 min 0,000 mm 0,0 UV-I 67 W/m 6,1 C 7,8 C 3,2 km/h (1 Bft) 93,62 %
02.11.2018 09:10 7,8 C 9,4 C 8,9 C 89 % 1020,9 hPa 0,0 l/m 1,2 km/h (1 Bft) S-SW 197 0 min 0,000 mm 0,0 UV-I 67 W/m 6,1 C 7,8 C 1,6 km/h (1 Bft) 97,87 %
02.11.2018 09:12 7,8 C 9,4 C 8,9 C 89 % 1020,7 hPa 0,0 l/m 2,1 km/h (1 Bft) S-SW 197 0 min 0,000 mm 0,0 UV-I 64 W/m 6,1 C 7,8 C 3,2 km/h (1 Bft) 97,87 %
02.11.2018 09:14 7,9 C 9,4 C 8,9 C 89 % 1020,7 hPa 0,0 l/m 1,7 km/h (1 Bft) S-SW 197 0 min 0,000 mm 0,0 UV-I 63 W/m 6,2 C 7,9 C 3,2 km/h (1 Bft) 95,74 %
02.11.2018 09:16 7,9 C 9,4 C 8,9 C 89 % 1020,7 hPa 0,0 l/m 0,6 km/h (0 Bft) S-SW 197 0 min 0,000 mm 0,0 UV-I 62 W/m 6,2 C 7,9 C 1,6 km/h (1 Bft) 97,87 %
02.11.2018 09:18 7,9 C 9,4 C 8,9 C 88 % 1020,7 hPa 0,0 l/m 1,1 km/h (1 Bft) S-SW 197 0 min 0,000 mm 0,0 UV-I 62 W/m 6,0 C 7,9 C 3,2 km/h (1 Bft) 100,00 %
02.11.2018 09:20 7,9 C 9,4 C 8,9 C 88 % 1020,6 hPa 0,0 l/m 2,0 km/h (1 Bft) S-SW 197 0 min 0,000 mm 0,0 UV-I 63 W/m 6,0 C 7,9 C 3,2 km/h (1 Bft) 97,87 %
02.11.2018 09:22 7,9 C 9,4 C 8,9 C 88 % 1020,6 hPa 0,0 l/m 1,6 km/h (1 Bft) S-SW 197 0 min 0,000 mm 0,0 UV-I 68 W/m 6,0 C 7,9 C 3,2 km/h (1 Bft) 100,00 %
02.11.2018 09:25 7,9 C 9,4 C 8,9 C 88 % 1020,6 hPa 0,0 l/m 1,1 km/h (1 Bft) S-SW 197 0 min 0,000 mm 0,0 UV-I 73 W/m 6,0 C 7,9 C 1,6 km/h (1 Bft) 97,30 %
02.11.2018 09:26 7,9 C 9,4 C 8,9 C 88 % 1020,6 hPa 0,0 l/m 0,1 km/h (0 Bft) S-SW 197 0 min 0,000 mm 0,0 UV-I 76 W/m 6,0 C 7,9 C 1,6 km/h (1 Bft) 95,65 %
02.11.2018 09:28 8,0 C 9,4 C 8,9 C 88 % 1020,7 hPa 0,0 l/m 0,7 km/h (0 Bft) S-SW 197 0 min 0,000 mm 0,0 UV-I 77 W/m 6,1 C 8,0 C 1,6 km/h (1 Bft) 95,74 %
02.11.2018 09:30 8,0 C 9,4 C 9,4 C 88 % 1020,6 hPa 0,0 l/m 0,7 km/h (0 Bft) S-SW 197 0 min 0,000 mm 0,0 UV-I 78 W/m 6,1 C 8,0 C 1,6 km/h (1 Bft) 93,62 %
02.11.2018 09:32 8,0 C 9,4 C 9,4 C 88 % 1020,6 hPa 0,0 l/m 0,4 km/h (0 Bft) S-SW 197 0 min 0,000 mm 0,0 UV-I 80 W/m 6,1 C 8,0 C 1,6 km/h (1 Bft) 97,22 %
02.11.2018 09:34 8,1 C 9,4 C 9,4 C 89 % 1020,7 hPa 0,0 l/m 0,2 km/h (0 Bft) S-SW 197 0 min 0,000 mm 0,0 UV-I 87 W/m 6,4 C 8,1 C 1,6 km/h (1 Bft) 98,00 %
02.11.2018 09:36 8,1 C 9,4 C 9,4 C 89 % 1020,6 hPa 0,0 l/m 0,7 km/h (0 Bft) S-SW 197 0 min 0,000 mm 0,0 UV-I 97 W/m 6,4 C 8,1 C 1,6 km/h (1 Bft) 98,00 %
02.11.2018 09:38 8,2 C 9,4 C 10,0 C 89 % 1020,6 hPa 0,0 l/m 0,1 km/h (0 Bft) S-SW 197 0 min 0,000 mm 0,0 UV-I 110 W/m 6,5 C 8,2 C 1,6 km/h (1 Bft) 97,87 %
02.11.2018 09:40 8,2 C 9,4 C 10,0 C 88 % 1020,5 hPa 0,0 l/m 0,0 km/h (0 Bft) S-SW 197 0 min 0,000 mm 0,0 UV-I 125 W/m 6,3 C 8,2 C 0,0 km/h (0 Bft) 91,49 %
02.11.2018 09:42 8,3 C 9,4 C 10,6 C 88 % 1020,6 hPa 0,0 l/m 0,0 km/h (0 Bft) S-SW 197 0 min 0,000 mm 0,0 UV-I 140 W/m 6,4 C 8,3 C 0,0 km/h (0 Bft) 97,87 %
02.11.2018 09:44 8,3 C 9,4 C 10,6 C 88 % 1020,6 hPa 0,0 l/m 0,0 km/h (0 Bft) S-SW 197 0 min 0,000 mm 0,0 UV-I 156 W/m 6,4 C 8,3 C 0,0 km/h (0 Bft) 98,00 %
02.11.2018 09:46 8,3 C 9,4 C 11,1 C 88 % 1020,5 hPa 0,0 l/m 0,1 km/h (0 Bft) S-SW 197 0 min 0,000 mm 0,0 UV-I 166 W/m 6,4 C 8,3 C 1,6 km/h (1 Bft) 91,49 %
02.11.2018 09:48 8,4 C 9,4 C 11,1 C 88 % 1020,5 hPa 0,0 l/m 0,9 km/h (0 Bft) S-SW 197 0 min 0,000 mm 0,1 UV-I 171 W/m 6,5 C 8,4 C 1,6 km/h (1 Bft) 97,87 %
02.11.2018 09:50 8,6 C 9,4 C 11,7 C 88 % 1020,5 hPa 0,0 l/m 0,9 km/h (0 Bft) S-SW 197 0 min 0,000 mm 0,5 UV-I 177 W/m 6,7 C 8,6 C 1,6 km/h (1 Bft) 97,87 %
02.11.2018 09:52 8,6 C 9,4 C 11,7 C 87 % 1020,6 hPa 0,0 l/m 1,0 km/h (0 Bft) S-SW 197 0 min 0,000 mm 0,5 UV-I 183 W/m 6,6 C 8,6 C 1,6 km/h (1 Bft) 97,87 %
02.11.2018 09:54 8,7 C 9,4 C 12,2 C 86 % 1020,7 hPa 0,0 l/m 1,3 km/h (1 Bft) S-SW 197 0 min 0,000 mm 0,5 UV-I 195 W/m 6,5 C 8,7 C 3,2 km/h (1 Bft) 95,74 %
02.11.2018 09:56 8,7 C 9,4 C 12,2 C 86 % 1020,7 hPa 0,0 l/m 1,8 km/h (1 Bft) S-SW 197 2 min 0,000 mm 0,5 UV-I 227 W/m 6,5 C 8,7 C 3,2 km/h (1 Bft) 97,87 %
02.11.2018 09:58 8,8 C 9,4 C 12,2 C 86 % 1020,8 hPa 0,0 l/m 1,8 km/h (1 Bft) S-SW 197 0 min 0,000 mm 0,5 UV-I 213 W/m 6,6 C 8,8 C 3,2 km/h (1 Bft) 97,14 %
02.11.2018 10:00 8,8 C 9,4 C 12,2 C 86 % 1020,8 hPa 0,0 l/m 1,4 km/h (1 Bft) S-SW 197 2 min 0,050 mm 0,6 UV-I 238 W/m 6,6 C 8,8 C 3,2 km/h (1 Bft) 98,00 %
02.11.2018 10:02 8,9 C 9,4 C 12,8 C 86 % 1020,8 hPa 0,0 l/m 1,5 km/h (1 Bft) W 259 0 min 0,000 mm 0,6 UV-I 211 W/m 6,7 C 8,9 C 4,8 km/h (1 Bft) 97,87 %
02.11.2018 10:04 8,9 C 9,4 C 12,8 C 86 % 1020,7 hPa 0,0 l/m 3,1 km/h (1 Bft) W 259 2 min 0,000 mm 0,6 UV-I 240 W/m 6,7 C 8,9 C 4,8 km/h (1 Bft) 93,75 %
02.11.2018 10:06 8,9 C 9,4 C 12,8 C 85 % 1020,8 hPa 0,0 l/m 2,5 km/h (1 Bft) W 259 2 min 0,000 mm 0,6 UV-I 229 W/m 6,5 C 8,9 C 4,8 km/h (1 Bft) 95,74 %
02.11.2018 10:08 8,9 C 9,4 C 12,8 C 86 % 1020,8 hPa 0,0 l/m 3,6 km/h (1 Bft) S-SW 205 2 min 0,000 mm 0,6 UV-I 243 W/m 6,7 C 8,9 C 6,4 km/h (2 Bft) 93,62 %
02.11.2018 10:10 9,0 C 9,4 C 12,8 C 86 % 1020,8 hPa 0,0 l/m 4,4 km/h (1 Bft) W-SW 240 2 min 0,000 mm 0,6 UV-I 225 W/m 6,8 C 9,0 C 6,4 km/h (2 Bft) 95,74 %
02.11.2018 10:12 9,2 C 9,4 C 13,3 C 86 % 1020,8 hPa 0,0 l/m 4,3 km/h (1 Bft) W 264 0 min 0,000 mm 0,6 UV-I 221 W/m 7,0 C 9,2 C 6,4 km/h (2 Bft) 95,74 %
02.11.2018 10:14 9,2 C 9,4 C 13,3 C 85 % 1020,8 hPa 0,0 l/m 4,6 km/h (1 Bft) W-SW 246 0 min 0,000 mm 0,6 UV-I 213 W/m 6,8 C 9,2 C 6,4 km/h (2 Bft) 89,36 %
02.11.2018 10:16 9,2 C 9,4 C 13,3 C 85 % 1020,8 hPa 0,0 l/m 4,6 km/h (1 Bft) W 265 0 min 0,000 mm 0,6 UV-I 213 W/m 6,8 C 9,2 C 6,4 km/h (2 Bft) 93,62 %
02.11.2018 10:18 9,2 C 9,4 C 13,3 C 85 % 1020,7 hPa 0,0 l/m 5,0 km/h (1 Bft) W-SW 256 0 min 0,000 mm 0,6 UV-I 218 W/m 6,8 C 9,2 C 6,4 km/h (2 Bft) 94,00 %
02.11.2018 10:20 9,2 C 9,4 C 12,8 C 84 % 1020,8 hPa 0,0 l/m 4,5 km/h (1 Bft) W-SW 243 0 min 0,000 mm 0,6 UV-I 225 W/m 6,6 C 9,2 C 6,4 km/h (2 Bft) 95,74 %
02.11.2018 10:22 9,3 C 9,4 C 12,8 C 85 % 1020,8 hPa 0,0 l/m 4,4 km/h (1 Bft) SW 227 2 min 0,000 mm 0,6 UV-I 243 W/m 6,9 C 9,3 C 8,0 km/h (2 Bft) 95,74 %
02.11.2018 10:24 9,4 C 9,4 C 13,3 C 85 % 1020,8 hPa 0,0 l/m 3,7 km/h (1 Bft) SW 230 2 min 0,000 mm 0,6 UV-I 264 W/m 7,0 C 9,4 C 4,8 km/h (1 Bft) 93,62 %
02.11.2018 10:26 9,5 C 9,4 C 13,9 C 85 % 1020,9 hPa 0,0 l/m 3,3 km/h (1 Bft) W-SW 250 2 min 0,000 mm 0,6 UV-I 270 W/m 7,1 C 9,5 C 6,4 km/h (2 Bft) 95,74 %
02.11.2018 10:28 9,6 C 9,4 C 13,9 C 85 % 1020,8 hPa 0,0 l/m 4,1 km/h (1 Bft) SW 236 2 min 0,000 mm 0,7 UV-I 323 W/m 7,2 C 9,6 C 6,4 km/h (2 Bft) 95,74 %
02.11.2018 10:30 9,8 C 9,4 C 15,0 C 85 % 1020,8 hPa 0,0 l/m 6,0 km/h (2 Bft) SW 234 2 min 0,000 mm 0,7 UV-I 319 W/m 7,4 C 9,8 C 9,7 km/h (2 Bft) 97,87 %
02.11.2018 10:32 9,8 C 9,4 C 15,0 C 84 % 1020,8 hPa 0,0 l/m 3,8 km/h (1 Bft) SW 234 2 min 0,000 mm 0,8 UV-I 366 W/m 7,2 C 9,8 C 6,4 km/h (2 Bft) 97,87 %
02.11.2018 10:34 9,9 C 9,4 C 15,6 C 84 % 1020,8 hPa 0,0 l/m 5,5 km/h (1 Bft) W-SW 244 2 min 0,000 mm 0,8 UV-I 391 W/m 7,3 C 9,9 C 8,0 km/h (2 Bft) 97,37 %
02.11.2018 10:36 9,9 C 9,4 C 15,6 C 83 % 1020,7 hPa 0,0 l/m 5,2 km/h (1 Bft) SW 229 2 min 0,000 mm 0,8 UV-I 391 W/m 7,2 C 9,9 C 6,4 km/h (2 Bft) 97,87 %
02.11.2018 10:38 9,9 C 9,4 C 15,6 C 83 % 1020,7 hPa 0,0 l/m 4,0 km/h (1 Bft) W-SW 238 2 min 0,000 mm 0,8 UV-I 372 W/m 7,2 C 9,9 C 4,8 km/h (1 Bft) 94,00 %
02.11.2018 10:40 10,1 C 9,4 C 16,1 C 83 % 1020,8 hPa 0,0 l/m 4,1 km/h (1 Bft) S-SW 205 2 min 0,000 mm 0,8 UV-I 393 W/m 7,3 C 10,1 C 6,4 km/h (2 Bft) 94,00 %
02.11.2018 10:42 10,1 C 9,4 C 16,1 C 83 % 1020,7 hPa 0,0 l/m 3,9 km/h (1 Bft) S-SW 207 2 min 0,000 mm 0,8 UV-I 369 W/m 7,3 C 10,1 C 6,4 km/h (2 Bft) 95,74 %
02.11.2018 10:44 10,2 C 9,4 C 16,1 C 83 % 1020,7 hPa 0,0 l/m 2,2 km/h (1 Bft) S-SW 207 2 min 0,000 mm 0,9 UV-I 383 W/m 7,4 C 10,2 C 4,8 km/h (1 Bft) 93,75 %
02.11.2018 10:46 10,3 C 9,4 C 16,1 C 83 % 1020,8 hPa 0,0 l/m 3,8 km/h (1 Bft) W-SW 257 2 min 0,000 mm 0,8 UV-I 334 W/m 7,5 C 10,3 C 4,8 km/h (1 Bft) 89,36 %
02.11.2018 10:48 10,5 C 9,4 C 16,1 C 82 % 1020,7 hPa 0,0 l/m 3,3 km/h (1 Bft) W-NW 293 2 min 0,000 mm 0,8 UV-I 344 W/m 7,6 C 10,5 C 4,8 km/h (1 Bft) 94,00 %
02.11.2018 10:50 10,5 C 9,4 C 16,1 C 80 % 1020,7 hPa 0,0 l/m 2,0 km/h (1 Bft) W-SW 248 2 min 0,000 mm 0,8 UV-I 299 W/m 7,2 C 10,5 C 4,8 km/h (1 Bft) 95,74 %
02.11.2018 10:52 10,4 C 9,4 C 15,6 C 80 % 1020,8 hPa 0,0 l/m 1,0 km/h (0 Bft) W-SW 248 2 min 0,000 mm 0,8 UV-I 301 W/m 7,1 C 10,4 C 1,6 km/h (1 Bft) 91,43 %
02.11.2018 10:54 10,4 C 9,4 C 16,1 C 81 % 1020,8 hPa 0,0 l/m 1,3 km/h (1 Bft) W-SW 248 2 min 0,000 mm 0,8 UV-I 276 W/m 7,3 C 10,4 C 3,2 km/h (1 Bft) 94,00 %
02.11.2018 10:56 10,4 C 9,4 C 16,1 C 81 % 1020,8 hPa 0,0 l/m 0,6 km/h (0 Bft) W-SW 248 2 min 0,000 mm 0,8 UV-I 272 W/m 7,3 C 10,4 C 1,6 km/h (1 Bft) 95,74 %
02.11.2018 10:58 10,4 C 9,4 C 16,1 C 82 % 1020,7 hPa 0,0 l/m 0,8 km/h (0 Bft) W-SW 248 2 min 0,000 mm 0,8 UV-I 291 W/m 7,5 C 10,4 C 3,2 km/h (1 Bft) 93,62 %
02.11.2018 11:00 10,6 C 9,4 C 15,6 C 81 % 1020,7 hPa 0,0 l/m 1,6 km/h (1 Bft) W 278 2 min 0,127 mm 0,8 UV-I 286 W/m 7,5 C 10,6 C 4,8 km/h (1 Bft) 95,74 %
02.11.2018 11:02 10,8 C 9,4 C 15,6 C 81 % 1020,7 hPa 0,0 l/m 3,4 km/h (1 Bft) W-NW 298 2 min 0,000 mm 0,8 UV-I 303 W/m 7,7 C 10,8 C 4,8 km/h (1 Bft) 96,00 %
02.11.2018 11:04 10,8 C 9,4 C 15,6 C 80 % 1020,6 hPa 0,0 l/m 3,2 km/h (1 Bft) NW 326 2 min 0,000 mm 0,8 UV-I 304 W/m 7,5 C 10,8 C 4,8 km/h (1 Bft) 95,74 %
02.11.2018 11:06 10,8 C 9,4 C 15,6 C 80 % 1020,5 hPa 0,0 l/m 2,9 km/h (1 Bft) N-NW 342 2 min 0,000 mm 0,8 UV-I 305 W/m 7,5 C 10,8 C 4,8 km/h (1 Bft) 92,00 %
02.11.2018 11:08 11,0 C 9,4 C 15,6 C 82 % 1020,4 hPa 0,0 l/m 4,1 km/h (1 Bft) N-NW 342 2 min 0,000 mm 0,9 UV-I 333 W/m 8,0 C 11,0 C 6,4 km/h (2 Bft) 91,49 %
02.11.2018 11:10 11,1 C 9,4 C 15,6 C 81 % 1020,4 hPa 0,0 l/m 3,5 km/h (1 Bft) N 349 2 min 0,000 mm 0,9 UV-I 320 W/m 8,0 C 11,1 C 4,8 km/h (1 Bft) 97,87 %
02.11.2018 11:12 11,1 C 9,4 C 15,6 C 80 % 1020,3 hPa 0,0 l/m 3,3 km/h (1 Bft) N-NW 348 2 min 0,000 mm 0,8 UV-I 303 W/m 7,8 C 11,1 C 6,4 km/h (2 Bft) 97,87 %
02.11.2018 11:14 11,1 C 9,4 C 15,6 C 81 % 1020,1 hPa 0,0 l/m 2,5 km/h (1 Bft) N-NW 348 2 min 0,000 mm 0,9 UV-I 326 W/m 8,0 C 11,1 C 3,2 km/h (1 Bft) 97,87 %
02.11.2018 11:16 11,2 C 9,4 C 15,6 C 81 % 1020,1 hPa 0,0 l/m 3,9 km/h (1 Bft) N 5 2 min 0,000 mm 0,9 UV-I 350 W/m 8,1 C 11,2 C 6,4 km/h (2 Bft) 97,87 %
02.11.2018 11:18 11,3 C 9,4 C 15,6 C 80 % 1020,1 hPa 0,0 l/m 3,6 km/h (1 Bft) N 9 2 min 0,000 mm 0,9 UV-I 339 W/m 8,0 C 11,3 C 6,4 km/h (2 Bft) 97,22 %
02.11.2018 11:20 11,3 C 9,4 C 15,6 C 80 % 1020,0 hPa 0,0 l/m 5,2 km/h (1 Bft) N 350 2 min 0,000 mm 0,9 UV-I 341 W/m 8,0 C 11,3 C 11,3 km/h (2 Bft) 100,00 %
02.11.2018 11:22 11,4 C 9,4 C 15,6 C 79 % 1020,0 hPa 0,0 l/m 2,7 km/h (1 Bft) N-NO 17 2 min 0,000 mm 0,9 UV-I 350 W/m 7,9 C 11,4 C 4,8 km/h (1 Bft) 100,00 %
02.11.2018 11:24 11,4 C 9,4 C 15,6 C 79 % 1020,0 hPa 0,0 l/m 1,4 km/h (1 Bft) N-NO 17 2 min 0,000 mm 0,9 UV-I 346 W/m 7,9 C 11,4 C 3,2 km/h (1 Bft) 100,00 %
02.11.2018 11:26 11,4 C 9,4 C 15,6 C 78 % 1019,9 hPa 0,0 l/m 1,8 km/h (1 Bft) W 265 2 min 0,000 mm 0,9 UV-I 322 W/m 7,7 C 11,4 C 4,8 km/h (1 Bft) 100,00 %
02.11.2018 11:28 11,4 C 9,4 C 15,6 C 78 % 1019,9 hPa 0,0 l/m 2,9 km/h (1 Bft) N-NO 33 2 min 0,000 mm 0,9 UV-I 317 W/m 7,7 C 11,4 C 6,4 km/h (2 Bft) 95,74 %
02.11.2018 11:30 11,5 C 9,4 C 15,6 C 78 % 1019,9 hPa 0,0 l/m 3,6 km/h (1 Bft) N-NW 335 2 min 0,000 mm 0,9 UV-I 319 W/m 7,8 C 11,5 C 6,4 km/h (2 Bft) 98,00 %
02.11.2018 11:32 11,4 C 9,4 C 15,0 C 78 % 1020,0 hPa 0,0 l/m 3,6 km/h (1 Bft) N-NO 28 2 min 0,000 mm 0,9 UV-I 315 W/m 7,7 C 11,4 C 6,4 km/h (2 Bft) 95,74 %
02.11.2018 11:34 11,5 C 9,4 C 15,0 C 79 % 1020,1 hPa 0,0 l/m 3,7 km/h (1 Bft) N-NO 13 2 min 0,000 mm 0,9 UV-I 314 W/m 8,0 C 11,5 C 4,8 km/h (1 Bft) 97,87 %
02.11.2018 11:36 11,6 C 9,4 C 15,6 C 78 % 1020,1 hPa 0,0 l/m 3,2 km/h (1 Bft) N 11 2 min 0,000 mm 0,9 UV-I 303 W/m 7,9 C 11,6 C 4,8 km/h (1 Bft) 97,87 %
02.11.2018 11:38 11,6 C 9,4 C 15,0 C 77 % 1020,1 hPa 0,0 l/m 4,6 km/h (1 Bft) N-NW 331 2 min 0,000 mm 0,9 UV-I 289 W/m 7,7 C 11,6 C 6,4 km/h (2 Bft) 97,87 %
02.11.2018 11:40 11,5 C 9,4 C 15,0 C 78 % 1020,0 hPa 0,0 l/m 3,7 km/h (1 Bft) N 11 2 min 0,000 mm 0,8 UV-I 272 W/m 7,8 C 11,5 C 4,8 km/h (1 Bft) 97,87 %
02.11.2018 11:42 11,4 C 9,4 C 15,0 C 78 % 1020,0 hPa 0,0 l/m 5,1 km/h (1 Bft) N 5 0 min 0,000 mm 0,8 UV-I 241 W/m 7,7 C 11,4 C 8,0 km/h (2 Bft) 95,74 %
02.11.2018 11:44 11,4 C 9,4 C 14,4 C 78 % 1020,0 hPa 0,0 l/m 4,2 km/h (1 Bft) N-NO 28 0 min 0,000 mm 0,8 UV-I 234 W/m 7,7 C 11,4 C 6,4 km/h (2 Bft) 95,74 %
02.11.2018 11:46 11,4 C 9,4 C 14,4 C 78 % 1020,0 hPa 0,0 l/m 2,0 km/h (1 Bft) W-NW 300 0 min 0,000 mm 0,8 UV-I 222 W/m 7,7 C 11,4 C 4,8 km/h (1 Bft) 97,87 %
02.11.2018 11:48 11,4 C 9,4 C 14,4 C 79 % 1020,0 hPa 0,0 l/m 5,2 km/h (1 Bft) N 360 0 min 0,000 mm 0,7 UV-I 210 W/m 7,9 C 11,4 C 8,0 km/h (2 Bft) 97,14 %
02.11.2018 11:50 11,3 C 9,4 C 14,4 C 78 % 1020,1 hPa 0,0 l/m 4,0 km/h (1 Bft) N 11 0 min 0,000 mm 0,7 UV-I 200 W/m 7,6 C 11,3 C 8,0 km/h (2 Bft) 93,62 %
02.11.2018 11:52 11,3 C 9,4 C 14,4 C 78 % 1020,1 hPa 0,0 l/m 3,4 km/h (1 Bft) NW 324 0 min 0,000 mm 0,6 UV-I 193 W/m 7,6 C 11,3 C 4,8 km/h (1 Bft) 95,74 %
02.11.2018 11:54 11,3 C 9,4 C 14,4 C 78 % 1020,1 hPa 0,0 l/m 3,1 km/h (1 Bft) NW 325 0 min 0,000 mm 0,6 UV-I 192 W/m 7,6 C 11,3 C 4,8 km/h (1 Bft) 95,83 %
02.11.2018 11:56 11,3 C 9,4 C 14,4 C 78 % 1020,1 hPa 0,0 l/m 3,3 km/h (1 Bft) NW 325 0 min 0,000 mm 0,6 UV-I 195 W/m 7,6 C 11,3 C 4,8 km/h (1 Bft) 97,87 %
02.11.2018 11:58 11,3 C 9,4 C 14,4 C 78 % 1020,1 hPa 0,0 l/m 3,0 km/h (1 Bft) NW 326 0 min 0,000 mm 0,6 UV-I 200 W/m 7,6 C 11,3 C 4,8 km/h (1 Bft) 97,87 %
02.11.2018 12:00 11,3 C 9,4 C 14,4 C 78 % 1020,1 hPa 0,0 l/m 2,6 km/h (1 Bft) NW 326 0 min 0,153 mm 0,6 UV-I 207 W/m 7,6 C 11,3 C 4,8 km/h (1 Bft) 100,00 %
02.11.2018 12:02 11,3 C 9,4 C 14,4 C 78 % 1020,1 hPa 0,0 l/m 2,5 km/h (1 Bft) NW 326 0 min 0,000 mm 0,7 UV-I 216 W/m 7,6 C 11,3 C 4,8 km/h (1 Bft) 100,00 %
02.11.2018 12:04 11,3 C 9,4 C 14,4 C 78 % 1020,1 hPa 0,0 l/m 3,0 km/h (1 Bft) N-NW 342 0 min 0,000 mm 0,7 UV-I 213 W/m 7,6 C 11,3 C 4,8 km/h (1 Bft) 97,87 %
02.11.2018 12:06 11,3 C 9,4 C 14,4 C 78 % 1020,1 hPa 0,0 l/m 2,9 km/h (1 Bft) N-NW 342 0 min 0,000 mm 0,7 UV-I 213 W/m 7,6 C 11,3 C 4,8 km/h (1 Bft) 100,00 %
02.11.2018 12:08 11,3 C 9,4 C 15,0 C 79 % 1020,1 hPa 0,0 l/m 2,5 km/h (1 Bft) N-NW 342 0 min 0,000 mm 0,7 UV-I 213 W/m 7,8 C 11,3 C 3,2 km/h (1 Bft) 100,00 %
02.11.2018 12:10 11,3 C 9,4 C 14,4 C 78 % 1020,1 hPa 0,0 l/m 3,2 km/h (1 Bft) N-NW 346 0 min 0,000 mm 0,7 UV-I 211 W/m 7,6 C 11,3 C 4,8 km/h (1 Bft) 100,00 %
02.11.2018 12:12 11,3 C 9,4 C 14,4 C 78 % 1020,1 hPa 0,0 l/m 3,7 km/h (1 Bft) N 351 0 min 0,000 mm 0,7 UV-I 205 W/m 7,6 C 11,3 C 6,4 km/h (2 Bft) 100,00 %
02.11.2018 12:14 11,3 C 9,4 C 14,4 C 78 % 1020,1 hPa 0,0 l/m 3,2 km/h (1 Bft) N-NW 344 0 min 0,000 mm 0,7 UV-I 199 W/m 7,6 C 11,3 C 6,4 km/h (2 Bft) 100,00 %
02.11.2018 12:16 11,2 C 9,4 C 13,9 C 78 % 1020,1 hPa 0,0 l/m 4,1 km/h (1 Bft) N-NW 346 0 min 0,000 mm 0,6 UV-I 197 W/m 7,5 C 11,2 C 6,4 km/h (2 Bft) 100,00 %
02.11.2018 12:18 11,2 C 9,4 C 14,4 C 79 % 1020,1 hPa 0,0 l/m 3,3 km/h (1 Bft) W 281 0 min 0,000 mm 0,6 UV-I 198 W/m 7,7 C 11,2 C 4,8 km/h (1 Bft) 100,00 %
02.11.2018 12:20 11,2 C 9,4 C 13,9 C 78 % 1020,1 hPa 0,0 l/m 4,5 km/h (1 Bft) W-NW 285 0 min 0,000 mm 0,6 UV-I 203 W/m 7,5 C 11,2 C 6,4 km/h (2 Bft) 100,00 %
02.11.2018 12:22 11,2 C 9,4 C 14,4 C 78 % 1020,1 hPa 0,0 l/m 2,7 km/h (1 Bft) W-NW 285 0 min 0,000 mm 0,6 UV-I 200 W/m 7,5 C 11,2 C 4,8 km/h (1 Bft) 100,00 %
02.11.2018 12:24 11,2 C 9,4 C 14,4 C 78 % 1020,3 hPa 0,0 l/m 3,4 km/h (1 Bft) W-NW 295 0 min 0,000 mm 0,6 UV-I 194 W/m 7,5 C 11,2 C 4,8 km/h (1 Bft) 97,87 %
02.11.2018 12:26 11,2 C 9,4 C 13,9 C 79 % 1020,3 hPa 0,0 l/m 2,5 km/h (1 Bft) W-NW 295 0 min 0,000 mm 0,6 UV-I 185 W/m 7,7 C 11,2 C 4,8 km/h (1 Bft) 97,87 %
02.11.2018 12:28 11,2 C 9,4 C 13,9 C 78 % 1020,4 hPa 0,0 l/m 3,4 km/h (1 Bft) W 273 0 min 0,000 mm 0,6 UV-I 176 W/m 7,5 C 11,2 C 4,8 km/h (1 Bft) 95,74 %
02.11.2018 12:30 11,3 C 9,4 C 13,9 C 78 % 1020,4 hPa 0,0 l/m 3,6 km/h (1 Bft) W 268 0 min 0,000 mm 0,5 UV-I 167 W/m 7,6 C 11,3 C 6,4 km/h (2 Bft) 97,87 %
02.11.2018 12:32 11,3 C 9,4 C 13,9 C 78 % 1020,4 hPa 0,0 l/m 4,9 km/h (1 Bft) W 271 0 min 0,000 mm 0,5 UV-I 153 W/m 7,6 C 11,3 C 9,7 km/h (2 Bft) 97,87 %
02.11.2018 12:34 11,3 C 9,4 C 13,3 C 78 % 1020,4 hPa 0,0 l/m 7,9 km/h (2 Bft) W 259 0 min 0,000 mm 0,5 UV-I 139 W/m 7,6 C 10,3 C 12,9 km/h (3 Bft) 97,56 %
02.11.2018 12:36 11,2 C 9,4 C 13,3 C 77 % 1020,3 hPa 0,0 l/m 3,9 km/h (1 Bft) W 270 0 min 0,000 mm 0,0 UV-I 133 W/m 7,3 C 11,2 C 6,4 km/h (2 Bft) 97,92 %
02.11.2018 12:38 11,2 C 9,4 C 13,3 C 78 % 1020,2 hPa 0,0 l/m 5,5 km/h (1 Bft) W 261 0 min 0,000 mm 0,0 UV-I 134 W/m 7,5 C 11,2 C 9,7 km/h (2 Bft) 97,87 %
02.11.2018 12:40 11,2 C 9,4 C 13,3 C 78 % 1020,2 hPa 0,0 l/m 6,0 km/h (2 Bft) W-NW 290 0 min 0,000 mm 0,0 UV-I 136 W/m 7,5 C 11,2 C 9,7 km/h (2 Bft) 97,87 %
02.11.2018 12:42 11,2 C 9,4 C 12,8 C 79 % 1020,2 hPa 0,0 l/m 5,3 km/h (1 Bft) W 277 0 min 0,000 mm 0,0 UV-I 136 W/m 7,7 C 11,2 C 6,4 km/h (2 Bft) 95,74 %
02.11.2018 12:44 11,1 C 9,4 C 12,8 C 78 % 1020,2 hPa 0,0 l/m 2,6 km/h (1 Bft) W 276 0 min 0,000 mm 0,0 UV-I 135 W/m 7,4 C 11,1 C 4,8 km/h (1 Bft) 95,74 %
02.11.2018 12:46 11,1 C 9,4 C 13,3 C 79 % 1020,1 hPa 0,0 l/m 3,0 km/h (1 Bft) W 277 0 min 0,000 mm 0,0 UV-I 137 W/m 7,6 C 11,1 C 4,8 km/h (1 Bft) 97,87 %
02.11.2018 12:48 11,2 C 9,4 C 13,3 C 79 % 1020,0 hPa 0,0 l/m 3,0 km/h (1 Bft) W 265 0 min 0,000 mm 0,3 UV-I 140 W/m 7,7 C 11,2 C 4,8 km/h (1 Bft) 97,87 %
02.11.2018 12:50 11,2 C 9,4 C 13,3 C 79 % 1020,0 hPa 0,0 l/m 3,5 km/h (1 Bft) W-SW 255 0 min 0,000 mm 0,5 UV-I 143 W/m 7,7 C 11,2 C 6,4 km/h (2 Bft) 95,74 %
02.11.2018 12:52 11,2 C 9,4 C 13,3 C 80 % 1020,0 hPa 0,0 l/m 4,0 km/h (1 Bft) W 273 0 min 0,000 mm 0,5 UV-I 148 W/m 7,9 C 11,2 C 6,4 km/h (2 Bft) 94,00 %
02.11.2018 12:54 11,2 C 9,4 C 13,3 C 79 % 1020,1 hPa 0,0 l/m 2,5 km/h (1 Bft) W-SW 249 0 min 0,000 mm 0,5 UV-I 151 W/m 7,7 C 11,2 C 4,8 km/h (1 Bft) 93,62 %
02.11.2018 12:56 11,2 C 9,4 C 13,3 C 79 % 1020,1 hPa 0,0 l/m 3,5 km/h (1 Bft) W-NW 287 0 min 0,000 mm 0,5 UV-I 155 W/m 7,7 C 11,2 C 4,8 km/h (1 Bft) 95,74 %
02.11.2018 12:58 11,1 C 9,4 C 13,3 C 79 % 1020,0 hPa 0,0 l/m 2,9 km/h (1 Bft) W-NW 287 0 min 0,000 mm 0,5 UV-I 155 W/m 7,6 C 11,1 C 4,8 km/h (1 Bft) 97,87 %
02.11.2018 13:00 11,1 C 9,4 C 13,3 C 80 % 1020,1 hPa 0,0 l/m 3,6 km/h (1 Bft) W-SW 248 0 min 0,101 mm 0,5 UV-I 152 W/m 7,8 C 11,1 C 4,8 km/h (1 Bft) 97,87 %
02.11.2018 13:02 11,2 C 9,4 C 13,3 C 80 % 1020,1 hPa 0,0 l/m 3,0 km/h (1 Bft) W-NW 282 0 min 0,000 mm 0,5 UV-I 148 W/m 7,9 C 11,2 C 4,8 km/h (1 Bft) 97,87 %
02.11.2018 13:04 11,2 C 9,4 C 13,3 C 80 % 1020,1 hPa 0,0 l/m 3,4 km/h (1 Bft) W 263 0 min 0,000 mm 0,5 UV-I 146 W/m 7,9 C 11,2 C 6,4 km/h (2 Bft) 97,87 %
02.11.2018 13:06 11,2 C 9,4 C 13,3 C 80 % 1020,1 hPa 0,0 l/m 2,6 km/h (1 Bft) W-SW 243 0 min 0,000 mm 0,5 UV-I 144 W/m 7,9 C 11,2 C 6,4 km/h (2 Bft) 94,29 %
02.11.2018 13:08 11,2 C 9,4 C 13,3 C 79 % 1020,1 hPa 0,0 l/m 4,6 km/h (1 Bft) W 276 0 min 0,000 mm 0,5 UV-I 146 W/m 7,7 C 11,2 C 6,4 km/h (2 Bft) 95,83 %
02.11.2018 13:10 11,2 C 9,4 C 13,3 C 79 % 1020,0 hPa 0,0 l/m 3,2 km/h (1 Bft) W 276 0 min 0,000 mm 0,5 UV-I 154 W/m 7,7 C 11,2 C 4,8 km/h (1 Bft) 96,15 %
02.11.2018 13:12 11,2 C 9,4 C 13,3 C 79 % 1020,0 hPa 0,0 l/m 3,8 km/h (1 Bft) W 276 0 min 0,000 mm 0,5 UV-I 160 W/m 7,7 C 11,2 C 4,8 km/h (1 Bft) 100,00 %
02.11.2018 13:14 11,2 C 9,4 C 13,3 C 79 % 1019,9 hPa 0,0 l/m 2,8 km/h (1 Bft) W 276 0 min 0,000 mm 0,5 UV-I 158 W/m 7,7 C 11,2 C 4,8 km/h (1 Bft) 100,00 %
02.11.2018 13:16 11,2 C 9,4 C 13,3 C 79 % 1019,9 hPa 0,0 l/m 3,9 km/h (1 Bft) W 271 0 min 0,000 mm 0,5 UV-I 149 W/m 7,7 C 11,2 C 9,7 km/h (2 Bft) 97,37 %
02.11.2018 13:18 11,2 C 9,4 C 13,3 C 80 % 1019,9 hPa 0,0 l/m 4,1 km/h (1 Bft) W 281 0 min 0,000 mm 0,0 UV-I 137 W/m 7,9 C 11,2 C 6,4 km/h (2 Bft) 100,00 %
02.11.2018 13:20 11,2 C 9,4 C 13,3 C 79 % 1019,9 hPa 0,0 l/m 4,0 km/h (1 Bft) W 277 0 min 0,000 mm 0,0 UV-I 134 W/m 7,7 C 11,2 C 6,4 km/h (2 Bft) 100,00 %
02.11.2018 13:22 11,2 C 9,4 C 13,3 C 79 % 1019,8 hPa 0,0 l/m 3,5 km/h (1 Bft) W 266 0 min 0,000 mm 0,0 UV-I 133 W/m 7,7 C 11,2 C 6,4 km/h (2 Bft) 97,87 %
02.11.2018 13:24 11,1 C 9,4 C 13,3 C 79 % 1019,9 hPa 0,0 l/m 3,4 km/h (1 Bft) W 266 0 min 0,000 mm 0,0 UV-I 128 W/m 7,6 C 11,1 C 4,8 km/h (1 Bft) 98,00 %
02.11.2018 13:26 11,1 C 9,4 C 12,8 C 79 % 1019,8 hPa 0,0 l/m 2,7 km/h (1 Bft) W 266 0 min 0,000 mm 0,0 UV-I 122 W/m 7,6 C 11,1 C 3,2 km/h (1 Bft) 100,00 %
02.11.2018 13:28 11,0 C 9,4 C 12,8 C 79 % 1019,8 hPa 0,0 l/m 1,3 km/h (1 Bft) W 266 0 min 0,000 mm 0,0 UV-I 114 W/m 7,5 C 11,0 C 3,2 km/h (1 Bft) 97,87 %
02.11.2018 13:30 11,1 C 9,4 C 12,8 C 80 % 1019,8 hPa 0,0 l/m 0,7 km/h (0 Bft) W 266 0 min 0,000 mm 0,0 UV-I 109 W/m 7,8 C 11,1 C 1,6 km/h (1 Bft) 100,00 %
02.11.2018 13:32 11,1 C 9,4 C 13,3 C 80 % 1019,8 hPa 0,0 l/m 1,4 km/h (1 Bft) W 266 0 min 0,000 mm 0,0 UV-I 104 W/m 7,8 C 11,1 C 3,2 km/h (1 Bft) 100,00 %
02.11.2018 13:34 11,2 C 9,4 C 12,8 C 80 % 1019,8 hPa 0,0 l/m 2,0 km/h (1 Bft) W 273 0 min 0,000 mm 0,0 UV-I 104 W/m 7,9 C 11,2 C 3,2 km/h (1 Bft) 97,37 %
02.11.2018 13:36 11,2 C 9,4 C 12,8 C 80 % 1019,8 hPa 0,0 l/m 1,3 km/h (1 Bft) W 273 0 min 0,000 mm 0,0 UV-I 100 W/m 7,9 C 11,2 C 3,2 km/h (1 Bft) 97,87 %
02.11.2018 13:38 11,2 C 9,4 C 12,8 C 79 % 1019,8 hPa 0,0 l/m 1,6 km/h (1 Bft) W 273 0 min 0,000 mm 0,0 UV-I 99 W/m 7,7 C 11,2 C 3,2 km/h (1 Bft) 100,00 %
02.11.2018 13:40 11,1 C 9,4 C 12,8 C 79 % 1019,9 hPa 0,0 l/m 2,6 km/h (1 Bft) W 273 0 min 0,000 mm 0,0 UV-I 95 W/m 7,6 C 11,1 C 4,8 km/h (1 Bft) 97,87 %
02.11.2018 13:42 11,1 C 9,4 C 12,8 C 80 % 1020,0 hPa 0,0 l/m 2,2 km/h (1 Bft) W 273 0 min 0,000 mm 0,0 UV-I 90 W/m 7,8 C 11,1 C 3,2 km/h (1 Bft) 100,00 %
02.11.2018 13:44 11,1 C 9,4 C 12,2 C 79 % 1019,9 hPa 0,0 l/m 1,0 km/h (0 Bft) W 273 0 min 0,000 mm 0,0 UV-I 84 W/m 7,6 C 11,1 C 3,2 km/h (1 Bft) 97,87 %
02.11.2018 13:46 11,1 C 9,4 C 12,2 C 80 % 1019,9 hPa 0,0 l/m 1,3 km/h (1 Bft) W 273 0 min 0,000 mm 0,0 UV-I 84 W/m 7,8 C 11,1 C 1,6 km/h (1 Bft) 100,00 %
02.11.2018 13:48 11,1 C 9,4 C 12,2 C 80 % 1019,9 hPa 0,0 l/m 2,0 km/h (1 Bft) W 273 0 min 0,000 mm 0,0 UV-I 86 W/m 7,8 C 11,1 C 3,2 km/h (1 Bft) 100,00 %
02.11.2018 13:50 11,1 C 9,4 C 12,2 C 80 % 1019,9 hPa 0,0 l/m 0,9 km/h (0 Bft) W 273 0 min 0,000 mm 0,0 UV-I 88 W/m 7,8 C 11,1 C 1,6 km/h (1 Bft) 100,00 %
02.11.2018 13:52 11,1 C 9,4 C 12,2 C 80 % 1019,9 hPa 0,0 l/m 0,5 km/h (0 Bft) W 273 0 min 0,000 mm 0,0 UV-I 88 W/m 7,8 C 11,1 C 1,6 km/h (1 Bft) 100,00 %
02.11.2018 13:54 11,1 C 9,4 C 12,2 C 80 % 1020,0 hPa 0,0 l/m 0,7 km/h (0 Bft) W 273 0 min 0,000 mm 0,0 UV-I 86 W/m 7,8 C 11,1 C 1,6 km/h (1 Bft) 98,00 %
02.11.2018 13:56 11,1 C 9,4 C 12,2 C 80 % 1020,0 hPa 0,0 l/m 0,2 km/h (0 Bft) W 273 0 min 0,000 mm 0,0 UV-I 86 W/m 7,8 C 11,1 C 1,6 km/h (1 Bft) 100,00 %
02.11.2018 13:58 11,1 C 9,4 C 12,2 C 80 % 1019,9 hPa 0,0 l/m 1,4 km/h (1 Bft) W 273 0 min 0,000 mm 0,0 UV-I 88 W/m 7,8 C 11,1 C 3,2 km/h (1 Bft) 100,00 %
02.11.2018 14:00 11,1 C 9,4 C 12,2 C 80 % 1020,1 hPa 0,0 l/m 1,5 km/h (1 Bft) W 273 0 min 0,000 mm 0,0 UV-I 88 W/m 7,8 C 11,1 C 3,2 km/h (1 Bft) 100,00 %
02.11.2018 14:02 11,1 C 9,4 C 12,2 C 80 % 1020,1 hPa 0,0 l/m 1,7 km/h (1 Bft) W 273 0 min 0,051 mm 0,0 UV-I 88 W/m 7,8 C 11,1 C 3,2 km/h (1 Bft) 97,87 %
02.11.2018 14:04 11,1 C 9,4 C 12,2 C 81 % 1020,1 hPa 0,0 l/m 1,6 km/h (1 Bft) W 273 0 min 0,000 mm 0,0 UV-I 89 W/m 8,0 C 11,1 C 3,2 km/h (1 Bft) 97,87 %
02.11.2018 14:06 11,1 C 9,4 C 12,2 C 81 % 1020,0 hPa 0,0 l/m 2,2 km/h (1 Bft) W 272 0 min 0,000 mm 0,0 UV-I 83 W/m 8,0 C 11,1 C 4,8 km/h (1 Bft) 95,74 %
02.11.2018 14:08 11,1 C 9,4 C 12,2 C 81 % 1020,0 hPa 0,0 l/m 2,3 km/h (1 Bft) W 273 0 min 0,000 mm 0,0 UV-I 78 W/m 8,0 C 11,1 C 3,2 km/h (1 Bft) 97,87 %
02.11.2018 14:10 11,1 C 9,4 C 12,2 C 81 % 1019,9 hPa 0,0 l/m 1,9 km/h (1 Bft) W 273 0 min 0,000 mm 0,0 UV-I 75 W/m 8,0 C 11,1 C 3,2 km/h (1 Bft) 100,00 %
02.11.2018 14:12 11,1 C 9,4 C 12,2 C 81 % 1019,9 hPa 0,0 l/m 1,9 km/h (1 Bft) W 274 0 min 0,000 mm 0,0 UV-I 72 W/m 8,0 C 11,1 C 3,2 km/h (1 Bft) 95,74 %
02.11.2018 14:14 11,1 C 9,4 C 12,2 C 81 % 1019,9 hPa 0,0 l/m 2,0 km/h (1 Bft) W 274 0 min 0,000 mm 0,0 UV-I 72 W/m 8,0 C 11,1 C 4,8 km/h (1 Bft) 97,87 %
02.11.2018 14:16 11,1 C 9,4 C 12,2 C 81 % 1020,0 hPa 0,0 l/m 3,1 km/h (1 Bft) W 274 0 min 0,000 mm 0,0 UV-I 71 W/m 8,0 C 11,1 C 4,8 km/h (1 Bft) 97,87 %
02.11.2018 14:18 11,1 C 9,4 C 12,2 C 81 % 1020,1 hPa 0,0 l/m 4,3 km/h (1 Bft) W 264 0 min 0,000 mm 0,0 UV-I 66 W/m 8,0 C 11,1 C 9,7 km/h (2 Bft) 97,87 %
02.11.2018 14:20 11,1 C 9,4 C 11,7 C 81 % 1020,1 hPa 0,0 l/m 4,4 km/h (1 Bft) W-SW 254 0 min 0,000 mm 0,0 UV-I 62 W/m 8,0 C 11,1 C 6,4 km/h (2 Bft) 94,00 %
02.11.2018 14:22 11,1 C 9,4 C 11,7 C 81 % 1020,2 hPa 0,0 l/m 5,4 km/h (1 Bft) W-SW 248 0 min 0,000 mm 0,0 UV-I 57 W/m 8,0 C 11,1 C 11,3 km/h (2 Bft) 98,00 %
02.11.2018 14:24 11,1 C 9,4 C 11,7 C 81 % 1020,3 hPa 0,0 l/m 5,4 km/h (1 Bft) W-SW 245 0 min 0,000 mm 0,0 UV-I 52 W/m 8,0 C 11,1 C 11,3 km/h (2 Bft) 91,67 %
02.11.2018 14:26 11,0 C 9,4 C 11,7 C 81 % 1020,2 hPa 0,0 l/m 4,6 km/h (1 Bft) W-SW 256 0 min 0,000 mm 0,0 UV-I 49 W/m 7,9 C 11,0 C 8,0 km/h (2 Bft) 95,74 %
02.11.2018 14:28 10,9 C 9,4 C 11,7 C 81 % 1020,1 hPa 0,0 l/m 6,1 km/h (2 Bft) W 274 0 min 0,000 mm 0,0 UV-I 47 W/m 7,8 C 10,9 C 9,7 km/h (2 Bft) 94,00 %
02.11.2018 14:30 10,9 C 9,4 C 11,1 C 82 % 1020,1 hPa 0,0 l/m 2,7 km/h (1 Bft) W 275 0 min 0,000 mm 0,0 UV-I 46 W/m 7,9 C 10,9 C 4,8 km/h (1 Bft) 95,74 %
02.11.2018 14:32 10,9 C 9,4 C 11,1 C 82 % 1020,1 hPa 0,0 l/m 2,9 km/h (1 Bft) W 275 0 min 0,000 mm 0,0 UV-I 44 W/m 7,9 C 10,9 C 4,8 km/h (1 Bft) 93,62 %
02.11.2018 14:34 10,9 C 9,4 C 11,1 C 82 % 1020,1 hPa 0,0 l/m 2,7 km/h (1 Bft) W 275 0 min 0,000 mm 0,0 UV-I 40 W/m 7,9 C 10,9 C 4,8 km/h (1 Bft) 94,00 %
02.11.2018 14:36 10,8 C 9,4 C 11,1 C 82 % 1020,1 hPa 0,0 l/m 2,8 km/h (1 Bft) W 274 0 min 0,000 mm 0,0 UV-I 36 W/m 7,9 C 10,8 C 4,8 km/h (1 Bft) 96,00 %
02.11.2018 14:38 10,8 C 9,4 C 11,1 C 82 % 1020,2 hPa 0,0 l/m 3,3 km/h (1 Bft) W 259 0 min 0,000 mm 0,0 UV-I 34 W/m 7,9 C 10,8 C 6,4 km/h (2 Bft) 93,62 %
02.11.2018 14:40 10,8 C 9,4 C 11,1 C 82 % 1020,2 hPa 0,0 l/m 4,3 km/h (1 Bft) W-SW 247 0 min 0,000 mm 0,0 UV-I 33 W/m 7,9 C 10,8 C 4,8 km/h (1 Bft) 95,74 %
02.11.2018 14:42 10,8 C 9,4 C 11,1 C 82 % 1020,3 hPa 0,0 l/m 4,4 km/h (1 Bft) SW 229 0 min 0,000 mm 0,0 UV-I 34 W/m 7,9 C 10,8 C 8,0 km/h (2 Bft) 97,87 %
02.11.2018 14:44 10,8 C 9,4 C 11,1 C 82 % 1020,3 hPa 0,0 l/m 4,0 km/h (1 Bft) SW 235 0 min 0,000 mm 0,0 UV-I 35 W/m 7,9 C 10,8 C 8,0 km/h (2 Bft) 97,87 %
02.11.2018 14:46 10,7 C 9,4 C 10,6 C 82 % 1020,3 hPa 0,0 l/m 3,9 km/h (1 Bft) W 262 0 min 0,000 mm 0,0 UV-I 35 W/m 7,8 C 10,7 C 6,4 km/h (2 Bft) 97,37 %
02.11.2018 14:48 10,7 C 9,4 C 10,6 C 82 % 1020,3 hPa 0,0 l/m 3,5 km/h (1 Bft) W 259 0 min 0,000 mm 0,0 UV-I 35 W/m 7,8 C 10,7 C 4,8 km/h (1 Bft) 95,74 %
02.11.2018 14:50 10,7 C 9,4 C 10,6 C 82 % 1020,2 hPa 0,0 l/m 4,1 km/h (1 Bft) W-SW 254 0 min 0,000 mm 0,0 UV-I 35 W/m 7,8 C 10,7 C 6,4 km/h (2 Bft) 97,87 %
02.11.2018 14:52 10,7 C 9,4 C 10,6 C 82 % 1020,2 hPa 0,0 l/m 2,2 km/h (1 Bft) W-SW 254 0 min 0,000 mm 0,0 UV-I 33 W/m 7,8 C 10,7 C 4,8 km/h (1 Bft) 97,87 %
02.11.2018 14:54 10,7 C 9,4 C 10,6 C 82 % 1020,2 hPa 0,0 l/m 2,9 km/h (1 Bft) W-SW 253 0 min 0,000 mm 0,0 UV-I 30 W/m 7,8 C 10,7 C 4,8 km/h (1 Bft) 97,87 %
02.11.2018 14:56 10,7 C 9,4 C 10,6 C 82 % 1020,2 hPa 0,0 l/m 4,5 km/h (1 Bft) W 275 0 min 0,000 mm 0,0 UV-I 30 W/m 7,8 C 10,7 C 6,4 km/h (2 Bft) 98,00 %
02.11.2018 14:58 10,7 C 9,4 C 10,6 C 82 % 1020,1 hPa 0,0 l/m 4,3 km/h (1 Bft) W 277 0 min 0,000 mm 0,0 UV-I 30 W/m 7,8 C 10,7 C 4,8 km/h (1 Bft) 97,87 %
02.11.2018 15:00 10,7 C 9,4 C 10,6 C 82 % 1020,1 hPa 0,0 l/m 2,5 km/h (1 Bft) W 281 0 min 0,026 mm 0,0 UV-I 32 W/m 7,8 C 10,7 C 4,8 km/h (1 Bft) 97,87 %
02.11.2018 15:02 10,6 C 9,4 C 10,6 C 83 % 1020,0 hPa 0,0 l/m 1,0 km/h (0 Bft) W 281 0 min 0,000 mm 0,0 UV-I 32 W/m 7,8 C 10,6 C 4,8 km/h (1 Bft) 97,87 %
02.11.2018 15:04 10,6 C 9,4 C 10,6 C 83 % 1019,9 hPa 0,0 l/m 1,0 km/h (0 Bft) W 281 0 min 0,000 mm 0,0 UV-I 32 W/m 7,8 C 10,6 C 1,6 km/h (1 Bft) 94,00 %
02.11.2018 15:06 10,6 C 9,4 C 10,6 C 84 % 1019,8 hPa 0,0 l/m 0,9 km/h (0 Bft) W 281 0 min 0,000 mm 0,0 UV-I 31 W/m 8,0 C 10,6 C 3,2 km/h (1 Bft) 95,74 %
02.11.2018 15:08 10,4 C 9,4 C 10,6 C 84 % 1019,8 hPa 0,0 l/m 0,6 km/h (0 Bft) W 281 0 min 0,000 mm 0,0 UV-I 30 W/m 7,8 C 10,4 C 1,6 km/h (1 Bft) 97,44 %
02.11.2018 15:10 10,4 C 9,4 C 10,6 C 84 % 1019,8 hPa 0,0 l/m 2,4 km/h (1 Bft) W 281 0 min 0,000 mm 0,0 UV-I 28 W/m 7,8 C 10,4 C 4,8 km/h (1 Bft) 97,87 %
02.11.2018 15:12 10,4 C 9,4 C 10,6 C 84 % 1019,8 hPa 0,0 l/m 1,7 km/h (1 Bft) W 281 0 min 0,000 mm 0,0 UV-I 28 W/m 7,8 C 10,4 C 3,2 km/h (1 Bft) 95,74 %
02.11.2018 15:14 10,3 C 9,4 C 10,0 C 84 % 1020,0 hPa 0,0 l/m 1,8 km/h (1 Bft) W 281 0 min 0,000 mm 0,0 UV-I 28 W/m 7,7 C 10,3 C 3,2 km/h (1 Bft) 96,00 %
02.11.2018 15:16 10,3 C 9,4 C 10,0 C 84 % 1020,1 hPa 0,0 l/m 2,1 km/h (1 Bft) W 281 0 min 0,000 mm 0,0 UV-I 26 W/m 7,7 C 10,3 C 3,2 km/h (1 Bft) 97,87 %
02.11.2018 15:18 10,3 C 9,4 C 10,0 C 84 % 1020,1 hPa 0,0 l/m 2,5 km/h (1 Bft) W 281 0 min 0,000 mm 0,0 UV-I 26 W/m 7,7 C 10,3 C 4,8 km/h (1 Bft) 97,87 %
02.11.2018 15:20 10,3 C 9,4 C 10,0 C 84 % 1020,0 hPa 0,0 l/m 2,0 km/h (1 Bft) W 281 0 min 0,000 mm 0,0 UV-I 25 W/m 7,7 C 10,3 C 3,2 km/h (1 Bft) 97,87 %
02.11.2018 15:22 10,3 C 9,4 C 10,0 C 85 % 1020,0 hPa 0,0 l/m 2,1 km/h (1 Bft) W 281 0 min 0,000 mm 0,0 UV-I 25 W/m 7,9 C 10,3 C 3,2 km/h (1 Bft) 95,74 %
02.11.2018 15:24 10,3 C 9,4 C 10,0 C 85 % 1020,1 hPa 0,0 l/m 2,1 km/h (1 Bft) W 281 0 min 0,000 mm 0,0 UV-I 26 W/m 7,9 C 10,3 C 3,2 km/h (1 Bft) 96,00 %
02.11.2018 15:26 10,3 C 9,4 C 10,0 C 84 % 1020,1 hPa 0,0 l/m 2,6 km/h (1 Bft) W 261 0 min 0,000 mm 0,0 UV-I 28 W/m 7,7 C 10,3 C 4,8 km/h (1 Bft) 95,74 %
02.11.2018 15:28 10,3 C 9,4 C 10,0 C 84 % 1020,1 hPa 0,0 l/m 3,6 km/h (1 Bft) W-SW 257 0 min 0,000 mm 0,0 UV-I 29 W/m 7,7 C 10,3 C 6,4 km/h (2 Bft) 95,74 %
02.11.2018 15:30 10,3 C 9,4 C 10,0 C 84 % 1020,1 hPa 0,0 l/m 2,9 km/h (1 Bft) W-SW 257 0 min 0,000 mm 0,0 UV-I 28 W/m 7,7 C 10,3 C 4,8 km/h (1 Bft) 97,87 %
02.11.2018 15:32 10,3 C 9,4 C 10,0 C 85 % 1020,1 hPa 0,0 l/m 1,1 km/h (1 Bft) W-SW 257 0 min 0,000 mm 0,0 UV-I 26 W/m 7,9 C 10,3 C 1,6 km/h (1 Bft) 97,87 %
02.11.2018 15:34 10,3 C 9,4 C 10,0 C 85 % 1020,1 hPa 0,0 l/m 0,8 km/h (0 Bft) W-SW 257 0 min 0,000 mm 0,0 UV-I 26 W/m 7,9 C 10,3 C 3,2 km/h (1 Bft) 93,62 %
02.11.2018 15:36 10,3 C 9,4 C 10,0 C 85 % 1020,1 hPa 0,0 l/m 0,3 km/h (0 Bft) W-SW 257 0 min 0,000 mm 0,0 UV-I 26 W/m 7,9 C 10,3 C 1,6 km/h (1 Bft) 94,74 %
02.11.2018 15:38 10,3 C 9,4 C 10,0 C 85 % 1020,1 hPa 0,0 l/m 0,9 km/h (0 Bft) W-SW 257 0 min 0,000 mm 0,0 UV-I 28 W/m 7,9 C 10,3 C 1,6 km/h (1 Bft) 95,74 %
02.11.2018 15:40 10,3 C 9,4 C 10,0 C 85 % 1020,1 hPa 0,0 l/m 0,2 km/h (0 Bft) W-SW 257 0 min 0,000 mm 0,0 UV-I 28 W/m 7,9 C 10,3 C 1,6 km/h (1 Bft) 93,75 %
02.11.2018 15:42 10,3 C 9,4 C 10,0 C 85 % 1020,1 hPa 0,0 l/m 0,4 km/h (0 Bft) W-SW 257 0 min 0,000 mm 0,0 UV-I 28 W/m 7,9 C 10,3 C 1,6 km/h (1 Bft) 95,74 %
02.11.2018 15:44 10,3 C 9,4 C 10,0 C 85 % 1020,1 hPa 0,0 l/m 1,0 km/h (0 Bft) W-SW 257 0 min 0,000 mm 0,0 UV-I 26 W/m 7,9 C 10,3 C 3,2 km/h (1 Bft) 95,74 %
02.11.2018 15:46 10,2 C 9,4 C 10,0 C 86 % 1020,0 hPa 0,0 l/m 0,7 km/h (0 Bft) W-SW 257 0 min 0,000 mm 0,0 UV-I 26 W/m 8,0 C 10,2 C 1,6 km/h (1 Bft) 93,62 %
02.11.2018 15:48 10,2 C 9,4 C 10,0 C 86 % 1020,1 hPa 0,0 l/m 0,0 km/h (0 Bft) W-SW 257 0 min 0,000 mm 0,0 UV-I 26 W/m 8,0 C 10,2 C 0,0 km/h (0 Bft) 91,49 %
02.11.2018 15:50 10,2 C 9,4 C 10,0 C 86 % 1020,1 hPa 0,0 l/m 0,0 km/h (0 Bft) W-SW 257 0 min 0,000 mm 0,0 UV-I 28 W/m 8,0 C 10,2 C 0,0 km/h (0 Bft) 94,00 %
02.11.2018 15:52 10,2 C 9,4 C 10,0 C 86 % 1020,2 hPa 0,0 l/m 0,0 km/h (0 Bft) W-SW 257 0 min 0,000 mm 0,0 UV-I 27 W/m 8,0 C 10,2 C 0,0 km/h (0 Bft) 95,74 %
02.11.2018 15:54 10,2 C 9,4 C 10,0 C 86 % 1020,2 hPa 0,0 l/m 0,0 km/h (0 Bft) W-SW 257 0 min 0,000 mm 0,0 UV-I 25 W/m 8,0 C 10,2 C 0,0 km/h (0 Bft) 93,62 %
02.11.2018 15:56 10,2 C 9,4 C 10,0 C 85 % 1020,2 hPa 0,0 l/m 0,0 km/h (0 Bft) W-SW 257 0 min 0,000 mm 0,0 UV-I 22 W/m 7,8 C 10,2 C 0,0 km/h (0 Bft) 95,74 %
02.11.2018 15:58 10,2 C 9,4 C 10,0 C 86 % 1020,2 hPa 0,0 l/m 0,0 km/h (0 Bft) W-SW 257 0 min 0,000 mm 0,0 UV-I 19 W/m 8,0 C 10,2 C 0,0 km/h (0 Bft) 95,74 %
02.11.2018 16:00 10,2 C 9,4 C 10,0 C 85 % 1020,2 hPa 0,0 l/m 0,0 km/h (0 Bft) W-SW 257 0 min 0,025 mm 0,0 UV-I 18 W/m 7,8 C 10,2 C 0,0 km/h (0 Bft) 95,74 %
02.11.2018 16:02 10,2 C 9,4 C 10,0 C 85 % 1020,3 hPa 0,0 l/m 0,5 km/h (0 Bft) W-SW 257 0 min 0,000 mm 0,0 UV-I 18 W/m 7,8 C 10,2 C 1,6 km/h (1 Bft) 98,00 %
02.11.2018 16:04 10,2 C 9,4 C 10,0 C 85 % 1020,3 hPa 0,0 l/m 0,2 km/h (0 Bft) W-SW 257 0 min 0,000 mm 0,0 UV-I 16 W/m 7,8 C 10,2 C 1,6 km/h (1 Bft) 95,74 %
02.11.2018 16:06 10,2 C 9,4 C 10,0 C 85 % 1020,3 hPa 0,0 l/m 0,0 km/h (0 Bft) W-SW 257 0 min 0,000 mm 0,0 UV-I 15 W/m 7,8 C 10,2 C 0,0 km/h (0 Bft) 97,87 %
02.11.2018 16:09 10,2 C 9,4 C 9,4 C 85 % 1020,2 hPa 0,0 l/m 0,0 km/h (0 Bft) W-SW 257 0 min 0,000 mm 0,0 UV-I 13 W/m 7,8 C 10,2 C 0,0 km/h (0 Bft) 97,18 %
02.11.2018 16:10 10,2 C 9,4 C 9,4 C 85 % 1020,2 hPa 0,0 l/m 0,6 km/h (0 Bft) W-SW 257 0 min 0,000 mm 0,0 UV-I 12 W/m 7,8 C 10,2 C 1,6 km/h (1 Bft) 90,91 %
02.11.2018 16:12 10,2 C 9,4 C 9,4 C 85 % 1020,3 hPa 0,0 l/m 1,1 km/h (1 Bft) W-SW 257 0 min 0,000 mm 0,0 UV-I 12 W/m 7,8 C 10,2 C 1,6 km/h (1 Bft) 97,87 %
02.11.2018 16:14 10,2 C 9,4 C 9,4 C 85 % 1020,3 hPa 0,0 l/m 1,0 km/h (0 Bft) W-SW 257 0 min 0,000 mm 0,0 UV-I 11 W/m 7,8 C 10,2 C 1,6 km/h (1 Bft) 97,87 %
02.11.2018 16:16 10,2 C 9,4 C 9,4 C 85 % 1020,3 hPa 0,0 l/m 0,2 km/h (0 Bft) W-SW 257 0 min 0,000 mm 0,0 UV-I 11 W/m 7,8 C 10,2 C 1,6 km/h (1 Bft) 98,04 %
02.11.2018 16:18 10,1 C 9,4 C 9,4 C 85 % 1020,4 hPa 0,0 l/m 0,4 km/h (0 Bft) W-SW 257 0 min 0,000 mm 0,0 UV-I 9 W/m 7,7 C 10,1 C 1,6 km/h (1 Bft) 100,00 %
02.11.2018 16:20 10,1 C 9,4 C 9,4 C 85 % 1020,4 hPa 0,0 l/m 1,2 km/h (1 Bft) W-SW 257 0 min 0,000 mm 0,0 UV-I 8 W/m 7,7 C 10,1 C 1,6 km/h (1 Bft) 95,74 %
02.11.2018 16:22 10,1 C 9,4 C 9,4 C 85 % 1020,4 hPa 0,0 l/m 0,7 km/h (0 Bft) W-SW 257 0 min 0,000 mm 0,0 UV-I 7 W/m 7,7 C 10,1 C 1,6 km/h (1 Bft) 95,74 %
02.11.2018 16:24 10,1 C 9,4 C 9,4 C 85 % 1020,5 hPa 0,0 l/m 1,0 km/h (0 Bft) W-SW 257 0 min 0,000 mm 0,0 UV-I 7 W/m 7,7 C 10,1 C 1,6 km/h (1 Bft) 100,00 %
02.11.2018 16:26 10,1 C 9,4 C 9,4 C 85 % 1020,5 hPa 0,0 l/m 1,4 km/h (1 Bft) W-SW 257 0 min 0,000 mm 0,0 UV-I 6 W/m 7,7 C 10,1 C 3,2 km/h (1 Bft) 93,62 %
02.11.2018 16:28 10,1 C 9,4 C 9,4 C 85 % 1020,5 hPa 0,0 l/m 2,5 km/h (1 Bft) W-SW 257 0 min 0,000 mm 0,0 UV-I 5 W/m 7,7 C 10,1 C 3,2 km/h (1 Bft) 95,74 %
02.11.2018 16:30 10,1 C 9,4 C 9,4 C 85 % 1020,5 hPa 0,0 l/m 2,4 km/h (1 Bft) W-SW 257 0 min 0,000 mm 0,0 UV-I 5 W/m 7,7 C 10,1 C 3,2 km/h (1 Bft) 97,37 %
02.11.2018 16:32 10,0 C 9,4 C 9,4 C 86 % 1020,6 hPa 0,0 l/m 2,2 km/h (1 Bft) W-SW 257 0 min 0,000 mm 0,0 UV-I 5 W/m 7,8 C 10,0 C 3,2 km/h (1 Bft) 97,87 %
02.11.2018 16:34 10,0 C 9,4 C 9,4 C 86 % 1020,6 hPa 0,0 l/m 3,2 km/h (1 Bft) W-SW 257 0 min 0,000 mm 0,0 UV-I 5 W/m 7,8 C 10,0 C 4,8 km/h (1 Bft) 98,00 %
02.11.2018 16:36 10,0 C 9,4 C 9,4 C 85 % 1020,6 hPa 0,0 l/m 2,5 km/h (1 Bft) W-SW 257 0 min 0,000 mm 0,0 UV-I 5 W/m 7,6 C 10,0 C 4,8 km/h (1 Bft) 94,00 %
02.11.2018 16:38 10,0 C 9,4 C 9,4 C 85 % 1020,6 hPa 0,0 l/m 3,7 km/h (1 Bft) W-SW 254 0 min 0,000 mm 0,0 UV-I 1 W/m 7,6 C 10,0 C 4,8 km/h (1 Bft) 96,00 %
02.11.2018 16:40 10,0 C 9,4 C 9,4 C 85 % 1020,6 hPa 0,0 l/m 2,8 km/h (1 Bft) W-SW 254 0 min 0,000 mm 0,0 UV-I 0 W/m 7,6 C 10,0 C 4,8 km/h (1 Bft) 97,87 %
02.11.2018 16:42 10,0 C 9,4 C 9,4 C 86 % 1020,7 hPa 0,0 l/m 2,6 km/h (1 Bft) W-SW 254 0 min 0,000 mm 0,0 UV-I 0 W/m 7,8 C 10,0 C 3,2 km/h (1 Bft) 93,62 %
02.11.2018 16:44 10,0 C 9,4 C 9,4 C 86 % 1020,7 hPa 0,0 l/m 2,7 km/h (1 Bft) W-SW 254 0 min 0,000 mm 0,0 UV-I 0 W/m 7,8 C 10,0 C 4,8 km/h (1 Bft) 95,74 %
02.11.2018 16:46 9,9 C 9,4 C 9,4 C 86 % 1020,8 hPa 0,0 l/m 3,9 km/h (1 Bft) SW 234 0 min 0,000 mm 0,0 UV-I 0 W/m 7,7 C 9,9 C 6,4 km/h (2 Bft) 97,87 %
02.11.2018 16:48 9,9 C 9,4 C 9,4 C 86 % 1020,8 hPa 0,0 l/m 4,5 km/h (1 Bft) SW 233 0 min 0,000 mm 0,0 UV-I 0 W/m 7,7 C 9,9 C 6,4 km/h (2 Bft) 97,37 %
02.11.2018 16:50 9,9 C 9,4 C 9,4 C 86 % 1020,9 hPa 0,0 l/m 3,4 km/h (1 Bft) W-SW 249 0 min 0,000 mm 0,0 UV-I 0 W/m 7,7 C 9,9 C 6,4 km/h (2 Bft) 95,74 %
02.11.2018 16:52 9,9 C 9,4 C 9,4 C 86 % 1020,7 hPa 0,0 l/m 3,4 km/h (1 Bft) W-SW 239 0 min 0,000 mm 0,0 UV-I 0 W/m 7,7 C 9,9 C 4,8 km/h (1 Bft) 94,00 %
02.11.2018 16:54 9,9 C 9,4 C 9,4 C 86 % 1020,8 hPa 0,0 l/m 2,4 km/h (1 Bft) W-SW 239 0 min 0,000 mm 0,0 UV-I 0 W/m 7,7 C 9,9 C 3,2 km/h (1 Bft) 95,74 %
02.11.2018 16:56 9,8 C 9,4 C 9,4 C 86 % 1020,8 hPa 0,0 l/m 3,2 km/h (1 Bft) W-SW 240 0 min 0,000 mm 0,0 UV-I 0 W/m 7,6 C 9,8 C 4,8 km/h (1 Bft) 97,87 %
02.11.2018 16:58 9,8 C 9,4 C 9,4 C 86 % 1020,8 hPa 0,0 l/m 3,2 km/h (1 Bft) W-SW 240 0 min 0,000 mm 0,0 UV-I 0 W/m 7,6 C 9,8 C 4,8 km/h (1 Bft) 97,92 %
02.11.2018 17:00 9,8 C 9,4 C 9,4 C 86 % 1020,8 hPa 0,0 l/m 3,1 km/h (1 Bft) W-SW 242 0 min 0,000 mm 0,0 UV-I 0 W/m 7,6 C 9,8 C 4,8 km/h (1 Bft) 100,00 %
02.11.2018 17:02 9,8 C 9,4 C 9,4 C 86 % 1020,8 hPa 0,0 l/m 3,1 km/h (1 Bft) W 264 0 min 0,000 mm 0,0 UV-I 0 W/m 7,6 C 9,8 C 4,8 km/h (1 Bft) 95,74 %
02.11.2018 17:04 9,8 C 9,4 C 9,4 C 86 % 1020,9 hPa 0,0 l/m 3,1 km/h (1 Bft) W 264 0 min 0,000 mm 0,0 UV-I 0 W/m 7,6 C 9,8 C 4,8 km/h (1 Bft) 96,00 %
02.11.2018 17:06 9,8 C 9,4 C 9,4 C 86 % 1020,9 hPa 0,0 l/m 2,6 km/h (1 Bft) W 264 0 min 0,000 mm 0,0 UV-I 0 W/m 7,6 C 9,8 C 3,2 km/h (1 Bft) 93,62 %
02.11.2018 17:08 9,8 C 9,4 C 9,4 C 86 % 1020,9 hPa 0,0 l/m 2,2 km/h (1 Bft) W 264 0 min 0,000 mm 0,0 UV-I 0 W/m 7,6 C 9,8 C 3,2 km/h (1 Bft) 95,74 %
02.11.2018 17:10 9,8 C 9,4 C 9,4 C 86 % 1020,9 hPa 0,0 l/m 2,0 km/h (1 Bft) W 264 0 min 0,000 mm 0,0 UV-I 0 W/m 7,6 C 9,8 C 3,2 km/h (1 Bft) 97,87 %
02.11.2018 17:12 9,8 C 9,4 C 9,4 C 86 % 1020,9 hPa 0,0 l/m 2,6 km/h (1 Bft) W 264 0 min 0,000 mm 0,0 UV-I 0 W/m 7,6 C 9,8 C 4,8 km/h (1 Bft) 97,37 %
02.11.2018 17:14 9,8 C 9,4 C 9,4 C 86 % 1021,0 hPa 0,0 l/m 3,1 km/h (1 Bft) W 264 0 min 0,000 mm 0,0 UV-I 0 W/m 7,6 C 9,8 C 4,8 km/h (1 Bft) 95,74 %
02.11.2018 17:16 9,8 C 9,4 C 9,4 C 86 % 1021,1 hPa 0,0 l/m 4,0 km/h (1 Bft) W-SW 254 0 min 0,000 mm 0,0 UV-I 0 W/m 7,6 C 9,8 C 6,4 km/h (2 Bft) 96,00 %
02.11.2018 17:18 9,8 C 9,4 C 9,4 C 86 % 1021,2 hPa 0,0 l/m 3,7 km/h (1 Bft) W-SW 254 0 min 0,000 mm 0,0 UV-I 0 W/m 7,6 C 9,8 C 4,8 km/h (1 Bft) 97,87 %
02.11.2018 17:20 9,8 C 9,4 C 9,4 C 86 % 1021,2 hPa 0,0 l/m 2,9 km/h (1 Bft) W-SW 255 0 min 0,000 mm 0,0 UV-I 0 W/m 7,6 C 9,8 C 4,8 km/h (1 Bft) 97,87 %
02.11.2018 17:22 9,8 C 9,4 C 9,4 C 86 % 1021,2 hPa 0,0 l/m 3,3 km/h (1 Bft) W 267 0 min 0,000 mm 0,0 UV-I 0 W/m 7,6 C 9,8 C 4,8 km/h (1 Bft) 98,00 %
02.11.2018 17:24 9,8 C 9,4 C 9,4 C 87 % 1021,2 hPa 0,0 l/m 4,1 km/h (1 Bft) W 276 0 min 0,000 mm 0,0 UV-I 0 W/m 7,7 C 9,8 C 6,4 km/h (2 Bft) 100,00 %
02.11.2018 17:26 9,8 C 9,4 C 9,4 C 87 % 1021,3 hPa 0,0 l/m 2,9 km/h (1 Bft) W-SW 248 0 min 0,000 mm 0,0 UV-I 0 W/m 7,7 C 9,8 C 4,8 km/h (1 Bft) 97,87 %
02.11.2018 17:28 9,7 C 9,4 C 9,4 C 87 % 1021,3 hPa 0,0 l/m 2,3 km/h (1 Bft) W-SW 248 0 min 0,000 mm 0,0 UV-I 0 W/m 7,6 C 9,7 C 3,2 km/h (1 Bft) 97,87 %
02.11.2018 17:30 9,7 C 9,4 C 9,4 C 87 % 1021,3 hPa 0,0 l/m 2,0 km/h (1 Bft) W-SW 248 0 min 0,000 mm 0,0 UV-I 0 W/m 7,6 C 9,7 C 3,2 km/h (1 Bft) 100,00 %
02.11.2018 17:32 9,7 C 9,4 C 8,9 C 87 % 1021,3 hPa 0,0 l/m 2,3 km/h (1 Bft) W-SW 254 0 min 0,000 mm 0,0 UV-I 0 W/m 7,6 C 9,7 C 4,8 km/h (1 Bft) 96,00 %
02.11.2018 17:34 9,7 C 9,4 C 8,9 C 87 % 1021,2 hPa 0,0 l/m 2,5 km/h (1 Bft) W-SW 254 0 min 0,000 mm 0,0 UV-I 0 W/m 7,6 C 9,7 C 4,8 km/h (1 Bft) 97,92 %
02.11.2018 17:36 9,7 C 9,4 C 8,9 C 87 % 1021,3 hPa 0,0 l/m 1,7 km/h (1 Bft) W-SW 254 0 min 0,000 mm 0,0 UV-I 0 W/m 7,6 C 9,7 C 3,2 km/h (1 Bft) 100,00 %
02.11.2018 17:39 9,7 C 9,4 C 8,9 C 87 % 1021,3 hPa 0,0 l/m 1,8 km/h (1 Bft) W-SW 254 0 min 0,000 mm 0,0 UV-I 0 W/m 7,6 C 9,7 C 3,2 km/h (1 Bft) 98,78 %
02.11.2018 17:40 9,7 C 9,4 C 8,9 C 87 % 1021,3 hPa 0,0 l/m 1,8 km/h (1 Bft) W-SW 254 0 min 0,000 mm 0,0 UV-I 0 W/m 7,6 C 9,7 C 3,2 km/h (1 Bft) 100,00 %
02.11.2018 17:42 9,7 C 9,4 C 8,9 C 88 % 1021,3 hPa 0,0 l/m 1,6 km/h (1 Bft) W-SW 254 0 min 0,000 mm 0,0 UV-I 0 W/m 7,8 C 9,7 C 3,2 km/h (1 Bft) 100,00 %
02.11.2018 17:44 9,7 C 9,4 C 8,9 C 87 % 1021,3 hPa 0,0 l/m 2,0 km/h (1 Bft) W-SW 254 0 min 0,000 mm 0,0 UV-I 0 W/m 7,6 C 9,7 C 3,2 km/h (1 Bft) 100,00 %
02.11.2018 17:46 9,6 C 9,4 C 8,9 C 88 % 1021,4 hPa 0,0 l/m 3,0 km/h (1 Bft) W-SW 254 0 min 0,000 mm 0,0 UV-I 0 W/m 7,7 C 9,6 C 4,8 km/h (1 Bft) 97,87 %
02.11.2018 17:48 9,6 C 9,4 C 8,9 C 88 % 1021,4 hPa 0,0 l/m 3,2 km/h (1 Bft) W-SW 254 0 min 0,000 mm 0,0 UV-I 0 W/m 7,7 C 9,6 C 4,8 km/h (1 Bft) 100,00 %
02.11.2018 17:50 9,6 C 9,4 C 8,9 C 88 % 1021,5 hPa 0,0 l/m 3,7 km/h (1 Bft) W-SW 253 0 min 0,000 mm 0,0 UV-I 0 W/m 7,7 C 9,6 C 4,8 km/h (1 Bft) 100,00 %
02.11.2018 17:52 9,6 C 9,4 C 8,9 C 88 % 1021,5 hPa 0,0 l/m 3,6 km/h (1 Bft) W-SW 253 0 min 0,000 mm 0,0 UV-I 0 W/m 7,7 C 9,6 C 4,8 km/h (1 Bft) 97,87 %
02.11.2018 17:54 9,6 C 9,4 C 8,9 C 88 % 1021,4 hPa 0,0 l/m 3,0 km/h (1 Bft) W-SW 237 0 min 0,000 mm 0,0 UV-I 0 W/m 7,7 C 9,6 C 4,8 km/h (1 Bft) 97,87 %
02.11.2018 17:56 9,6 C 9,4 C 8,9 C 88 % 1021,4 hPa 0,0 l/m 4,1 km/h (1 Bft) W-SW 237 0 min 0,000 mm 0,0 UV-I 0 W/m 7,7 C 9,6 C 6,4 km/h (2 Bft) 100,00 %
02.11.2018 17:58 9,5 C 9,4 C 8,9 C 88 % 1021,4 hPa 0,0 l/m 3,4 km/h (1 Bft) W-SW 237 0 min 0,000 mm 0,0 UV-I 0 W/m 7,6 C 9,5 C 4,8 km/h (1 Bft) 98,00 %
02.11.2018 18:00 9,5 C 9,4 C 8,9 C 88 % 1021,4 hPa 0,0 l/m 4,2 km/h (1 Bft) W-SW 237 0 min 0,000 mm 0,0 UV-I 0 W/m 7,6 C 9,5 C 6,4 km/h (2 Bft) 98,00 %
02.11.2018 18:02 9,6 C 9,4 C 8,9 C 89 % 1021,6 hPa 0,0 l/m 4,2 km/h (1 Bft) W-SW 239 0 min 0,000 mm 0,0 UV-I 0 W/m 7,9 C 9,6 C 6,4 km/h (2 Bft) 100,00 %
02.11.2018 18:04 9,5 C 9,4 C 8,9 C 89 % 1021,6 hPa 0,0 l/m 4,1 km/h (1 Bft) W-SW 237 0 min 0,000 mm 0,0 UV-I 0 W/m 7,8 C 9,5 C 6,4 km/h (2 Bft) 100,00 %
02.11.2018 18:06 9,5 C 9,4 C 8,9 C 89 % 1021,7 hPa 0,0 l/m 4,2 km/h (1 Bft) S-SW 201 0 min 0,000 mm 0,0 UV-I 0 W/m 7,8 C 9,5 C 6,4 km/h (2 Bft) 100,00 %
02.11.2018 18:08 9,4 C 9,4 C 8,9 C 89 % 1021,8 hPa 0,0 l/m 4,5 km/h (1 Bft) SW 233 0 min 0,000 mm 0,0 UV-I 0 W/m 7,7 C 9,4 C 6,4 km/h (2 Bft) 100,00 %
02.11.2018 18:10 9,4 C 9,4 C 8,9 C 89 % 1021,8 hPa 0,0 l/m 6,6 km/h (2 Bft) W 261 0 min 0,000 mm 0,0 UV-I 0 W/m 7,7 C 9,3 C 11,3 km/h (2 Bft) 100,00 %
02.11.2018 18:12 9,4 C 9,4 C 8,9 C 89 % 1021,8 hPa 0,0 l/m 6,7 km/h (2 Bft) W 267 0 min 0,000 mm 0,0 UV-I 0 W/m 7,7 C 9,2 C 9,7 km/h (2 Bft) 100,00 %
02.11.2018 18:14 9,4 C 9,4 C 8,9 C 89 % 1021,9 hPa 0,0 l/m 5,6 km/h (1 Bft) SW 232 0 min 0,000 mm 0,0 UV-I 0 W/m 7,7 C 9,4 C 9,7 km/h (2 Bft) 100,00 %
02.11.2018 18:16 9,3 C 9,4 C 8,9 C 89 % 1021,9 hPa 0,0 l/m 6,1 km/h (2 Bft) SW 221 0 min 0,000 mm 0,0 UV-I 0 W/m 7,6 C 9,3 C 9,7 km/h (2 Bft) 98,00 %
02.11.2018 18:18 9,3 C 9,4 C 8,9 C 90 % 1021,9 hPa 0,0 l/m 5,5 km/h (1 Bft) W-SW 238 0 min 0,000 mm 0,0 UV-I 0 W/m 7,7 C 9,3 C 9,7 km/h (2 Bft) 95,74 %
02.11.2018 18:20 9,3 C 9,4 C 8,9 C 90 % 1021,9 hPa 0,0 l/m 6,5 km/h (2 Bft) SW 232 0 min 0,000 mm 0,0 UV-I 0 W/m 7,7 C 9,3 C 12,9 km/h (3 Bft) 100,00 %
02.11.2018 18:22 9,3 C 9,4 C 8,9 C 90 % 1022,0 hPa 0,0 l/m 3,8 km/h (1 Bft) SW 215 0 min 0,000 mm 0,0 UV-I 0 W/m 7,7 C 9,3 C 8,0 km/h (2 Bft) 100,00 %
02.11.2018 18:24 9,3 C 9,4 C 8,9 C 90 % 1022,0 hPa 0,0 l/m 5,5 km/h (1 Bft) SW 214 0 min 0,000 mm 0,0 UV-I 0 W/m 7,7 C 9,3 C 8,0 km/h (2 Bft) 95,74 %
02.11.2018 18:26 9,3 C 9,4 C 8,9 C 90 % 1022,1 hPa 0,0 l/m 7,3 km/h (2 Bft) W-SW 250 0 min 0,000 mm 0,0 UV-I 0 W/m 7,7 C 8,6 C 12,9 km/h (3 Bft) 97,87 %
02.11.2018 18:28 9,3 C 9,4 C 8,9 C 90 % 1022,1 hPa 0,0 l/m 6,5 km/h (2 Bft) W-SW 241 0 min 0,000 mm 0,0 UV-I 0 W/m 7,7 C 9,3 C 11,3 km/h (2 Bft) 97,87 %
02.11.2018 18:30 9,3 C 9,4 C 8,9 C 90 % 1022,2 hPa 0,0 l/m 4,8 km/h (1 Bft) W 262 0 min 0,000 mm 0,0 UV-I 0 W/m 7,7 C 9,3 C 6,4 km/h (2 Bft) 92,00 %
02.11.2018 18:32 9,3 C 9,4 C 8,9 C 90 % 1022,2 hPa 0,0 l/m 2,9 km/h (1 Bft) W 263 0 min 0,000 mm 0,0 UV-I 0 W/m 7,7 C 9,3 C 4,8 km/h (1 Bft) 95,74 %
02.11.2018 18:34 9,3 C 9,4 C 8,9 C 90 % 1022,2 hPa 0,0 l/m 2,8 km/h (1 Bft) W 262 0 min 0,000 mm 0,0 UV-I 0 W/m 7,7 C 9,3 C 4,8 km/h (1 Bft) 96,00 %
02.11.2018 18:36 9,3 C 9,4 C 8,9 C 90 % 1022,2 hPa 0,0 l/m 4,3 km/h (1 Bft) W 271 0 min 0,000 mm 0,0 UV-I 0 W/m 7,7 C 9,3 C 8,0 km/h (2 Bft) 95,74 %
02.11.2018 18:38 9,3 C 9,4 C 8,9 C 90 % 1022,2 hPa 0,0 l/m 5,9 km/h (2 Bft) W-SW 242 0 min 0,000 mm 0,0 UV-I 0 W/m 7,7 C 9,3 C 11,3 km/h (2 Bft) 93,62 %
02.11.2018 18:40 9,3 C 9,4 C 8,9 C 90 % 1022,2 hPa 0,0 l/m 4,8 km/h (1 Bft) W-SW 257 0 min 0,000 mm 0,0 UV-I 0 W/m 7,7 C 9,3 C 8,0 km/h (2 Bft) 95,74 %
02.11.2018 18:42 9,3 C 9,4 C 8,9 C 90 % 1022,3 hPa 0,0 l/m 4,1 km/h (1 Bft) W 259 0 min 0,000 mm 0,0 UV-I 0 W/m 7,7 C 9,3 C 6,4 km/h (2 Bft) 94,00 %
02.11.2018 18:44 9,3 C 9,4 C 8,9 C 90 % 1022,2 hPa 0,0 l/m 5,0 km/h (1 Bft) W 276 0 min 0,000 mm 0,0 UV-I 0 W/m 7,7 C 9,3 C 9,7 km/h (2 Bft) 94,29 %
02.11.2018 18:46 9,3 C 9,4 C 8,9 C 90 % 1022,3 hPa 0,0 l/m 5,3 km/h (1 Bft) W 261 0 min 0,000 mm 0,0 UV-I 0 W/m 7,7 C 9,3 C 9,7 km/h (2 Bft) 94,00 %
02.11.2018 18:48 9,3 C 9,4 C 8,9 C 90 % 1022,4 hPa 0,0 l/m 4,1 km/h (1 Bft) W-SW 258 0 min 0,000 mm 0,0 UV-I 0 W/m 7,7 C 9,3 C 6,4 km/h (2 Bft) 97,87 %
02.11.2018 18:50 9,3 C 9,4 C 8,9 C 90 % 1022,4 hPa 0,0 l/m 5,6 km/h (1 Bft) W-SW 256 0 min 0,000 mm 0,0 UV-I 0 W/m 7,7 C 9,3 C 8,0 km/h (2 Bft) 98,00 %
02.11.2018 18:52 9,3 C 9,4 C 8,9 C 90 % 1022,5 hPa 0,0 l/m 6,9 km/h (2 Bft) W-SW 237 0 min 0,000 mm 0,0 UV-I 0 W/m 7,7 C 8,9 C 9,7 km/h (2 Bft) 94,00 %
02.11.2018 18:54 9,3 C 9,4 C 8,9 C 90 % 1022,5 hPa 0,0 l/m 5,4 km/h (1 Bft) SW 236 0 min 0,000 mm 0,0 UV-I 0 W/m 7,7 C 9,3 C 9,7 km/h (2 Bft) 97,87 %
02.11.2018 18:56 9,3 C 9,4 C 8,9 C 90 % 1022,5 hPa 0,0 l/m 6,2 km/h (2 Bft) W-SW 240 0 min 0,000 mm 0,0 UV-I 0 W/m 7,7 C 9,3 C 9,7 km/h (2 Bft) 97,92 %
02.11.2018 18:58 9,3 C 9,4 C 8,9 C 90 % 1022,6 hPa 0,0 l/m 7,5 km/h (2 Bft) W-SW 246 0 min 0,000 mm 0,0 UV-I 0 W/m 7,7 C 8,5 C 11,3 km/h (2 Bft) 95,74 %
02.11.2018 19:00 9,3 C 9,4 C 8,9 C 91 % 1022,7 hPa 0,0 l/m 5,6 km/h (1 Bft) SW 236 0 min 0,000 mm 0,0 UV-I 0 W/m 7,9 C 9,3 C 8,0 km/h (2 Bft) 95,12 %
02.11.2018 19:02 9,3 C 9,4 C 8,9 C 91 % 1022,6 hPa 0,0 l/m 4,5 km/h (1 Bft) W-SW 244 0 min 0,000 mm 0,0 UV-I 0 W/m 7,9 C 9,3 C 6,4 km/h (2 Bft) 90,00 %
02.11.2018 19:04 9,3 C 9,4 C 8,9 C 91 % 1022,6 hPa 0,0 l/m 5,2 km/h (1 Bft) W-SW 247 0 min 0,000 mm 0,0 UV-I 0 W/m 7,9 C 9,3 C 8,0 km/h (2 Bft) 97,87 %
02.11.2018 19:06 9,2 C 9,4 C 8,9 C 91 % 1022,6 hPa 0,0 l/m 6,0 km/h (2 Bft) W-SW 252 0 min 0,000 mm 0,0 UV-I 0 W/m 7,8 C 9,2 C 9,7 km/h (2 Bft) 97,87 %
02.11.2018 19:08 9,2 C 9,4 C 8,9 C 91 % 1022,7 hPa 0,0 l/m 5,3 km/h (1 Bft) W-SW 250 0 min 0,000 mm 0,0 UV-I 0 W/m 7,8 C 9,2 C 6,4 km/h (2 Bft) 93,62 %
02.11.2018 19:10 9,2 C 9,4 C 8,9 C 91 % 1022,7 hPa 0,0 l/m 6,7 km/h (2 Bft) W-SW 238 0 min 0,000 mm 0,0 UV-I 0 W/m 7,8 C 9,0 C 9,7 km/h (2 Bft) 96,00 %
02.11.2018 19:12 9,2 C 9,4 C 8,9 C 91 % 1022,8 hPa 0,0 l/m 5,0 km/h (1 Bft) W-SW 248 0 min 0,000 mm 0,0 UV-I 0 W/m 7,8 C 9,2 C 6,4 km/h (2 Bft) 97,37 %
02.11.2018 19:14 9,2 C 9,4 C 8,9 C 91 % 1022,8 hPa 0,0 l/m 5,3 km/h (1 Bft) W-SW 239 0 min 0,000 mm 0,0 UV-I 0 W/m 7,8 C 9,2 C 6,4 km/h (2 Bft) 97,87 %
02.11.2018 19:16 9,2 C 9,4 C 8,9 C 91 % 1022,8 hPa 0,0 l/m 6,8 km/h (2 Bft) W-SW 257 0 min 0,000 mm 0,0 UV-I 0 W/m 7,8 C 8,9 C 11,3 km/h (2 Bft) 97,87 %
02.11.2018 19:18 9,2 C 9,4 C 8,9 C 91 % 1022,9 hPa 0,0 l/m 6,0 km/h (2 Bft) S-SW 201 0 min 0,000 mm 0,0 UV-I 0 W/m 7,8 C 9,2 C 11,3 km/h (2 Bft) 97,87 %
02.11.2018 19:20 9,2 C 9,4 C 8,9 C 91 % 1022,9 hPa 0,0 l/m 6,0 km/h (2 Bft) W-SW 255 0 min 0,000 mm 0,0 UV-I 0 W/m 7,8 C 9,2 C 12,9 km/h (3 Bft) 98,00 %
02.11.2018 19:22 9,2 C 9,4 C 8,9 C 91 % 1022,9 hPa 0,0 l/m 7,0 km/h (2 Bft) W-SW 249 0 min 0,000 mm 0,0 UV-I 0 W/m 7,8 C 8,8 C 11,3 km/h (2 Bft) 95,74 %
02.11.2018 19:24 9,2 C 9,4 C 8,9 C 91 % 1022,9 hPa 0,0 l/m 4,8 km/h (1 Bft) W 263 0 min 0,000 mm 0,0 UV-I 0 W/m 7,8 C 9,2 C 9,7 km/h (2 Bft) 95,74 %
02.11.2018 19:26 9,1 C 9,4 C 8,9 C 91 % 1022,9 hPa 0,0 l/m 5,4 km/h (1 Bft) W-NW 282 0 min 0,000 mm 0,0 UV-I 0 W/m 7,7 C 9,1 C 11,3 km/h (2 Bft) 97,87 %
02.11.2018 19:28 9,1 C 9,4 C 8,9 C 91 % 1022,8 hPa 0,0 l/m 5,8 km/h (2 Bft) W 266 0 min 0,000 mm 0,0 UV-I 0 W/m 7,7 C 9,1 C 9,7 km/h (2 Bft) 96,00 %
02.11.2018 19:30 9,1 C 9,4 C 8,9 C 91 % 1022,9 hPa 0,0 l/m 8,1 km/h (2 Bft) W 261 0 min 0,000 mm 0,0 UV-I 0 W/m 7,7 C 7,8 C 14,5 km/h (3 Bft) 97,62 %
02.11.2018 19:32 9,1 C 9,4 C 8,9 C 92 % 1023,0 hPa 0,0 l/m 5,4 km/h (1 Bft) W 267 0 min 0,000 mm 0,0 UV-I 0 W/m 7,9 C 9,1 C 9,7 km/h (2 Bft) 97,87 %
02.11.2018 19:34 9,1 C 9,4 C 8,9 C 92 % 1022,9 hPa 0,0 l/m 4,3 km/h (1 Bft) W 267 0 min 0,000 mm 0,0 UV-I 0 W/m 7,9 C 9,1 C 6,4 km/h (2 Bft) 100,00 %
02.11.2018 19:36 9,1 C 9,4 C 8,9 C 92 % 1022,9 hPa 0,0 l/m 4,8 km/h (1 Bft) W-SW 257 0 min 0,000 mm 0,0 UV-I 0 W/m 7,9 C 9,1 C 6,4 km/h (2 Bft) 96,00 %
02.11.2018 19:38 9,1 C 9,4 C 8,9 C 92 % 1022,9 hPa 0,0 l/m 3,5 km/h (1 Bft) W 277 0 min 0,000 mm 0,0 UV-I 0 W/m 7,9 C 9,1 C 6,4 km/h (2 Bft) 95,74 %
02.11.2018 19:40 9,1 C 9,4 C 8,9 C 92 % 1023,0 hPa 0,0 l/m 4,2 km/h (1 Bft) W-SW 257 0 min 0,000 mm 0,0 UV-I 0 W/m 7,9 C 9,1 C 8,0 km/h (2 Bft) 97,87 %
02.11.2018 19:42 9,1 C 9,4 C 8,9 C 92 % 1023,0 hPa 0,0 l/m 6,2 km/h (2 Bft) W-NW 286 0 min 0,000 mm 0,0 UV-I 0 W/m 7,9 C 9,1 C 11,3 km/h (2 Bft) 95,74 %
02.11.2018 19:44 9,1 C 9,4 C 8,9 C 92 % 1023,0 hPa 0,0 l/m 8,2 km/h (2 Bft) W 277 0 min 0,000 mm 0,0 UV-I 0 W/m 7,9 C 7,8 C 12,9 km/h (3 Bft) 94,74 %
02.11.2018 19:46 9,0 C 9,4 C 8,9 C 92 % 1023,0 hPa 0,0 l/m 8,2 km/h (2 Bft) W 267 0 min 0,000 mm 0,0 UV-I 0 W/m 7,8 C 7,7 C 16,1 km/h (3 Bft) 96,00 %
02.11.2018 19:48 9,0 C 9,4 C 8,9 C 92 % 1023,1 hPa 0,0 l/m 5,5 km/h (1 Bft) W-NW 282 0 min 0,000 mm 0,0 UV-I 0 W/m 7,8 C 9,0 C 12,9 km/h (3 Bft) 94,00 %
02.11.2018 19:50 8,9 C 9,4 C 8,3 C 92 % 1023,0 hPa 0,0 l/m 7,5 km/h (2 Bft) W 281 0 min 0,000 mm 0,0 UV-I 0 W/m 7,7 C 8,1 C 14,5 km/h (3 Bft) 91,49 %
02.11.2018 19:52 8,9 C 9,4 C 8,3 C 91 % 1023,0 hPa 0,0 l/m 2,7 km/h (1 Bft) NW 306 0 min 0,000 mm 0,0 UV-I 0 W/m 7,5 C 8,9 C 6,4 km/h (2 Bft) 95,74 %
02.11.2018 19:54 8,9 C 9,4 C 8,3 C 92 % 1023,0 hPa 0,0 l/m 6,5 km/h (2 Bft) W 276 0 min 0,000 mm 0,0 UV-I 0 W/m 7,7 C 8,9 C 9,7 km/h (2 Bft) 95,74 %
02.11.2018 19:56 8,9 C 9,4 C 8,3 C 92 % 1023,0 hPa 0,0 l/m 4,5 km/h (1 Bft) W 280 0 min 0,000 mm 0,0 UV-I 0 W/m 7,7 C 8,9 C 6,4 km/h (2 Bft) 95,74 %
02.11.2018 19:58 8,8 C 9,4 C 8,3 C 92 % 1023,0 hPa 0,0 l/m 5,4 km/h (1 Bft) W 264 0 min 0,000 mm 0,0 UV-I 0 W/m 7,6 C 8,8 C 6,4 km/h (2 Bft) 96,00 %
02.11.2018 20:00 8,8 C 9,4 C 8,3 C 92 % 1023,1 hPa 0,0 l/m 7,3 km/h (2 Bft) W 265 0 min 0,000 mm 0,0 UV-I 0 W/m 7,6 C 8,1 C 12,9 km/h (3 Bft) 89,36 %
02.11.2018 20:02 8,8 C 9,4 C 8,3 C 92 % 1023,1 hPa 0,0 l/m 6,2 km/h (2 Bft) W-NW 286 0 min 0,000 mm 0,0 UV-I 0 W/m 7,6 C 8,8 C 12,9 km/h (3 Bft) 94,74 %
02.11.2018 20:04 8,8 C 9,4 C 8,3 C 92 % 1023,1 hPa 0,0 l/m 5,7 km/h (1 Bft) W 262 0 min 0,000 mm 0,0 UV-I 0 W/m 7,6 C 8,8 C 12,9 km/h (3 Bft) 96,00 %
02.11.2018 20:06 8,8 C 9,4 C 8,3 C 92 % 1023,1 hPa 0,0 l/m 6,6 km/h (2 Bft) W-NW 286 0 min 0,000 mm 0,0 UV-I 0 W/m 7,6 C 8,7 C 12,9 km/h (3 Bft) 96,00 %
02.11.2018 20:08 8,8 C 9,4 C 8,3 C 92 % 1023,1 hPa 0,0 l/m 6,6 km/h (2 Bft) W-SW 258 0 min 0,000 mm 0,0 UV-I 0 W/m 7,6 C 8,7 C 12,9 km/h (3 Bft) 95,74 %
02.11.2018 20:10 8,8 C 9,4 C 8,3 C 92 % 1023,2 hPa 0,0 l/m 10,2 km/h (2 Bft) W 272 0 min 0,000 mm 0,0 UV-I 0 W/m 7,6 C 6,1 C 14,5 km/h (3 Bft) 94,87 %
02.11.2018 20:12 8,8 C 9,4 C 8,3 C 92 % 1023,1 hPa 0,0 l/m 6,2 km/h (2 Bft) W 266 0 min 0,000 mm 0,0 UV-I 0 W/m 7,6 C 8,8 C 12,9 km/h (3 Bft) 100,00 %
02.11.2018 20:14 8,8 C 9,4 C 8,3 C 93 % 1023,1 hPa 0,0 l/m 6,9 km/h (2 Bft) W-SW 257 0 min 0,000 mm 0,0 UV-I 0 W/m 7,7 C 8,4 C 14,5 km/h (3 Bft) 100,00 %
02.11.2018 20:16 8,8 C 9,4 C 8,3 C 93 % 1023,2 hPa 0,0 l/m 6,9 km/h (2 Bft) W-SW 256 0 min 0,000 mm 0,0 UV-I 0 W/m 7,7 C 8,4 C 14,5 km/h (3 Bft) 95,74 %
02.11.2018 20:18 8,8 C 9,4 C 8,3 C 93 % 1023,2 hPa 0,0 l/m 7,5 km/h (2 Bft) W 265 0 min 0,000 mm 0,0 UV-I 0 W/m 7,7 C 8,0 C 11,3 km/h (2 Bft) 100,00 %
02.11.2018 20:20 8,8 C 9,4 C 8,3 C 92 % 1023,2 hPa 0,0 l/m 8,3 km/h (2 Bft) W 280 0 min 0,000 mm 0,0 UV-I 0 W/m 7,6 C 7,4 C 12,9 km/h (3 Bft) 98,00 %
02.11.2018 20:22 8,8 C 9,4 C 8,3 C 92 % 1023,3 hPa 0,0 l/m 7,3 km/h (2 Bft) W 273 0 min 0,000 mm 0,0 UV-I 0 W/m 7,6 C 8,1 C 11,3 km/h (2 Bft) 100,00 %
02.11.2018 20:24 8,8 C 9,4 C 8,3 C 93 % 1023,4 hPa 0,0 l/m 7,3 km/h (2 Bft) W 265 0 min 0,000 mm 0,0 UV-I 0 W/m 7,7 C 8,1 C 11,3 km/h (2 Bft) 100,00 %
02.11.2018 20:26 8,8 C 9,4 C 8,3 C 92 % 1023,4 hPa 0,0 l/m 7,2 km/h (2 Bft) W 272 0 min 0,000 mm 0,0 UV-I 0 W/m 7,6 C 8,2 C 12,9 km/h (3 Bft) 100,00 %
02.11.2018 20:28 8,7 C 9,4 C 8,3 C 92 % 1023,4 hPa 0,0 l/m 6,2 km/h (2 Bft) W-SW 257 0 min 0,000 mm 0,0 UV-I 0 W/m 7,5 C 8,7 C 11,3 km/h (2 Bft) 95,74 %
02.11.2018 20:30 8,7 C 9,4 C 8,3 C 92 % 1023,5 hPa 0,0 l/m 8,1 km/h (2 Bft) SW 231 0 min 0,000 mm 0,0 UV-I 0 W/m 7,5 C 7,4 C 12,9 km/h (3 Bft) 100,00 %
02.11.2018 20:32 8,7 C 9,4 C 8,3 C 93 % 1023,6 hPa 0,0 l/m 8,8 km/h (2 Bft) W 263 0 min 0,000 mm 0,0 UV-I 0 W/m 7,6 C 6,9 C 12,9 km/h (3 Bft) 98,00 %
02.11.2018 20:34 8,7 C 9,4 C 8,3 C 93 % 1023,6 hPa 0,0 l/m 9,6 km/h (2 Bft) W 263 0 min 0,000 mm 0,0 UV-I 0 W/m 7,6 C 6,4 C 12,9 km/h (3 Bft) 94,74 %
02.11.2018 20:36 8,7 C 9,4 C 8,3 C 93 % 1023,6 hPa 0,0 l/m 10,3 km/h (2 Bft) W-SW 256 0 min 0,000 mm 0,0 UV-I 0 W/m 7,6 C 6,0 C 17,7 km/h (3 Bft) 95,74 %
02.11.2018 20:38 8,7 C 9,4 C 8,3 C 93 % 1023,7 hPa 0,0 l/m 8,3 km/h (2 Bft) W 269 0 min 0,000 mm 0,0 UV-I 0 W/m 7,6 C 7,3 C 12,9 km/h (3 Bft) 94,00 %
02.11.2018 20:40 8,7 C 9,4 C 8,3 C 93 % 1023,7 hPa 0,0 l/m 11,8 km/h (2 Bft) W 266 0 min 0,000 mm 0,0 UV-I 0 W/m 7,6 C 5,1 C 16,1 km/h (3 Bft) 98,00 %
02.11.2018 20:42 8,7 C 9,4 C 8,3 C 93 % 1023,7 hPa 0,0 l/m 8,9 km/h (2 Bft) W-NW 286 0 min 0,000 mm 0,0 UV-I 0 W/m 7,6 C 6,9 C 16,1 km/h (3 Bft) 98,00 %
02.11.2018 20:44 8,7 C 9,4 C 8,3 C 93 % 1023,7 hPa 0,0 l/m 10,4 km/h (2 Bft) W-SW 257 0 min 0,000 mm 0,0 UV-I 0 W/m 7,6 C 5,9 C 14,5 km/h (3 Bft) 97,87 %
02.11.2018 20:46 8,7 C 9,4 C 8,3 C 93 % 1023,6 hPa 0,0 l/m 11,8 km/h (2 Bft) W 276 0 min 0,000 mm 0,0 UV-I 0 W/m 7,6 C 5,1 C 17,7 km/h (3 Bft) 95,83 %
02.11.2018 20:48 8,7 C 9,4 C 8,3 C 93 % 1023,7 hPa 0,0 l/m 10,5 km/h (2 Bft) W 267 0 min 0,000 mm 0,0 UV-I 0 W/m 7,6 C 5,9 C 17,7 km/h (3 Bft) 97,87 %
02.11.2018 20:50 8,7 C 9,4 C 8,3 C 93 % 1023,7 hPa 0,0 l/m 10,8 km/h (2 Bft) W 267 0 min 0,000 mm 0,0 UV-I 0 W/m 7,6 C 5,7 C 17,7 km/h (3 Bft) 97,87 %
02.11.2018 20:52 8,7 C 9,4 C 8,3 C 93 % 1023,7 hPa 0,0 l/m 8,8 km/h (2 Bft) W 265 0 min 0,000 mm 0,0 UV-I 0 W/m 7,6 C 6,9 C 12,9 km/h (3 Bft) 94,74 %
02.11.2018 20:54 8,6 C 9,4 C 8,3 C 93 % 1023,7 hPa 0,0 l/m 8,2 km/h (2 Bft) W 264 0 min 0,000 mm 0,0 UV-I 0 W/m 7,5 C 7,2 C 12,9 km/h (3 Bft) 96,00 %
02.11.2018 20:56 8,6 C 9,4 C 8,3 C 93 % 1023,7 hPa 0,0 l/m 10,1 km/h (2 Bft) W 277 0 min 0,000 mm 0,0 UV-I 0 W/m 7,5 C 6,0 C 14,5 km/h (3 Bft) 97,56 %
02.11.2018 20:58 8,6 C 9,4 C 8,3 C 93 % 1023,8 hPa 0,0 l/m 9,7 km/h (2 Bft) W 267 0 min 0,000 mm 0,0 UV-I 0 W/m 7,5 C 6,2 C 16,1 km/h (3 Bft) 98,31 %
02.11.2018 21:00 8,6 C 9,4 C 8,3 C 93 % 1023,7 hPa 0,0 l/m 11,4 km/h (2 Bft) W 275 0 min 0,000 mm 0,0 UV-I 0 W/m 7,5 C 5,2 C 16,1 km/h (3 Bft) 95,74 %
02.11.2018 21:02 8,6 C 9,4 C 8,3 C 93 % 1023,7 hPa 0,0 l/m 8,5 km/h (2 Bft) W 259 0 min 0,000 mm 0,0 UV-I 0 W/m 7,5 C 7,0 C 14,5 km/h (3 Bft) 97,14 %
02.11.2018 21:04 8,6 C 9,4 C 8,3 C 93 % 1023,7 hPa 0,0 l/m 11,3 km/h (2 Bft) W 269 0 min 0,000 mm 0,0 UV-I 0 W/m 7,5 C 5,3 C 16,1 km/h (3 Bft) 97,87 %
02.11.2018 21:06 8,6 C 9,4 C 8,3 C 93 % 1023,7 hPa 0,0 l/m 8,8 km/h (2 Bft) W 280 0 min 0,000 mm 0,0 UV-I 0 W/m 7,5 C 6,8 C 14,5 km/h (3 Bft) 96,00 %
02.11.2018 21:08 8,5 C 9,4 C 8,3 C 94 % 1023,7 hPa 0,0 l/m 9,2 km/h (2 Bft) W 266 0 min 0,000 mm 0,0 UV-I 0 W/m 7,6 C 6,4 C 14,5 km/h (3 Bft) 100,00 %
02.11.2018 21:10 8,5 C 9,4 C 8,3 C 94 % 1023,8 hPa 0,0 l/m 9,0 km/h (2 Bft) W-SW 242 0 min 0,000 mm 0,0 UV-I 0 W/m 7,6 C 6,6 C 14,5 km/h (3 Bft) 100,00 %
02.11.2018 21:12 8,5 C 9,4 C 8,3 C 94 % 1023,8 hPa 0,0 l/m 9,0 km/h (2 Bft) W-SW 238 0 min 0,000 mm 0,0 UV-I 0 W/m 7,6 C 6,6 C 12,9 km/h (3 Bft) 97,87 %
02.11.2018 21:14 8,5 C 9,4 C 8,3 C 94 % 1023,8 hPa 0,0 l/m 8,7 km/h (2 Bft) W-SW 249 0 min 0,000 mm 0,0 UV-I 0 W/m 7,6 C 6,8 C 12,9 km/h (3 Bft) 93,62 %
02.11.2018 21:16 8,5 C 9,4 C 8,3 C 94 % 1023,8 hPa 0,0 l/m 9,5 km/h (2 Bft) W 275 0 min 0,000 mm 0,0 UV-I 0 W/m 7,6 C 6,3 C 14,5 km/h (3 Bft) 97,87 %
02.11.2018 21:18 8,5 C 9,4 C 8,3 C 94 % 1023,8 hPa 0,0 l/m 8,7 km/h (2 Bft) SW 230 0 min 0,000 mm 0,0 UV-I 0 W/m 7,6 C 6,8 C 12,9 km/h (3 Bft) 97,87 %
02.11.2018 21:20 8,5 C 9,4 C 8,3 C 94 % 1023,8 hPa 0,0 l/m 9,6 km/h (2 Bft) W 264 0 min 0,000 mm 0,0 UV-I 0 W/m 7,6 C 6,2 C 16,1 km/h (3 Bft) 97,87 %
02.11.2018 21:22 8,5 C 9,4 C 8,3 C 94 % 1023,8 hPa 0,0 l/m 8,3 km/h (2 Bft) W 261 0 min 0,000 mm 0,0 UV-I 0 W/m 7,6 C 7,1 C 14,5 km/h (3 Bft) 96,00 %
02.11.2018 21:24 8,5 C 9,4 C 8,3 C 94 % 1023,8 hPa 0,0 l/m 8,2 km/h (2 Bft) W 265 0 min 0,000 mm 0,0 UV-I 0 W/m 7,6 C 7,1 C 12,9 km/h (3 Bft) 97,22 %
02.11.2018 21:26 8,5 C 9,4 C 8,3 C 94 % 1023,8 hPa 0,0 l/m 9,4 km/h (2 Bft) W 271 0 min 0,000 mm 0,0 UV-I 0 W/m 7,6 C 6,3 C 12,9 km/h (3 Bft) 98,08 %
02.11.2018 21:28 8,5 C 9,4 C 8,3 C 94 % 1023,8 hPa 0,0 l/m 7,6 km/h (2 Bft) W 259 0 min 0,000 mm 0,0 UV-I 0 W/m 7,6 C 7,6 C 11,3 km/h (2 Bft) 98,00 %
02.11.2018 21:30 8,5 C 9,4 C 8,3 C 94 % 1023,8 hPa 0,0 l/m 6,8 km/h (2 Bft) W-SW 252 0 min 0,000 mm 0,0 UV-I 0 W/m 7,6 C 8,2 C 12,9 km/h (3 Bft) 97,87 %
02.11.2018 21:32 8,6 C 9,4 C 8,3 C 94 % 1023,8 hPa 0,0 l/m 9,3 km/h (2 Bft) W-SW 248 0 min 0,000 mm 0,0 UV-I 0 W/m 7,7 C 6,5 C 14,5 km/h (3 Bft) 97,87 %
02.11.2018 21:34 8,5 C 9,4 C 8,3 C 94 % 1023,8 hPa 0,0 l/m 7,7 km/h (2 Bft) W-SW 242 0 min 0,000 mm 0,0 UV-I 0 W/m 7,6 C 7,5 C 12,9 km/h (3 Bft) 100,00 %
02.11.2018 21:36 8,6 C 9,4 C 8,3 C 94 % 1023,9 hPa 0,0 l/m 4,7 km/h (1 Bft) W 269 0 min 0,000 mm 0,0 UV-I 0 W/m 7,7 C 8,6 C 6,4 km/h (2 Bft) 100,00 %
02.11.2018 21:39 8,6 C 9,4 C 8,3 C 94 % 1023,8 hPa 0,0 l/m 6,5 km/h (2 Bft) W-SW 245 0 min 0,000 mm 0,0 UV-I 0 W/m 7,7 C 8,5 C 11,3 km/h (2 Bft) 97,26 %
02.11.2018 21:40 8,6 C 9,4 C 8,3 C 94 % 1023,8 hPa 0,0 l/m 7,5 km/h (2 Bft) W-SW 252 0 min 0,000 mm 0,0 UV-I 0 W/m 7,7 C 7,8 C 11,3 km/h (2 Bft) 100,00 %
02.11.2018 21:42 8,6 C 9,4 C 8,3 C 94 % 1023,7 hPa 0,0 l/m 9,4 km/h (2 Bft) W-SW 252 0 min 0,000 mm 0,0 UV-I 0 W/m 7,7 C 6,4 C 12,9 km/h (3 Bft) 100,00 %
02.11.2018 21:44 8,6 C 9,4 C 8,3 C 94 % 1023,8 hPa 0,0 l/m 8,0 km/h (2 Bft) W 267 0 min 0,000 mm 0,0 UV-I 0 W/m 7,7 C 7,4 C 12,9 km/h (3 Bft) 97,87 %
02.11.2018 21:46 8,6 C 9,4 C 8,3 C 94 % 1023,8 hPa 0,0 l/m 11,3 km/h (2 Bft) W 259 0 min 0,000 mm 0,0 UV-I 0 W/m 7,7 C 5,3 C 14,5 km/h (3 Bft) 100,00 %
02.11.2018 21:49 8,6 C 9,4 C 8,3 C 94 % 1023,8 hPa 0,0 l/m 7,1 km/h (2 Bft) W-SW 252 0 min 0,000 mm 0,0 UV-I 0 W/m 7,7 C 8,1 C 11,3 km/h (2 Bft) 98,59 %
02.11.2018 21:50 8,6 C 9,4 C 8,3 C 94 % 1023,8 hPa 0,0 l/m 6,4 km/h (2 Bft) W 271 0 min 0,000 mm 0,0 UV-I 0 W/m 7,7 C 8,6 C 11,3 km/h (2 Bft) 100,00 %
02.11.2018 21:52 8,7 C 9,4 C 8,3 C 94 % 1023,8 hPa 0,0 l/m 7,5 km/h (2 Bft) W-SW 257 0 min 0,000 mm 0,0 UV-I 0 W/m 7,8 C 7,9 C 12,9 km/h (3 Bft) 100,00 %
02.11.2018 21:54 8,7 C 9,4 C 8,3 C 94 % 1023,8 hPa 0,0 l/m 7,4 km/h (2 Bft) W-SW 237 0 min 0,000 mm 0,0 UV-I 0 W/m 7,8 C 7,9 C 14,5 km/h (3 Bft) 100,00 %
02.11.2018 21:56 8,7 C 9,4 C 8,3 C 94 % 1023,8 hPa 0,0 l/m 8,1 km/h (2 Bft) W-SW 250 0 min 0,000 mm 0,0 UV-I 0 W/m 7,8 C 7,4 C 16,1 km/h (3 Bft) 97,87 %
02.11.2018 21:59 8,7 C 9,4 C 8,3 C 94 % 1023,8 hPa 0,0 l/m 6,8 km/h (2 Bft) SW 225 0 min 0,000 mm 0,0 UV-I 0 W/m 7,8 C 8,4 C 12,9 km/h (3 Bft) 98,59 %
02.11.2018 22:00 8,7 C 9,4 C 8,3 C 94 % 1023,8 hPa 0,0 l/m 8,7 km/h (2 Bft) W 259 0 min 0,000 mm 0,0 UV-I 0 W/m 7,8 C 7,0 C 14,5 km/h (3 Bft) 100,00 %
02.11.2018 22:02 8,7 C 9,4 C 8,3 C 94 % 1023,9 hPa 0,0 l/m 7,5 km/h (2 Bft) W-SW 250 0 min 0,000 mm 0,0 UV-I 0 W/m 7,8 C 7,9 C 11,3 km/h (2 Bft) 97,92 %
02.11.2018 22:04 8,8 C 9,4 C 8,3 C 94 % 1023,9 hPa 0,0 l/m 6,9 km/h (2 Bft) SW 236 0 min 0,000 mm 0,0 UV-I 0 W/m 7,9 C 8,4 C 11,3 km/h (2 Bft) 97,87 %
02.11.2018 22:06 8,8 C 9,4 C 8,3 C 94 % 1023,9 hPa 0,0 l/m 7,8 km/h (2 Bft) SW 230 0 min 0,000 mm 0,0 UV-I 0 W/m 7,9 C 7,7 C 12,9 km/h (3 Bft) 100,00 %
02.11.2018 22:09 8,8 C 9,4 C 8,3 C 94 % 1024,0 hPa 0,0 l/m 8,8 km/h (2 Bft) W-SW 240 0 min 0,000 mm 0,0 UV-I 0 W/m 7,9 C 7,0 C 14,5 km/h (3 Bft) 98,57 %
02.11.2018 22:10 8,8 C 9,4 C 8,3 C 94 % 1024,0 hPa 0,0 l/m 8,1 km/h (2 Bft) W-SW 250 0 min 0,000 mm 0,0 UV-I 0 W/m 7,9 C 7,5 C 12,9 km/h (3 Bft) 100,00 %
02.11.2018 22:12 8,8 C 9,4 C 8,9 C 94 % 1024,0 hPa 0,0 l/m 10,4 km/h (2 Bft) W-SW 248 0 min 0,000 mm 0,0 UV-I 0 W/m 7,9 C 6,0 C 14,5 km/h (3 Bft) 100,00 %
02.11.2018 22:14 8,8 C 9,4 C 8,9 C 94 % 1024,1 hPa 0,0 l/m 9,1 km/h (2 Bft) SW 230 0 min 0,000 mm 0,0 UV-I 0 W/m 7,9 C 6,8 C 14,5 km/h (3 Bft) 100,00 %
02.11.2018 22:16 8,9 C 9,4 C 8,9 C 94 % 1024,1 hPa 0,0 l/m 8,2 km/h (2 Bft) W-SW 238 0 min 0,000 mm 0,0 UV-I 0 W/m 8,0 C 7,6 C 14,5 km/h (3 Bft) 97,87 %
02.11.2018 22:19 8,9 C 9,4 C 8,9 C 95 % 1024,1 hPa 0,0 l/m 8,1 km/h (2 Bft) SW 225 0 min 0,000 mm 0,0 UV-I 0 W/m 8,1 C 7,6 C 16,1 km/h (3 Bft) 100,00 %
02.11.2018 22:20 8,9 C 9,4 C 8,9 C 95 % 1024,1 hPa 0,0 l/m 11,6 km/h (2 Bft) W-SW 239 0 min 0,000 mm 0,0 UV-I 0 W/m 8,1 C 5,5 C 16,1 km/h (3 Bft) 100,00 %
02.11.2018 22:22 8,9 C 9,4 C 8,9 C 95 % 1024,1 hPa 0,0 l/m 8,9 km/h (2 Bft) SW 235 0 min 0,000 mm 0,0 UV-I 0 W/m 8,1 C 7,1 C 16,1 km/h (3 Bft) 100,00 %
02.11.2018 22:24 8,9 C 9,4 C 8,9 C 95 % 1024,1 hPa 0,0 l/m 8,8 km/h (2 Bft) W-SW 244 0 min 0,000 mm 0,0 UV-I 0 W/m 8,1 C 7,1 C 16,1 km/h (3 Bft) 100,00 %
02.11.2018 22:26 8,9 C 9,4 C 8,9 C 95 % 1024,1 hPa 0,0 l/m 7,8 km/h (2 Bft) W-SW 242 0 min 0,000 mm 0,0 UV-I 0 W/m 8,1 C 7,8 C 11,3 km/h (2 Bft) 100,00 %
02.11.2018 22:29 8,9 C 9,4 C 8,9 C 95 % 1024,1 hPa 0,0 l/m 9,5 km/h (2 Bft) SW 230 0 min 0,000 mm 0,0 UV-I 0 W/m 8,1 C 6,7 C 16,1 km/h (3 Bft) 98,59 %
02.11.2018 22:30 8,9 C 9,4 C 8,9 C 95 % 1024,1 hPa 0,0 l/m 7,3 km/h (2 Bft) W-SW 240 0 min 0,000 mm 0,0 UV-I 0 W/m 8,1 C 8,2 C 12,9 km/h (3 Bft) 100,00 %
02.11.2018 22:32 8,9 C 9,4 C 8,9 C 95 % 1024,2 hPa 0,0 l/m 8,8 km/h (2 Bft) W-SW 237 0 min 0,000 mm 0,0 UV-I 0 W/m 8,1 C 7,1 C 14,5 km/h (3 Bft) 96,00 %
02.11.2018 22:34 8,9 C 9,4 C 8,9 C 95 % 1024,1 hPa 0,0 l/m 8,7 km/h (2 Bft) SW 234 0 min 0,000 mm 0,0 UV-I 0 W/m 8,1 C 7,2 C 12,9 km/h (3 Bft) 93,62 %
02.11.2018 22:36 8,9 C 9,4 C 8,9 C 95 % 1024,1 hPa 0,0 l/m 10,9 km/h (2 Bft) W-SW 247 0 min 0,000 mm 0,0 UV-I 0 W/m 8,1 C 5,9 C 16,1 km/h (3 Bft) 95,74 %
02.11.2018 22:38 8,9 C 9,4 C 8,9 C 95 % 1024,1 hPa 0,0 l/m 8,4 km/h (2 Bft) SW 225 0 min 0,000 mm 0,0 UV-I 0 W/m 8,1 C 7,4 C 14,5 km/h (3 Bft) 93,75 %
02.11.2018 22:40 8,9 C 9,4 C 8,9 C 95 % 1024,0 hPa 0,0 l/m 9,4 km/h (2 Bft) SW 235 0 min 0,000 mm 0,0 UV-I 0 W/m 8,1 C 6,8 C 16,1 km/h (3 Bft) 95,74 %
02.11.2018 22:42 8,9 C 9,4 C 8,9 C 95 % 1024,0 hPa 0,0 l/m 9,5 km/h (2 Bft) W-SW 257 0 min 0,000 mm 0,0 UV-I 0 W/m 8,1 C 6,7 C 17,7 km/h (3 Bft) 93,62 %
02.11.2018 22:44 8,9 C 9,4 C 8,9 C 95 % 1024,0 hPa 0,0 l/m 5,7 km/h (1 Bft) W 261 0 min 0,000 mm 0,0 UV-I 0 W/m 8,1 C 8,9 C 12,9 km/h (3 Bft) 93,62 %
02.11.2018 22:46 8,9 C 9,4 C 8,9 C 95 % 1024,0 hPa 0,0 l/m 6,3 km/h (2 Bft) SW 229 0 min 0,000 mm 0,0 UV-I 0 W/m 8,1 C 8,9 C 11,3 km/h (2 Bft) 94,00 %
02.11.2018 22:49 8,8 C 9,4 C 8,9 C 95 % 1024,0 hPa 0,0 l/m 7,3 km/h (2 Bft) S-SW 205 0 min 0,000 mm 0,0 UV-I 0 W/m 8,0 C 8,1 C 12,9 km/h (3 Bft) 95,71 %
02.11.2018 22:50 8,8 C 9,4 C 8,9 C 95 % 1024,0 hPa 0,0 l/m 6,9 km/h (2 Bft) SW 229 0 min 0,000 mm 0,0 UV-I 0 W/m 8,0 C 8,4 C 9,7 km/h (2 Bft) 95,83 %
02.11.2018 22:52 8,8 C 9,4 C 8,9 C 95 % 1023,9 hPa 0,0 l/m 8,2 km/h (2 Bft) W-SW 237 0 min 0,000 mm 0,0 UV-I 0 W/m 8,0 C 7,5 C 12,9 km/h (3 Bft) 95,74 %
02.11.2018 22:54 8,8 C 9,4 C 8,9 C 95 % 1024,0 hPa 0,0 l/m 7,7 km/h (2 Bft) W-SW 247 0 min 0,000 mm 0,0 UV-I 0 W/m 8,0 C 7,8 C 14,5 km/h (3 Bft) 95,74 %
02.11.2018 22:56 8,8 C 9,4 C 8,9 C 95 % 1024,0 hPa 0,0 l/m 9,0 km/h (2 Bft) W-SW 248 0 min 0,000 mm 0,0 UV-I 0 W/m 8,0 C 6,9 C 14,5 km/h (3 Bft) 95,74 %
02.11.2018 22:58 8,8 C 9,4 C 8,9 C 95 % 1023,9 hPa 0,0 l/m 9,9 km/h (2 Bft) W-SW 239 0 min 0,000 mm 0,0 UV-I 0 W/m 8,0 C 6,3 C 16,1 km/h (3 Bft) 97,87 %
02.11.2018 23:00 8,8 C 9,4 C 8,9 C 95 % 1023,9 hPa 0,0 l/m 9,6 km/h (2 Bft) W-SW 250 0 min 0,000 mm 0,0 UV-I 0 W/m 8,0 C 6,5 C 14,5 km/h (3 Bft) 95,74 %
02.11.2018 23:02 8,8 C 9,4 C 8,9 C 95 % 1023,9 hPa 0,0 l/m 8,5 km/h (2 Bft) SW 230 0 min 0,000 mm 0,0 UV-I 0 W/m 8,0 C 7,2 C 11,3 km/h (2 Bft) 91,43 %
02.11.2018 23:04 8,8 C 9,4 C 8,9 C 95 % 1023,9 hPa 0,0 l/m 11,0 km/h (2 Bft) W-SW 246 0 min 0,000 mm 0,0 UV-I 0 W/m 8,0 C 5,7 C 16,1 km/h (3 Bft) 95,74 %
02.11.2018 23:06 8,8 C 9,4 C 8,9 C 95 % 1024,0 hPa 0,0 l/m 8,7 km/h (2 Bft) W-SW 238 0 min 0,000 mm 0,0 UV-I 0 W/m 8,0 C 7,1 C 12,9 km/h (3 Bft) 95,74 %
02.11.2018 23:09 8,8 C 9,4 C 8,9 C 95 % 1024,0 hPa 0,0 l/m 8,0 km/h (2 Bft) W-SW 253 0 min 0,000 mm 0,0 UV-I 0 W/m 8,0 C 7,6 C 14,5 km/h (3 Bft) 95,95 %
02.11.2018 23:10 8,8 C 9,4 C 8,9 C 95 % 1024,0 hPa 0,0 l/m 5,7 km/h (1 Bft) W-SW 237 0 min 0,000 mm 0,0 UV-I 0 W/m 8,0 C 8,8 C 14,5 km/h (3 Bft) 95,65 %
02.11.2018 23:12 8,8 C 9,4 C 8,9 C 95 % 1024,1 hPa 0,0 l/m 8,0 km/h (2 Bft) W-SW 240 0 min 0,000 mm 0,0 UV-I 0 W/m 8,0 C 7,6 C 12,9 km/h (3 Bft) 97,87 %
02.11.2018 23:14 8,8 C 9,4 C 8,9 C 95 % 1024,1 hPa 0,0 l/m 8,8 km/h (2 Bft) S-SW 209 0 min 0,000 mm 0,0 UV-I 0 W/m 8,0 C 7,0 C 12,9 km/h (3 Bft) 97,92 %
02.11.2018 23:16 8,8 C 9,4 C 8,9 C 95 % 1024,1 hPa 0,0 l/m 7,1 km/h (2 Bft) W-SW 238 0 min 0,000 mm 0,0 UV-I 0 W/m 8,0 C 8,3 C 12,9 km/h (3 Bft) 97,87 %
02.11.2018 23:19 8,7 C 9,4 C 8,3 C 95 % 1024,1 hPa 0,0 l/m 8,7 km/h (2 Bft) SW 222 0 min 0,000 mm 0,0 UV-I 0 W/m 7,9 C 7,0 C 12,9 km/h (3 Bft) 97,26 %
02.11.2018 23:20 8,7 C 9,4 C 8,9 C 95 % 1024,1 hPa 0,0 l/m 9,2 km/h (2 Bft) W-SW 244 0 min 0,000 mm 0,0 UV-I 0 W/m 7,9 C 6,7 C 12,9 km/h (3 Bft) 91,67 %
02.11.2018 23:22 8,7 C 9,4 C 8,3 C 95 % 1024,0 hPa 0,0 l/m 8,2 km/h (2 Bft) SW 236 0 min 0,000 mm 0,0 UV-I 0 W/m 7,9 C 7,3 C 16,1 km/h (3 Bft) 95,74 %
02.11.2018 23:24 8,7 C 9,4 C 8,3 C 95 % 1024,0 hPa 0,0 l/m 6,4 km/h (2 Bft) SW 234 0 min 0,000 mm 0,0 UV-I 0 W/m 7,9 C 8,7 C 11,3 km/h (2 Bft) 98,00 %
02.11.2018 23:26 8,7 C 9,4 C 8,9 C 95 % 1024,1 hPa 0,0 l/m 7,6 km/h (2 Bft) SW 232 0 min 0,000 mm 0,0 UV-I 0 W/m 7,9 C 7,8 C 12,9 km/h (3 Bft) 97,87 %
02.11.2018 23:28 8,7 C 9,4 C 8,3 C 95 % 1024,1 hPa 0,0 l/m 7,4 km/h (2 Bft) SW 235 0 min 0,000 mm 0,0 UV-I 0 W/m 7,9 C 7,9 C 16,1 km/h (3 Bft) 97,14 %
02.11.2018 23:30 8,7 C 9,4 C 8,3 C 95 % 1024,1 hPa 0,0 l/m 8,8 km/h (2 Bft) SW 236 0 min 0,000 mm 0,0 UV-I 0 W/m 7,9 C 6,9 C 14,5 km/h (3 Bft) 96,36 %
02.11.2018 23:32 8,7 C 9,4 C 8,3 C 95 % 1024,1 hPa 0,0 l/m 8,1 km/h (2 Bft) W-SW 238 0 min 0,000 mm 0,0 UV-I 0 W/m 7,9 C 7,4 C 14,5 km/h (3 Bft) 98,00 %
02.11.2018 23:34 8,7 C 9,4 C 8,3 C 95 % 1024,1 hPa 0,0 l/m 7,1 km/h (2 Bft) W-SW 252 0 min 0,000 mm 0,0 UV-I 0 W/m 7,9 C 8,2 C 11,3 km/h (2 Bft) 97,87 %
02.11.2018 23:36 8,7 C 9,4 C 8,3 C 95 % 1024,1 hPa 0,0 l/m 7,2 km/h (2 Bft) W 270 0 min 0,000 mm 0,0 UV-I 0 W/m 7,9 C 8,1 C 9,7 km/h (2 Bft) 95,65 %
02.11.2018 23:38 8,7 C 9,4 C 8,3 C 95 % 1024,1 hPa 0,0 l/m 7,8 km/h (2 Bft) SW 229 0 min 0,000 mm 0,0 UV-I 0 W/m 7,9 C 7,6 C 12,9 km/h (3 Bft) 98,39 %
02.11.2018 23:40 8,7 C 9,4 C 8,3 C 95 % 1024,0 hPa 0,0 l/m 6,1 km/h (2 Bft) W-SW 250 0 min 0,000 mm 0,0 UV-I 0 W/m 7,9 C 8,7 C 8,0 km/h (2 Bft) 98,00 %
02.11.2018 23:42 8,6 C 9,4 C 8,3 C 95 % 1024,1 hPa 0,0 l/m 6,0 km/h (2 Bft) SW 229 0 min 0,000 mm 0,0 UV-I 0 W/m 7,8 C 8,6 C 11,3 km/h (2 Bft) 96,00 %
02.11.2018 23:44 8,6 C 9,4 C 8,3 C 95 % 1024,0 hPa 0,0 l/m 9,1 km/h (2 Bft) W 271 0 min 0,000 mm 0,0 UV-I 0 W/m 7,8 C 6,6 C 12,9 km/h (3 Bft) 100,00 %
02.11.2018 23:46 8,7 C 9,4 C 8,3 C 95 % 1024,0 hPa 0,0 l/m 8,8 km/h (2 Bft) SW 228 0 min 0,000 mm 0,0 UV-I 0 W/m 7,9 C 6,9 C 16,1 km/h (3 Bft) 96,00 %
02.11.2018 23:49 8,6 C 9,4 C 8,3 C 95 % 1024,0 hPa 0,0 l/m 8,2 km/h (2 Bft) SW 231 0 min 0,000 mm 0,0 UV-I 0 W/m 7,8 C 7,2 C 14,5 km/h (3 Bft) 98,59 %
02.11.2018 23:50 8,6 C 9,4 C 8,3 C 95 % 1024,0 hPa 0,0 l/m 10,3 km/h (2 Bft) SW 225 0 min 0,000 mm 0,0 UV-I 0 W/m 7,8 C 5,9 C 14,5 km/h (3 Bft) 95,65 %
02.11.2018 23:52 8,6 C 9,4 C 8,3 C 95 % 1024,0 hPa 0,0 l/m 9,7 km/h (2 Bft) W-SW 238 0 min 0,000 mm 0,0 UV-I 0 W/m 7,8 C 6,2 C 12,9 km/h (3 Bft) 97,87 %
02.11.2018 23:54 8,6 C 9,4 C 8,3 C 95 % 1024,1 hPa 0,0 l/m 7,0 km/h (2 Bft) W-SW 258 0 min 0,000 mm 0,0 UV-I 0 W/m 7,8 C 8,1 C 11,3 km/h (2 Bft) 95,83 %
02.11.2018 23:56 8,6 C 9,4 C 8,3 C 95 % 1024,1 hPa 0,0 l/m 8,1 km/h (2 Bft) SW 232 0 min 0,000 mm 0,0 UV-I 0 W/m 7,8 C 7,3 C 12,9 km/h (3 Bft) 94,00 %
02.11.2018 23:59 8,6 C 9,4 C 8,3 C 95 % 1024,1 hPa 0,0 l/m 8,0 km/h (2 Bft) W 271 0 min 0,000 mm 0,0 UV-I 0 W/m 7,8 C 7,4 C 12,9 km/h (3 Bft) 93,15 %
_ Min-Zeit 06:32 00:00 03:18 11:38 00:00 - 03:38 - - - - - - 05:16 20:40 08:42 00:02
Minimum _ 5,7 C 9,4 C 2,8 C 77 % 1016,0 hPa - 0,0 km/h (0 Bft) - - - - - - 4,5 C 5,1 C 0,0 km/h (0 Bft) 11,11 %
_ Max-Zeit 11:36 00:00 10:40 22:19 22:32 00:00 00:14 - - 07:02 12:00 10:44 10:40 22:19 11:36 00:14 00:28
Maximum _ 11,6 C 9,4 C 16,1 C 95 % 1024,2 hPa 0,0 l/m 12,8 km/h
W-NW (3 Bft)
- - 2 min 0,153 mm 0,9 UV-I 393 W/m 8,1 C 11,6 C 19,3 km/h
W (3 Bft)
100,00 %
Durchschnitt _ 8,9 C 9,4 C 8,7 C 88 % 1020,6 hPa #0,0 l/m 4,5 km/h (1 Bft) W - #2:30 h #0,635 mm 0,7 UV-I 120 W/m 6,9 C 8,4 C 7,2 km/h (2 Bft) 96,95 %